[[[{"header":{"parameterUnit":"kt","parameterCategory":2,"dx":1,"dy":1,"la1":29.587661999999998,"la2":31.0,"lo1":-88.76705300000003,"lo2":-86.6583820000003,"nx":115,"ny":88,"refTime":"2022-10-31T00:00:00:Z","depth":0,"parameterNumber":1,"parameterNumberName":"U-component_of_WINDS"},"data":[-8.3125,-8.0259,-8.007,-8.0032,-8.0183,-8.0032,-8.0032,-8.0032,-8.0032,-8.0032,-8.0032,-8.0032,-8.0032,-8.0107,-8.0791,-8.1474,-8.2309,-8.3183,-8.5043,-8.7055,-8.7663,-8.8726,-8.9561,-9.0016,-9.0016,-9.0016,-9.0016,-9.0016,-9.0016,-8.9979,-8.9637,-8.8915,-8.8802,-8.827,-8.7435,-8.6903,-8.6524,-8.6562,-8.6676,-8.6979,-8.8004,-8.8232,-8.8384,-8.8953,-8.9447,-8.9751,-8.9979,-9.0016,-9.0016,-9.0016,-9.0016,-9.0016,-9.0016,-9.0016,-9.0016,-9.0016,-9.0016,-9.0016,-9.0016,-9.0016,-9.0016,-9.0016,-9.0016,-8.9979,-8.9072,-8.8356,-8.6989,-8.6206,-8.4171,-8.1975,-8.1393,-8.0413,-8.0142,-7.9979,-7.9815,-7.9815,-7.9815,-7.9815,-7.9815,-7.9815,-7.9815,-7.9815,-7.9815,-7.9815,-7.9815,-7.9815,-7.9815,-7.8467,-7.8138,-7.5126,-7.1921,-6.8911,-6.5872,-6.2504,-5.9868,-5.9858,-6.0069,-5.9835,-5.9835,-6.0147,-6.0588,-6.1185,-6.1237,-6.0952,-6.1056,-6.1263,-6.1445,-6.1419,-6.1471,-6.1497,-6.1523,-6.1497,-6.1523,-6.1471,-6.1263,-8.2857,-8.1019,-8.0335,-8.0032,-8.0032,-8.0032,-8.0032,-8.0032,-8.0032,-8.0032,-8.0032,-8.0032,-8.0032,-8.0032,-8.0221,-8.0791,-8.1436,-8.2158,-8.4056,-8.5916,-8.6979,-8.8004,-8.8953,-8.9941,-8.9903,-8.9903,-8.9979,-9.0016,-8.9979,-8.9789,-8.9485,-8.8953,-8.846,-8.8004,-8.6903,-8.6258,-8.6106,-8.5992,-8.603,-8.6372,-8.6486,-8.6638,-8.7511,-8.8308,-8.8953,-8.9333,-8.9789,-8.9979,-8.9979,-8.9941,-8.9865,-8.9865,-8.9827,-8.9941,-8.9941,-8.9903,-8.9865,-9.0016,-9.0016,-9.0016,-9.0016,-9.0016,-9.0016,-8.96,-8.8731,-8.7342,-8.5519,-8.3838,-8.1827,-8.025,-8.025,-7.9979,-7.9979,-7.9815,-7.9815,-7.9815,-7.9815,-7.9815,-7.9815,-7.9815,-7.9815,-7.9815,-7.9815,-7.9815,-7.9815,-7.9815,-7.9159,-7.7609,-7.5624,-7.2856,-6.9257,-6.5845,-6.3607,-6.1906,-5.9744,-5.9653,-6.0199,-5.9965,-5.9757,-5.9913,-6.0095,-6.038,-6.0484,-6.0354,-6.051,-6.0718,-6.09,-6.1004,-6.1289,-6.1393,-6.1289,-6.1107,-6.1133,-6.0952,-6.0848,-8.2972,-8.0715,-8.0183,-8.0032,-8.0032,-8.0032,-8.0032,-8.0032,-8.0032,-8.0032,-8.0032,-8.0032,-8.0032,-8.0032,-8.0032,-8.0525,-8.1171,-8.1246,-8.2841,-8.4511,-8.565,-8.6903,-8.8194,-8.9257,-8.9447,-8.9561,-8.9751,-8.9941,-8.9903,-8.9637,-8.8953,-8.8118,-8.7473,-8.6979,-8.6486,-8.5802,-8.5537,-8.565,-8.5537,-8.5575,-8.5575,-8.6106,-8.6865,-8.7207,-8.7777,-8.8194,-8.8574,-8.865,-8.8878,-8.9219,-8.9333,-8.9333,-8.9371,-8.9713,-8.9751,-8.9599,-8.9751,-9.0016,-9.0016,-9.0016,-9.0016,-8.9846,-8.9676,-8.8714,-8.7884,-8.5441,-8.3672,-8.2535,-8.0536,-8.0014,-7.9979,-7.9815,-7.9815,-7.9815,-7.9815,-7.9815,-7.9815,-7.9815,-7.9815,-7.9815,-7.9815,-7.9815,-7.9815,-7.9815,-7.9815,-7.9815,-7.7279,-7.5425,-7.3224,-7.0659,-6.6277,-6.268,-6.1615,-6.0189,-5.9601,-5.9939,-6.0276,-6.0043,-5.9757,-5.9861,-5.9939,-5.9887,-5.9861,-5.9991,-6.0121,-6.0224,-6.025,-6.0302,-6.0562,-6.0848,-6.0796,-6.0718,-6.051,-6.0354,-5.9835,-8.2701,-8.007,-8.0032,-8.0032,-8.0032,-8.0032,-8.0032,-8.0032,-8.0032,-8.0032,-8.0032,-8.0032,-8.0032,-8.0032,-8.0032,-8.0259,-8.0715,-8.0677,-8.155,-8.3145,-8.4398,-8.5537,-8.6638,-8.8346,-8.8991,-8.9067,-8.9333,-8.9713,-8.9789,-8.9181,-8.8384,-8.7587,-8.7245,-8.6524,-8.5878,-8.5878,-8.5537,-8.5575,-8.5347,-8.5119,-8.5119,-8.5688,-8.6182,-8.6562,-8.6827,-8.7283,-8.7663,-8.7663,-8.8004,-8.8308,-8.846,-8.8498,-8.8536,-8.9257,-8.9295,-8.9067,-8.9561,-8.9903,-9.0016,-8.9638,-8.9506,-8.9335,-8.8656,-8.7772,-8.6147,-8.3651,-8.195,-8.1131,-8.0278,-7.9993,-7.9815,-7.9815,-7.9815,-7.9815,-7.9815,-7.9815,-7.9815,-7.9815,-7.9815,-7.9815,-7.9815,-7.9815,-7.9815,-7.9815,-7.9815,-7.8467,-7.6122,-7.3427,-7.1408,-6.744,-6.2794,-6.1186,-5.9958,-5.9965,-6.0199,-6.0354,-6.0276,-6.0069,-6.0147,-6.0043,-5.9887,-5.9965,-6.0043,-5.9939,-5.9653,-5.9653,-5.9653,-5.9705,-5.9861,-6.0069,-6.0121,-6.025,-6.0095,-5.9393,-5.8718,-8.1743,-8.0032,-8.0032,-8.0032,-8.0032,-8.0032,-8.0032,-8.0032,-8.0032,-8.0032,-8.0032,-8.0032,-8.0032,-8.0032,-8.0032,-8.0183,-8.0183,-8.0183,-8.1057,-8.2537,-8.3373,-8.4436,-8.5764,-8.7283,-8.808,-8.8612,-8.9029,-8.9447,-8.9599,-8.9029,-8.8156,-8.7549,-8.7169,-8.6448,-8.5537,-8.5575,-8.5537,-8.5385,-8.5081,-8.4929,-8.5005,-8.5119,-8.5423,-8.6106,-8.641,-8.6638,-8.7207,-8.7473,-8.7587,-8.7587,-8.7625,-8.7663,-8.789,-8.8384,-8.8726,-8.8915,-8.9354,-8.9525,-8.9506,-8.8957,-8.8823,-8.822,-8.7263,-8.6177,-8.4636,-8.2469,-8.1167,-8.0336,-8.01,-7.9886,-7.9815,-7.9815,-7.9815,-7.9815,-7.9815,-7.9815,-7.9815,-7.9815,-7.9815,-7.9815,-7.9815,-7.9815,-7.9815,-7.9815,-7.9815,-7.8631,-7.6088,-7.2391,-6.8841,-6.3884,-6.0932,-5.9586,-5.9419,-5.9757,-6.0069,-6.0224,-6.0199,-6.038,-6.0692,-6.0536,-5.9575,-5.9705,-6.0147,-5.9653,-5.9082,-5.9082,-5.9134,-5.9341,-5.9497,-5.9497,-5.9497,-5.9705,-5.9238,-5.8381,-5.7679,-8.1974,-8.0259,-8.0032,-8.0032,-8.0032,-8.0032,-8.0032,-8.0032,-8.0032,-8.0032,-8.0032,-8.0032,-8.0032,-8.0032,-8.0032,-8.0032,-8.0032,-8.007,-8.0335,-8.1512,-8.2309,-8.3373,-8.4511,-8.5764,-8.7055,-8.7966,-8.8536,-8.9067,-8.9447,-8.8802,-8.7625,-8.6865,-8.6144,-8.5537,-8.5271,-8.5309,-8.5271,-8.5081,-8.4929,-8.4929,-8.4967,-8.5005,-8.5119,-8.5423,-8.5461,-8.5612,-8.5878,-8.5878,-8.6258,-8.6713,-8.6751,-8.6979,-8.7587,-8.7283,-8.7359,-8.7602,-8.8506,-8.8882,-8.8482,-8.8139,-8.7968,-8.7403,-8.6375,-8.4867,-8.3153,-8.1717,-8.0657,-7.9922,-7.9886,-7.9815,-7.9815,-7.9815,-7.9815,-7.9815,-7.9815,-7.9815,-7.9815,-7.9815,-7.9815,-7.9815,-7.9815,-7.9815,-7.9815,-7.9815,-7.9323,-7.7114,-7.4061,-7.0345,-6.5774,-6.1399,-5.9667,-5.8822,-5.916,-5.9471,-5.9783,-5.9991,-5.9783,-5.9783,-6.0276,-6.0043,-5.9134,-5.8978,-5.929,-5.9004,-5.8614,-5.8536,-5.8562,-5.8822,-5.9004,-5.8744,-5.8692,-5.8562,-5.8095,-5.7394,-5.6796,-8.2051,-8.007,-8.0032,-8.0032,-7.9994,-7.9766,-7.9804,-8.0032,-8.0032,-8.0032,-8.0032,-8.0032,-8.0032,-8.0032,-8.0032,-8.0032,-8.0032,-8.0032,-8.0032,-8.0525,-8.155,-8.2082,-8.3145,-8.4549,-8.6182,-8.7283,-8.8156,-8.8688,-8.9143,-8.8726,-8.7549,-8.6296,-8.5612,-8.5233,-8.5005,-8.4967,-8.4967,-8.4929,-8.4929,-8.4929,-8.4929,-8.4929,-8.4967,-8.5043,-8.5081,-8.5119,-8.5157,-8.5157,-8.5347,-8.5802,-8.5878,-8.6068,-8.6751,-8.6334,-8.6398,-8.6479,-8.7568,-8.831,-8.7453,-8.711,-8.6938,-8.662,-8.5024,-8.3416,-8.2111,-8.0979,-8.0157,-7.9851,-7.9851,-7.9815,-7.9815,-7.9815,-7.9815,-7.9815,-7.9815,-7.9815,-7.9815,-7.9815,-7.9815,-7.9815,-7.9815,-7.9815,-7.9815,-7.9651,-7.7808,-7.476,-7.1185,-6.7131,-6.3142,-6.0287,-5.8529,-5.8562,-5.8822,-5.8978,-5.929,-5.9575,-5.9316,-5.916,-5.9497,-5.9497,-5.9004,-5.877,-5.8614,-5.8614,-5.8744,-5.8562,-5.8251,-5.8251,-5.851,-5.8251,-5.7913,-5.7472,-5.703,-5.6615,-5.6069,-8.1553,-8.0259,-8.0032,-7.9994,-7.9842,-7.9196,-7.931,-8.0032,-8.0032,-8.0032,-8.0032,-8.0032,-8.0032,-8.0032,-8.0032,-8.0032,-8.0032,-8.0032,-8.0032,-8.0335,-8.0867,-8.1626,-8.2499,-8.3486,-8.5119,-8.6676,-8.7739,-8.8194,-8.8726,-8.8346,-8.7549,-8.6448,-8.5423,-8.5043,-8.4929,-8.4929,-8.4929,-8.4929,-8.4929,-8.4929,-8.4929,-8.4929,-8.4929,-8.4929,-8.4929,-8.4929,-8.4929,-8.4929,-8.5043,-8.5081,-8.5081,-8.5119,-8.5081,-8.5043,-8.6068,-8.7029,-8.7737,-8.7634,-8.6865,-8.6249,-8.6041,-8.5325,-8.3632,-8.2361,-8.117,-8.0457,-7.9922,-7.9815,-7.9815,-7.9815,-7.9815,-7.9815,-7.9815,-7.9815,-7.9815,-7.9815,-7.9815,-7.9815,-7.9815,-7.9815,-7.9815,-7.9815,-7.9815,-7.8467,-7.6949,-7.3728,-7.0345,-6.5939,-6.1536,-5.8669,-5.8225,-5.8407,-5.8459,-5.8588,-5.8718,-5.8978,-5.8848,-5.8796,-5.903,-5.9108,-5.9238,-5.9056,-5.8718,-5.8588,-5.8822,-5.8718,-5.8303,-5.8147,-5.8121,-5.7731,-5.742,-5.6952,-5.6381,-5.5913,-5.555,-8.1553,-7.9994,-7.9462,-7.8893,-7.8475,-7.8703,-7.9234,-7.9918,-8.0032,-8.0032,-8.0032,-8.0032,-8.0032,-8.0032,-8.0032,-8.0032,-8.0032,-8.0032,-8.0032,-8.007,-8.0373,-8.1019,-8.174,-8.2651,-8.4208,-8.5612,-8.6751,-8.7587,-8.7928,-8.7966,-8.7283,-8.6296,-8.5423,-8.5043,-8.4929,-8.4929,-8.4929,-8.4929,-8.4929,-8.4929,-8.4929,-8.4929,-8.4929,-8.4929,-8.4929,-8.4929,-8.4929,-8.4929,-8.4967,-8.4967,-8.4967,-8.4967,-8.4844,-8.4598,-8.4765,-8.5175,-8.5649,-8.5292,-8.5578,-8.5141,-8.4494,-8.3883,-8.2397,-8.1348,-8.0991,-8.0243,-7.9957,-7.9815,-7.9815,-7.9815,-7.9815,-7.9815,-7.9815,-7.9815,-7.9815,-7.9815,-7.9815,-7.9815,-7.9815,-7.9815,-7.9815,-7.9815,-7.9815,-7.8138,-7.5756,-7.2694,-6.9502,-6.4602,-5.9833,-5.8817,-5.8199,-5.8225,-5.8277,-5.8329,-5.8433,-5.8562,-5.8536,-5.8459,-5.8459,-5.8459,-5.8614,-5.8796,-5.864,-5.8484,-5.851,-5.8459,-5.8225,-5.8043,-5.7887,-5.7576,-5.7004,-5.6355,-5.5758,-5.5368,-5.503,-8.1702,-8.0335,-7.9234,-7.8285,-7.7716,-7.8437,-7.9082,-7.9576,-7.988,-8.0032,-8.0032,-8.0032,-8.0032,-8.0032,-8.0032,-8.0032,-8.0032,-8.0032,-8.0032,-8.0032,-8.007,-8.0563,-8.1284,-8.2272,-8.3448,-8.4967,-8.622,-8.7055,-8.7131,-8.7093,-8.6638,-8.5992,-8.5233,-8.4967,-8.4929,-8.4929,-8.4929,-8.4929,-8.4929,-8.4929,-8.4929,-8.4929,-8.4929,-8.4929,-8.4929,-8.4929,-8.4929,-8.4929,-8.4929,-8.4929,-8.4929,-8.4806,-8.4324,-8.4163,-8.4128,-8.4094,-8.4078,-8.3791,-8.4351,-8.3908,-8.313,-8.2203,-8.1348,-8.0991,-8.0635,-8.0064,-7.9922,-7.9815,-7.9815,-7.9815,-7.9815,-7.9815,-7.9815,-7.9815,-7.9815,-7.9815,-7.9815,-7.9815,-7.9815,-7.9815,-7.9815,-7.9815,-7.9815,-7.8796,-7.4228,-7.0681,-6.5257,-6.0526,-5.9165,-5.8495,-5.8147,-5.8147,-5.8147,-5.8147,-5.8173,-5.8277,-5.8303,-5.8303,-5.8225,-5.8147,-5.8147,-5.8277,-5.8251,-5.8303,-5.8225,-5.8147,-5.8147,-5.8095,-5.7809,-5.7238,-5.6485,-5.5784,-5.5342,-5.4979,-5.4883,-8.1968,-8.1057,-7.9462,-7.8361,-7.7905,-7.8475,-7.8855,-7.9158,-7.9728,-8.0032,-8.0032,-8.0032,-8.0032,-8.0032,-8.0032,-8.0032,-8.0032,-8.0032,-8.0032,-8.0032,-8.0032,-8.0487,-8.1171,-8.1968,-8.2955,-8.4701,-8.5764,-8.6334,-8.641,-8.6524,-8.6068,-8.5423,-8.5157,-8.4929,-8.4929,-8.4929,-8.4929,-8.4929,-8.4929,-8.4929,-8.4929,-8.4929,-8.4929,-8.4929,-8.4929,-8.4929,-8.4929,-8.4929,-8.4929,-8.4929,-8.4929,-8.4646,-8.404,-8.368,-8.353,-8.3416,-8.323,-8.3526,-8.4249,-8.3032,-8.205,-8.1134,-8.0884,-8.0563,-8.0064,-7.9851,-7.9979,-7.9815,-7.9815,-7.9815,-7.9815,-7.9815,-7.9815,-7.9815,-7.9815,-7.9815,-7.9815,-7.9815,-7.9815,-7.9815,-7.9815,-7.9815,-7.9815,-7.8267,-7.2861,-6.744,-6.1536,-5.8817,-5.8495,-5.8147,-5.8147,-5.8147,-5.8147,-5.8147,-5.8147,-5.8147,-5.8147,-5.8147,-5.8147,-5.8147,-5.8147,-5.8147,-5.8147,-5.8147,-5.8147,-5.8147,-5.8147,-5.8095,-5.7472,-5.6822,-5.6017,-5.5446,-5.5005,-5.4883,-5.4883,-8.2006,-8.1095,-7.9462,-7.8969,-7.9234,-7.8931,-7.912,-7.9652,-7.9956,-8.0032,-8.0032,-8.0032,-8.0032,-8.0032,-8.0032,-8.0032,-8.0032,-8.0032,-8.0032,-8.0032,-8.0032,-8.0183,-8.0601,-8.1322,-8.2309,-8.3259,-8.4511,-8.5764,-8.6182,-8.6296,-8.6068,-8.5688,-8.5309,-8.5005,-8.4929,-8.4929,-8.4929,-8.4929,-8.4929,-8.4929,-8.4929,-8.4929,-8.4929,-8.4929,-8.4929,-8.4929,-8.4929,-8.4929,-8.4929,-8.4929,-8.4769,-8.4485,-8.3841,-8.3071,-8.2533,-8.2121,-8.1806,-8.1884,-8.1932,-8.1586,-8.1027,-8.0457,-8.0278,-8.0136,-8.005,-7.9815,-7.9815,-7.9815,-7.9815,-7.9815,-7.9815,-7.9815,-7.9815,-7.9815,-7.9815,-7.9815,-7.9815,-7.9815,-7.9815,-7.9815,-7.9815,-7.9815,-7.9124,-7.7114,-7.2192,-6.761,-6.237,-5.9833,-5.8817,-5.8147,-5.8147,-5.8147,-5.8147,-5.8147,-5.8147,-5.8147,-5.8147,-5.8147,-5.8147,-5.8147,-5.8147,-5.8147,-5.8147,-5.8147,-5.8147,-5.8147,-5.7939,-5.755,-5.7004,-5.6381,-5.5887,-5.5342,-5.5117,-5.4883,-5.4883,-8.2461,-8.1626,-8.0297,-7.9842,-7.9994,-7.9462,-7.9538,-7.9994,-8.0032,-8.0032,-8.0032,-8.0032,-8.0032,-8.0032,-8.0032,-8.0032,-8.0032,-8.0032,-8.0032,-8.0032,-8.0032,-8.0032,-8.0335,-8.0905,-8.1664,-8.2651,-8.379,-8.4929,-8.5726,-8.5688,-8.5878,-8.5954,-8.5347,-8.5081,-8.4929,-8.4929,-8.4929,-8.4929,-8.4929,-8.4929,-8.4929,-8.4929,-8.4929,-8.4929,-8.4929,-8.4929,-8.4929,-8.4929,-8.4929,-8.4929,-8.4929,-8.4485,-8.3878,-8.2909,-8.2098,-8.1394,-8.1167,-8.1229,-8.1134,-8.0742,-8.0385,-8.005,-7.9815,-8.0014,-8.0014,-7.9815,-7.9815,-7.9815,-7.9815,-7.9815,-7.9815,-7.9815,-7.9815,-7.9815,-7.9815,-7.9815,-7.9815,-7.9815,-7.9815,-7.9815,-7.9815,-7.9124,-7.7444,-7.5591,-7.1689,-6.761,-6.4059,-6.0699,-5.9165,-5.8147,-5.8147,-5.8147,-5.8147,-5.8147,-5.8147,-5.8147,-5.8147,-5.8147,-5.8147,-5.8147,-5.8147,-5.8147,-5.8147,-5.8147,-5.8147,-5.7965,-5.7627,-5.7108,-5.6563,-5.6017,-5.5576,-5.5186,-5.5143,-5.4909,-5.5065,-8.3259,-8.2499,-8.1664,-8.0867,-8.0145,-8.007,-7.9994,-8.0032,-8.0032,-8.0032,-8.0032,-8.0032,-8.0032,-8.0032,-8.0032,-8.0032,-8.0032,-8.0032,-8.0032,-8.0032,-8.0032,-8.0032,-8.0221,-8.0715,-8.1474,-8.2309,-8.3183,-8.4132,-8.4815,-8.5081,-8.5423,-8.5992,-8.5271,-8.5043,-8.4929,-8.4929,-8.4929,-8.4929,-8.4929,-8.4929,-8.4929,-8.4929,-8.4929,-8.4929,-8.4929,-8.4929,-8.4929,-8.4929,-8.4929,-8.4929,-8.4929,-8.4646,-8.3556,-8.2747,-8.1935,-8.1031,-8.0786,-8.0836,-8.067,-8.0314,-8.005,-8.0014,-7.9815,-7.9815,-7.9815,-7.9815,-7.9815,-7.9815,-7.9815,-7.9815,-7.9815,-7.9815,-7.9815,-7.9815,-7.9815,-7.9815,-7.9815,-7.9815,-7.9815,-7.9815,-7.896,-7.7444,-7.5756,-7.2359,-6.8626,-6.4059,-6.0352,-5.9659,-5.8321,-5.8147,-5.8147,-5.8147,-5.8147,-5.8147,-5.8147,-5.8147,-5.8147,-5.8147,-5.8147,-5.8147,-5.8147,-5.8147,-5.8147,-5.8095,-5.7913,-5.7705,-5.742,-5.6693,-5.6043,-5.5576,-5.5264,-5.5005,-5.4935,-5.4883,-5.4953,-8.3638,-8.3335,-8.2537,-8.1702,-8.0943,-8.0297,-8.0032,-8.0032,-8.0032,-8.0032,-8.0032,-8.0032,-8.0032,-8.0032,-8.0032,-8.0032,-8.0032,-8.0032,-8.0032,-8.0032,-8.0032,-8.0032,-8.0107,-8.0221,-8.0829,-8.1588,-8.2461,-8.3486,-8.4246,-8.4511,-8.4549,-8.5233,-8.5081,-8.4967,-8.4929,-8.4929,-8.4929,-8.4929,-8.4929,-8.4929,-8.4929,-8.4929,-8.4929,-8.4929,-8.4929,-8.4929,-8.4929,-8.4929,-8.4929,-8.4929,-8.4929,-8.4324,-8.3232,-8.2585,-8.1773,-8.0704,-8.0321,-8.0407,-8.0136,-8.0029,-7.9886,-7.9815,-7.9815,-7.9815,-7.9815,-7.9815,-7.9815,-7.9815,-7.9815,-7.9815,-7.9815,-7.9815,-7.9815,-7.9815,-7.9815,-7.9815,-7.9815,-7.9815,-7.9815,-7.896,-7.7279,-7.579,-7.2359,-6.9133,-6.5086,-6.0699,-5.8991,-5.8321,-5.8147,-5.8147,-5.8147,-5.8147,-5.8147,-5.8147,-5.8147,-5.8147,-5.8147,-5.8147,-5.8147,-5.8147,-5.8121,-5.8121,-5.8017,-5.7861,-5.7705,-5.742,-5.6978,-5.6225,-5.5498,-5.5238,-5.4979,-5.4935,-5.4883,-5.4883,-5.5065,-8.4056,-8.3638,-8.2841,-8.2006,-8.1171,-8.0373,-8.0032,-8.0032,-8.0032,-8.0032,-8.0032,-8.0032,-8.0032,-8.0032,-8.0032,-8.0032,-8.0032,-8.0032,-8.0032,-8.0032,-8.0032,-8.0032,-8.0032,-8.007,-8.0449,-8.1246,-8.1854,-8.2841,-8.3486,-8.3752,-8.417,-8.4891,-8.4929,-8.4929,-8.4929,-8.4929,-8.4929,-8.4929,-8.4929,-8.4929,-8.4929,-8.4929,-8.4929,-8.4929,-8.4929,-8.4929,-8.4929,-8.4929,-8.4929,-8.4929,-8.4929,-8.4324,-8.3394,-8.2585,-8.1935,-8.0433,-8.0106,-7.9979,-7.9815,-8.0014,-7.9815,-7.9815,-7.9815,-7.9815,-7.9815,-7.9815,-7.9815,-7.9815,-7.9815,-7.9815,-7.9815,-7.9815,-7.9815,-7.9815,-7.9815,-7.9815,-7.9815,-7.9815,-7.896,-7.7279,-7.5624,-7.2024,-6.8626,-6.5086,-6.119,-5.8817,-5.8495,-5.8147,-5.8147,-5.8147,-5.8147,-5.8147,-5.8147,-5.8147,-5.8147,-5.8147,-5.8147,-5.8147,-5.8147,-5.8121,-5.8095,-5.7939,-5.7731,-5.7576,-5.7186,-5.6822,-5.6511,-5.5887,-5.5212,-5.4927,-5.4883,-5.4883,-5.4883,-5.4909,-5.5186,-8.4511,-8.3828,-8.2993,-8.2158,-8.136,-8.0563,-8.0145,-8.007,-8.0032,-8.0032,-8.0032,-8.0032,-8.0032,-8.0032,-8.0032,-8.0032,-8.0032,-8.0032,-8.0032,-8.0032,-8.0032,-8.0032,-8.0032,-8.0032,-8.0449,-8.0905,-8.1208,-8.1702,-8.2385,-8.3221,-8.3942,-8.4625,-8.4777,-8.4929,-8.4929,-8.4929,-8.4929,-8.4929,-8.4929,-8.4929,-8.4929,-8.4929,-8.4929,-8.4967,-8.4806,-8.4646,-8.4646,-8.4485,-8.4324,-8.4485,-8.4485,-8.4163,-8.3518,-8.2747,-8.1899,-8.1086,-8.0433,-7.9815,-7.9815,-7.9815,-7.9815,-7.9815,-7.9815,-7.9815,-7.9815,-7.9815,-7.9815,-7.9815,-7.9815,-7.9815,-7.9815,-7.9815,-7.9815,-7.9815,-7.9815,-7.9815,-7.9651,-7.9124,-7.7279,-7.5591,-7.1857,-6.8288,-6.4915,-6.119,-5.8147,-5.8147,-5.8147,-5.8147,-5.8147,-5.8147,-5.8147,-5.8147,-5.8147,-5.8147,-5.8147,-5.8147,-5.8147,-5.8147,-5.8121,-5.8095,-5.7913,-5.7653,-5.7472,-5.7004,-5.6433,-5.6017,-5.5784,-5.542,-5.5117,-5.4883,-5.4883,-5.4883,-5.4909,-5.516,-5.5602,-8.4853,-8.4625,-8.3828,-8.2993,-8.2158,-8.136,-8.0639,-8.0107,-8.0032,-8.0032,-8.0032,-8.0032,-8.0032,-8.0032,-8.0032,-8.0032,-8.0032,-8.0032,-8.0032,-8.0032,-8.0032,-8.0032,-8.0032,-8.007,-8.0145,-8.0525,-8.0829,-8.1322,-8.1702,-8.2347,-8.3145,-8.398,-8.4701,-8.4929,-8.4929,-8.4929,-8.4929,-8.4929,-8.4929,-8.4929,-8.4929,-8.4929,-8.4929,-8.4929,-8.4324,-8.404,-8.3878,-8.3518,-8.3232,-8.3071,-8.2909,-8.2548,-8.17,-8.1375,-8.0923,-8.0306,-7.9979,-7.9979,-7.9815,-7.9815,-7.9815,-7.9815,-7.9815,-7.9815,-7.9815,-7.9815,-7.9815,-7.9815,-7.9815,-7.9815,-7.9815,-7.9815,-7.9815,-7.9651,-7.9651,-7.9651,-7.8631,-7.6949,-7.4927,-7.2024,-6.8288,-6.4744,-6.1536,-5.8147,-5.8147,-5.8147,-5.8147,-5.8147,-5.8147,-5.8147,-5.8147,-5.8147,-5.8147,-5.8147,-5.8147,-5.8147,-5.8147,-5.8121,-5.8069,-5.7913,-5.7653,-5.729,-5.69,-5.6485,-5.5913,-5.542,-5.5082,-5.4935,-5.4883,-5.4883,-5.4883,-5.5013,-5.516,-5.555,-5.5991,-8.4929,-8.4853,-8.4094,-8.3486,-8.2917,-8.1778,-8.0981,-8.0601,-8.0183,-8.0032,-8.0032,-8.0032,-8.0032,-8.0032,-8.0032,-8.0032,-8.0032,-8.0032,-8.0032,-8.0032,-8.0032,-8.0032,-8.0032,-8.0032,-8.0032,-8.0145,-8.0449,-8.0829,-8.1284,-8.174,-8.2575,-8.3524,-8.4094,-8.4587,-8.4853,-8.4967,-8.4929,-8.4929,-8.4929,-8.4929,-8.4929,-8.4929,-8.4646,-8.4485,-8.4002,-8.3556,-8.3232,-8.2585,-8.2423,-8.2423,-8.2423,-8.1899,-8.1212,-8.0723,-8.027,-7.9979,-7.9979,-7.9815,-7.9815,-7.9815,-7.9815,-7.9815,-7.9815,-7.9815,-7.9815,-7.9815,-7.9815,-7.9815,-7.9815,-7.9815,-7.9815,-7.9815,-7.8995,-7.7808,-7.7114,-7.6253,-7.4727,-7.2861,-7.0849,-6.8318,-6.4744,-6.1363,-5.8147,-5.8147,-5.8147,-5.8147,-5.8147,-5.8147,-5.8147,-5.8147,-5.8147,-5.8147,-5.8147,-5.8147,-5.8147,-5.8147,-5.8147,-5.8069,-5.7939,-5.7653,-5.7316,-5.6667,-5.6225,-5.5913,-5.5472,-5.4979,-5.4883,-5.4883,-5.4883,-5.4883,-5.4987,-5.5005,-5.5446,-5.5939,-5.6433,-8.4929,-8.4891,-8.4246,-8.3866,-8.3524,-8.2309,-8.155,-8.1171,-8.0563,-8.0183,-8.007,-8.0032,-8.0032,-8.0032,-8.0032,-8.0032,-8.0032,-8.0032,-8.0032,-8.0032,-8.0032,-8.0032,-8.0032,-8.0032,-8.0032,-8.0032,-8.0107,-8.0449,-8.0867,-8.1246,-8.1968,-8.3107,-8.379,-8.417,-8.4663,-8.5081,-8.5233,-8.5005,-8.4929,-8.4929,-8.4929,-8.4806,-8.4324,-8.3556,-8.3195,-8.271,-8.226,-8.2098,-8.1935,-8.1935,-8.1935,-8.1574,-8.0923,-8.027,-7.9979,-7.9815,-7.9815,-7.9815,-7.9815,-7.9815,-7.9815,-7.9815,-7.9815,-7.9815,-7.9815,-7.9815,-7.9815,-7.9815,-7.9815,-7.9815,-7.9815,-7.8796,-7.7444,-7.5459,-7.4095,-7.2559,-7.0008,-6.781,-6.5769,-6.3745,-6.119,-5.8147,-5.8147,-5.8147,-5.8147,-5.8147,-5.8147,-5.8147,-5.8147,-5.8147,-5.8147,-5.8147,-5.8147,-5.8147,-5.8121,-5.8121,-5.7939,-5.7809,-5.7498,-5.7186,-5.6641,-5.6017,-5.555,-5.529,-5.5065,-5.4883,-5.4883,-5.4883,-5.4883,-5.4909,-5.5091,-5.5082,-5.5732,-5.6381,-5.6848,-8.4929,-8.4929,-8.4815,-8.436,-8.3752,-8.3448,-8.2537,-8.1436,-8.1133,-8.0639,-8.0145,-8.0032,-8.0032,-8.0032,-8.0032,-8.0032,-8.0032,-8.0032,-8.0032,-8.0032,-8.0032,-8.0032,-8.0032,-8.0032,-8.0032,-8.0032,-8.0032,-8.007,-8.0449,-8.0905,-8.1436,-8.2006,-8.3562,-8.4398,-8.4436,-8.5195,-8.5764,-8.5271,-8.5157,-8.492,-8.4882,-8.4201,-8.3556,-8.2747,-8.2224,-8.1574,-8.1248,-8.076,-8.0306,-8.0306,-8.0306,-8.0142,-8.0142,-7.9979,-7.9815,-7.9815,-7.9815,-7.9815,-7.9815,-7.9815,-7.9815,-7.9815,-7.9815,-7.9815,-7.9815,-7.9815,-7.9815,-7.9815,-7.9815,-7.9815,-7.9651,-7.7609,-7.5425,-7.3728,-7.1353,-6.9839,-6.7979,-6.323,-6.1045,-5.9165,-5.8643,-5.8147,-5.8147,-5.8147,-5.8147,-5.8147,-5.8147,-5.8147,-5.8147,-5.8147,-5.8147,-5.8147,-5.8147,-5.8147,-5.8069,-5.8017,-5.755,-5.729,-5.6926,-5.6511,-5.5965,-5.5576,-5.5316,-5.5039,-5.4883,-5.4883,-5.4883,-5.4883,-5.4909,-5.4987,-5.503,-5.5446,-5.6069,-5.677,-5.7316,-8.4929,-8.4929,-8.4929,-8.4739,-8.436,-8.3904,-8.3297,-8.2537,-8.1702,-8.1019,-8.0639,-8.0183,-8.0032,-8.0032,-8.0032,-8.0032,-8.0032,-8.0032,-8.0032,-8.0032,-8.0032,-8.0032,-8.0032,-8.0032,-8.0032,-8.0032,-8.0032,-8.0032,-8.0107,-8.0449,-8.1057,-8.2006,-8.2993,-8.398,-8.5195,-8.5878,-8.622,-8.6144,-8.5429,-8.4965,-8.469,-8.3817,-8.2747,-8.2423,-8.1574,-8.076,-8.0596,-8.0106,-7.9979,-7.9979,-7.9979,-7.9979,-7.9815,-7.9815,-7.9815,-7.9815,-7.9815,-7.9815,-7.9815,-7.9815,-7.9815,-7.9815,-7.9815,-7.9815,-7.9815,-7.9815,-7.9815,-7.9815,-7.9815,-7.896,-7.7114,-7.4927,-7.2056,-6.9839,-6.6961,-6.5257,-6.323,-6.0352,-5.8147,-5.8147,-5.8147,-5.8147,-5.8147,-5.8147,-5.8147,-5.8147,-5.8147,-5.8147,-5.8147,-5.8147,-5.8147,-5.8147,-5.8147,-5.8121,-5.8017,-5.7783,-5.7368,-5.6926,-5.6485,-5.5862,-5.5524,-5.529,-5.5082,-5.5065,-5.4883,-5.4883,-5.4883,-5.4883,-5.4883,-5.5065,-5.5212,-5.5784,-5.6355,-5.6978,-5.7576,-8.4929,-8.4929,-8.4929,-8.4929,-8.4853,-8.4284,-8.3904,-8.36,-8.2347,-8.1664,-8.1171,-8.0601,-8.0221,-8.0032,-8.0032,-8.0032,-8.0032,-8.0032,-8.0032,-8.0032,-8.0032,-8.0032,-8.0032,-8.0032,-8.0032,-8.0032,-8.0032,-8.0032,-8.0032,-8.0183,-8.0791,-8.2082,-8.2765,-8.3752,-8.5537,-8.6068,-8.6865,-8.6853,-8.5743,-8.504,-8.4689,-8.3338,-8.2318,-8.2098,-8.1466,-8.0649,-8.005,-7.9815,-7.9815,-7.9815,-7.9815,-7.9815,-7.9815,-7.9815,-7.9815,-7.9815,-7.9815,-7.9815,-7.9815,-7.9815,-7.9815,-7.9815,-7.9815,-7.9815,-7.9815,-7.9815,-7.9815,-7.9815,-7.9815,-7.8796,-7.6618,-7.4594,-7.0345,-6.5769,-6.323,-6.1363,-5.8991,-5.8147,-5.8147,-5.8147,-5.8147,-5.8147,-5.8147,-5.8147,-5.8147,-5.8147,-5.8147,-5.8147,-5.8147,-5.8147,-5.8147,-5.8147,-5.8147,-5.8147,-5.8069,-5.7939,-5.7368,-5.6796,-5.5991,-5.5264,-5.5212,-5.5195,-5.5091,-5.4961,-5.4883,-5.4883,-5.4883,-5.4883,-5.4883,-5.5005,-5.529,-5.5862,-5.6459,-5.716,-5.7731,-8.4929,-8.4929,-8.4929,-8.4929,-8.4929,-8.4853,-8.4398,-8.3828,-8.3448,-8.2613,-8.155,-8.1208,-8.0677,-8.0032,-8.007,-8.0032,-8.0032,-8.0032,-8.0032,-8.0032,-8.0032,-8.0032,-8.0032,-8.0032,-8.0032,-8.0032,-8.0032,-8.0032,-8.0032,-8.0032,-8.0563,-8.1626,-8.2917,-8.3752,-8.4777,-8.6334,-8.6903,-8.6423,-8.5377,-8.4772,-8.4645,-8.3198,-8.1938,-8.1375,-8.1044,-8.0479,-8.0121,-7.9815,-7.9815,-7.9815,-7.9815,-8.0014,-7.9886,-8.0014,-7.9851,-7.9886,-7.9815,-7.9708,-7.9943,-7.9637,-7.9708,-7.98,-7.9836,-7.9815,-7.98,-7.9729,-7.9693,-7.953,-7.9979,-7.9473,-7.7998,-7.3162,-6.8595,-6.4402,-6.0472,-5.8991,-5.8147,-5.8147,-5.8147,-5.8147,-5.8173,-5.8147,-5.8147,-5.8147,-5.8199,-5.8614,-5.8407,-5.8407,-5.8355,-5.8225,-5.8147,-5.8147,-5.8147,-5.8147,-5.8095,-5.8017,-5.7342,-5.6719,-5.5887,-5.5134,-5.5082,-5.5065,-5.4935,-5.4883,-5.4883,-5.4883,-5.4883,-5.4883,-5.4883,-5.4979,-5.5576,-5.6069,-5.6511,-5.7186,-5.7809,-8.4929,-8.4929,-8.4929,-8.4929,-8.4929,-8.4929,-8.4777,-8.4398,-8.398,-8.3297,-8.2613,-8.174,-8.1057,-8.0715,-8.0259,-8.0032,-8.0032,-8.0032,-8.0032,-8.0032,-8.0032,-8.0032,-8.0032,-8.0032,-8.0032,-8.0032,-8.0032,-8.0032,-8.0032,-8.0032,-8.0791,-8.1892,-8.2651,-8.3828,-8.5043,-8.5882,-8.6156,-8.6517,-8.5056,-8.4391,-8.4685,-8.2658,-8.1511,-8.1131,-8.0608,-8.0207,-7.9886,-7.9815,-7.9815,-7.9815,-8.0014,-8.0193,-8.0421,-8.01,-8.0029,-8.0457,-7.9601,-7.9173,-7.9066,-7.8836,-7.8621,-7.8621,-7.8585,-7.8585,-7.8621,-7.8585,-7.8585,-7.8496,-7.8585,-7.8836,-7.8148,-7.4619,-6.9401,-6.4229,-6.0056,-5.7982,-5.8121,-5.8121,-5.8147,-5.8225,-5.8433,-5.8666,-5.864,-5.8978,-5.9108,-5.9056,-5.877,-5.8614,-5.8536,-5.8303,-5.8147,-5.8147,-5.8147,-5.8147,-5.8121,-5.7861,-5.7264,-5.6978,-5.6225,-5.529,-5.5056,-5.4935,-5.4883,-5.4883,-5.4883,-5.4883,-5.4883,-5.4883,-5.4883,-5.5005,-5.5862,-5.6381,-5.6693,-5.7212,-5.7783,-8.4929,-8.4929,-8.4929,-8.4929,-8.4929,-8.4929,-8.4929,-8.4853,-8.4284,-8.3942,-8.3486,-8.2423,-8.1854,-8.1474,-8.0753,-8.0335,-8.0297,-8.0145,-8.0032,-8.0032,-8.0032,-8.0032,-8.0032,-8.0032,-8.0032,-8.0032,-8.0032,-8.0032,-8.0032,-8.0032,-8.0867,-8.2385,-8.2537,-8.3638,-8.565,-8.5618,-8.5991,-8.6688,-8.4908,-8.4241,-8.4534,-8.3006,-8.1799,-8.1144,-8.1059,-8.0643,-8.0014,-7.9815,-7.9815,-7.9815,-7.9815,-8.0264,-8.0492,-8.0136,-7.9922,-8.0064,-7.928,-7.8603,-7.8318,-7.7978,-7.7657,-7.7585,-7.7764,-7.7585,-7.7585,-7.7621,-7.7109,-7.6118,-7.6153,-7.5918,-7.5043,-7.2015,-6.8216,-6.3598,-6.0627,-5.8555,-5.7894,-5.7835,-5.8017,-5.8173,-5.8666,-5.9004,-5.9186,-5.9393,-5.9471,-5.9393,-5.9056,-5.8666,-5.851,-5.8329,-5.8147,-5.8147,-5.8147,-5.8147,-5.8043,-5.7705,-5.742,-5.716,-5.6459,-5.5524,-5.5134,-5.5013,-5.4909,-5.4883,-5.4883,-5.4883,-5.4883,-5.4883,-5.4883,-5.4883,-5.5446,-5.6017,-5.6485,-5.7004,-5.755,-8.4929,-8.4929,-8.4929,-8.4929,-8.4929,-8.4929,-8.4929,-8.4929,-8.4853,-8.4436,-8.3866,-8.3373,-8.2993,-8.2309,-8.1322,-8.0943,-8.1019,-8.0373,-8.007,-8.0107,-8.0032,-8.0032,-8.0032,-8.0032,-8.0032,-8.0032,-8.0032,-8.0032,-8.0032,-8.0032,-8.0867,-8.2309,-8.2499,-8.3373,-8.4929,-8.5878,-8.6007,-8.6146,-8.5302,-8.4772,-8.4794,-8.4429,-8.3343,-8.1375,-8.2188,-8.1893,-8.0321,-7.98,-7.9836,-7.9943,-7.9601,-7.98,-8.0014,-7.9851,-7.9387,-7.8959,-7.8781,-7.7944,-7.7676,-7.6543,-7.6472,-7.6508,-7.6508,-7.7585,-7.6384,-7.5802,-7.4813,-7.2734,-7.2447,-7.1419,-6.8561,-6.5837,-6.3358,-6.1948,-6.0612,-5.913,-5.7071,-5.7056,-5.7472,-5.7991,-5.864,-5.9134,-5.9419,-5.9186,-5.9108,-5.8978,-5.864,-5.8381,-5.8277,-5.8303,-5.8173,-5.8147,-5.8147,-5.8147,-5.8147,-5.7835,-5.7601,-5.7238,-5.6563,-5.5862,-5.542,-5.5082,-5.5039,-5.4935,-5.4883,-5.4883,-5.4883,-5.4883,-5.4883,-5.4961,-5.5082,-5.5446,-5.5965,-5.6537,-5.7056,-8.4929,-8.4929,-8.4929,-8.4929,-8.4929,-8.4929,-8.4929,-8.4929,-8.4929,-8.4815,-8.4322,-8.3448,-8.2765,-8.2272,-8.1057,-8.0525,-8.0449,-8.0183,-8.0297,-8.0677,-8.0335,-8.0032,-8.0032,-8.0032,-8.0032,-8.0032,-8.0032,-8.0032,-8.0032,-8.007,-8.0867,-8.2196,-8.2461,-8.3297,-8.4853,-8.4825,-8.499,-8.5241,-8.4586,-8.4316,-8.4686,-8.4318,-8.3583,-8.2741,-8.2211,-8.1501,-8.0596,-7.914,-7.8478,-7.8478,-7.8478,-7.8764,-7.8995,-7.88,-7.846,-7.7925,-7.5958,-7.4645,-7.5942,-7.2502,-6.9986,-7.1838,-7.0799,-6.9881,-6.9689,-6.9689,-6.9371,-6.7936,-6.7648,-6.7293,-6.654,-6.4976,-6.2183,-5.8152,-5.7789,-5.7199,-5.6468,-5.6433,-5.6874,-5.716,-5.7653,-5.7965,-5.8303,-5.8277,-5.851,-5.8459,-5.8277,-5.8147,-5.8147,-5.8121,-5.8147,-5.8147,-5.8017,-5.7965,-5.8069,-5.7939,-5.7731,-5.7134,-5.6511,-5.5965,-5.542,-5.503,-5.4901,-5.4961,-5.4883,-5.4883,-5.4883,-5.4883,-5.4883,-5.4979,-5.516,-5.5394,-5.5628,-5.6147,-5.6563,-8.4929,-8.4929,-8.4929,-8.4929,-8.4929,-8.4929,-8.4929,-8.4929,-8.4929,-8.4929,-8.4739,-8.3752,-8.3221,-8.2917,-8.1854,-8.1208,-8.1171,-8.0943,-8.1095,-8.1474,-8.1095,-8.0715,-8.0487,-8.0411,-8.0297,-8.007,-8.0032,-8.0032,-8.0032,-8.0032,-8.0715,-8.1892,-8.2347,-8.3221,-8.4474,-8.4372,-8.4426,-8.4753,-8.4115,-8.3939,-8.4348,-8.3939,-8.3168,-8.2459,-8.1679,-8.0866,-8.0611,-7.8636,-7.7621,-7.7621,-7.7585,-7.7835,-7.8228,-7.7907,-7.78,-7.7552,-7.4209,-7.3428,-7.4817,-7.0993,-6.9445,-7.0525,-6.972,-6.8241,-6.8084,-6.7643,-6.641,-6.5108,-6.3963,-6.2833,-6.2736,-6.253,-6.0111,-5.5401,-5.5082,-5.5482,-5.5368,-5.5654,-5.6043,-5.6381,-5.6952,-5.7368,-5.7601,-5.7653,-5.7913,-5.7887,-5.7679,-5.755,-5.7576,-5.7498,-5.7627,-5.7627,-5.7627,-5.7472,-5.7342,-5.7186,-5.6926,-5.6407,-5.6121,-5.5758,-5.5212,-5.5013,-5.5039,-5.5013,-5.4909,-5.4883,-5.4883,-5.4883,-5.4883,-5.5013,-5.5005,-5.5186,-5.5394,-5.5732,-5.6121,-8.4929,-8.4929,-8.4929,-8.4929,-8.4929,-8.4929,-8.4929,-8.4929,-8.4929,-8.4929,-8.4929,-8.4815,-8.4511,-8.4549,-8.3524,-8.3524,-8.3335,-8.2651,-8.2385,-8.2423,-8.2347,-8.1892,-8.1284,-8.1171,-8.0753,-8.0183,-8.007,-8.0032,-8.0032,-8.007,-8.0487,-8.1322,-8.2044,-8.2803,-8.3714,-8.436,-8.4693,-8.4579,-8.4049,-8.3708,-8.379,-8.3708,-8.2576,-8.0677,-8.0692,-8.0497,-7.9799,-7.8306,-7.7371,-7.7442,-7.7442,-7.755,-7.7478,-7.7442,-7.7034,-7.6464,-7.5745,-7.532,-7.4788,-7.3459,-7.1547,-7.2564,-7.3684,-7.1596,-7.047,-6.9184,-6.6789,-6.3963,-6.143,-5.8904,-5.6355,-5.5918,-5.5564,-5.4883,-5.4909,-5.4987,-5.4935,-5.4935,-5.5134,-5.6121,-5.6667,-5.7446,-5.7783,-5.742,-5.7056,-5.7004,-5.6796,-5.6589,-5.6615,-5.6693,-5.6393,-5.6563,-5.6744,-5.69,-5.6693,-5.6433,-5.6095,-5.5836,-5.568,-5.5498,-5.5143,-5.4935,-5.4987,-5.4987,-5.4883,-5.4883,-5.4883,-5.4883,-5.4883,-5.4883,-5.4883,-5.4849,-5.5186,-5.5524,-5.5862,-8.4929,-8.4929,-8.4929,-8.4929,-8.4929,-8.4929,-8.4929,-8.4929,-8.4929,-8.4929,-8.4815,-8.436,-8.4132,-8.398,-8.3259,-8.3448,-8.4398,-8.3714,-8.3335,-8.3259,-8.2727,-8.2347,-8.2006,-8.1512,-8.1095,-8.0829,-8.0297,-8.0032,-8.0032,-8.0032,-8.0449,-8.1208,-8.1474,-8.2044,-8.2765,-8.3145,-8.3259,-8.3259,-8.3031,-8.2879,-8.2879,-8.2879,-8.2414,-8.145,-7.9768,-7.8439,-7.7564,-7.648,-7.5894,-7.5858,-7.5858,-7.5858,-7.5858,-7.5858,-7.5751,-7.4846,-7.0871,-6.8921,-7.0525,-6.4771,-6.2078,-6.441,-6.2844,-6.1401,-6.124,-6.0274,-5.9334,-5.839,-5.6954,-5.6139,-5.5021,-5.4883,-5.4883,-5.4883,-5.4883,-5.4883,-5.4883,-5.4883,-5.5065,-5.529,-5.555,-5.5654,-5.5732,-5.5654,-5.5628,-5.555,-5.5784,-5.5862,-5.5939,-5.6173,-5.629,-5.629,-5.6381,-5.6355,-5.6277,-5.5758,-5.5264,-5.5212,-5.5108,-5.5005,-5.4909,-5.4883,-5.4883,-5.4883,-5.4883,-5.4883,-5.4883,-5.4883,-5.4883,-5.4883,-5.4883,-5.4961,-5.5134,-5.542,-5.5706,-8.4929,-8.4929,-8.4929,-8.4929,-8.4929,-8.4929,-8.4929,-8.4929,-8.4929,-8.4929,-8.4853,-8.4436,-8.417,-8.417,-8.36,-8.3942,-8.4853,-8.4398,-8.417,-8.4094,-8.3638,-8.3221,-8.2917,-8.2385,-8.193,-8.1284,-8.0715,-8.0335,-8.007,-8.0032,-8.0449,-8.1133,-8.1246,-8.1664,-8.2309,-8.2461,-8.2461,-8.2423,-8.2158,-8.2044,-8.2044,-8.174,-8.1588,-8.1396,-7.9152,-7.7563,-7.6799,-7.6032,-7.5417,-7.5109,-7.5109,-7.4492,-7.3339,-7.3184,-7.2719,-7.1094,-6.7036,-6.5558,-6.701,-6.163,-5.9099,-6.1211,-5.9657,-5.9172,-5.839,-5.7415,-5.6628,-5.6465,-5.5839,-5.4883,-5.4883,-5.4883,-5.4883,-5.4883,-5.4883,-5.4883,-5.4883,-5.4883,-5.4883,-5.4883,-5.4883,-5.4883,-5.5013,-5.4883,-5.4883,-5.4909,-5.503,-5.5238,-5.5342,-5.555,-5.5758,-5.581,-5.581,-5.5836,-5.581,-5.5108,-5.4883,-5.4883,-5.4883,-5.4883,-5.4883,-5.4883,-5.4909,-5.4909,-5.503,-5.5056,-5.4823,-5.4987,-5.5091,-5.5039,-5.4883,-5.5013,-5.5212,-5.542,-5.5628,-8.4929,-8.4929,-8.4929,-8.4929,-8.4929,-8.4929,-8.4929,-8.4929,-8.4929,-8.4929,-8.4929,-8.4891,-8.4929,-8.4891,-8.4815,-8.4929,-8.4929,-8.4891,-8.4891,-8.4853,-8.4853,-8.4511,-8.3828,-8.3714,-8.2917,-8.1664,-8.1398,-8.0905,-8.0183,-8.007,-8.0449,-8.1208,-8.1246,-8.1664,-8.2347,-8.2461,-8.2423,-8.2272,-8.1664,-8.1246,-8.1133,-8.0525,-8.0259,-8.0297,-7.9312,-7.8474,-7.7747,-7.6791,-7.5833,-7.5026,-7.4669,-7.3133,-7.0314,-7.019,-6.8935,-6.5713,-6.4728,-6.4569,-6.46,-6.3773,-6.3453,-6.3963,-6.2844,-6.3963,-6.2364,-6.0141,-5.8742,-5.9362,-5.6329,-5.4883,-5.4883,-5.4883,-5.4883,-5.4883,-5.4883,-5.4883,-5.4883,-5.4883,-5.4883,-5.4883,-5.4883,-5.4883,-5.4883,-5.4883,-5.4883,-5.4883,-5.4883,-5.4935,-5.4961,-5.4935,-5.5013,-5.5013,-5.4987,-5.4909,-5.4909,-5.4883,-5.4883,-5.4883,-5.4883,-5.4883,-5.4883,-5.4883,-5.4935,-5.4875,-5.5212,-5.5264,-5.503,-5.5005,-5.5134,-5.5056,-5.5065,-5.4987,-5.5134,-5.5368,-5.5472,-8.4929,-8.4929,-8.4929,-8.4929,-8.4929,-8.4929,-8.4929,-8.4929,-8.4929,-8.4929,-8.4929,-8.4929,-8.4929,-8.4929,-8.4929,-8.4929,-8.4929,-8.4929,-8.4929,-8.4929,-8.4929,-8.4853,-8.4549,-8.4018,-8.3486,-8.3031,-8.2423,-8.174,-8.0943,-8.0373,-8.0449,-8.1133,-8.1246,-8.1664,-8.2385,-8.2461,-8.2196,-8.1626,-8.1398,-8.0981,-8.0525,-8.0715,-8.0905,-8.0905,-8.0139,-7.9941,-8.0073,-7.6907,-7.4891,-7.4245,-7.2003,-6.989,-6.7613,-7.0093,-6.9618,-6.5298,-6.2684,-6.1269,-6.1269,-5.9038,-5.7578,-5.7578,-5.7578,-5.7578,-5.7443,-5.6791,-5.6165,-5.6139,-5.5348,-5.4883,-5.4883,-5.4883,-5.4883,-5.4883,-5.4883,-5.4883,-5.4883,-5.4883,-5.4883,-5.4883,-5.4883,-5.4883,-5.4883,-5.4883,-5.4883,-5.4883,-5.4883,-5.4883,-5.4883,-5.4883,-5.4883,-5.4883,-5.4883,-5.4883,-5.4883,-5.4883,-5.4883,-5.4883,-5.4883,-5.4883,-5.4883,-5.4883,-5.4909,-5.516,-5.542,-5.555,-5.5602,-5.5472,-5.5472,-5.5316,-5.503,-5.4987,-5.5108,-5.5005,-5.5082,-8.4132,-8.4436,-8.4436,-8.4663,-8.4929,-8.4929,-8.4929,-8.4929,-8.4929,-8.4929,-8.4929,-8.4929,-8.4929,-8.4929,-8.4929,-8.4929,-8.4929,-8.4929,-8.4929,-8.4929,-8.4929,-8.4929,-8.4929,-8.4436,-8.4018,-8.3676,-8.3259,-8.2537,-8.174,-8.0943,-8.0943,-8.1664,-8.1398,-8.1854,-8.2879,-8.2651,-8.2082,-8.1284,-8.1588,-8.1512,-8.1133,-8.1512,-8.174,-8.1586,-8.1276,-8.1074,-8.1018,-7.8489,-7.6485,-7.5659,-7.2504,-6.9309,-6.6441,-6.7075,-6.5671,-6.1137,-5.8876,-5.7768,-5.7768,-5.6002,-5.4883,-5.4883,-5.4883,-5.4883,-5.4883,-5.4883,-5.4883,-5.4883,-5.4883,-5.4883,-5.4883,-5.4883,-5.4883,-5.4883,-5.4883,-5.4883,-5.4883,-5.4883,-5.4883,-5.4883,-5.4883,-5.4883,-5.4883,-5.4883,-5.4883,-5.4883,-5.4883,-5.4883,-5.4883,-5.4883,-5.4883,-5.4883,-5.4883,-5.4883,-5.4883,-5.4883,-5.4883,-5.4883,-5.4883,-5.4883,-5.4883,-5.4883,-5.4901,-5.5498,-5.5576,-5.5758,-5.6121,-5.5784,-5.5498,-5.516,-5.4875,-5.4961,-5.516,-5.5117,-5.4546,-8.2955,-8.3562,-8.3638,-8.4056,-8.4625,-8.4663,-8.4701,-8.4815,-8.4815,-8.4815,-8.4625,-8.4701,-8.4663,-8.4739,-8.4777,-8.4815,-8.4815,-8.4929,-8.4929,-8.4929,-8.4929,-8.4929,-8.4929,-8.4929,-8.4549,-8.3942,-8.3866,-8.341,-8.2575,-8.1854,-8.1816,-8.2309,-8.1816,-8.2309,-8.3562,-8.3107,-8.2347,-8.1512,-8.2272,-8.2613,-8.2499,-8.2537,-8.2575,-8.2461,-8.2537,-8.2263,-8.1406,-8.0421,-7.9354,-7.7892,-7.3897,-6.9853,-6.5838,-6.3023,-5.9693,-5.586,-5.5643,-5.5263,-5.5125,-5.4909,-5.4883,-5.4883,-5.4883,-5.4883,-5.4883,-5.4805,-5.4779,-5.4779,-5.4831,-5.4857,-5.4883,-5.4883,-5.4883,-5.4883,-5.4883,-5.4909,-5.4961,-5.4909,-5.4909,-5.4935,-5.4935,-5.4883,-5.4883,-5.4883,-5.4883,-5.4883,-5.4883,-5.4883,-5.4883,-5.4883,-5.4883,-5.4883,-5.4883,-5.4883,-5.4883,-5.4883,-5.4883,-5.4883,-5.4883,-5.4883,-5.4883,-5.4883,-5.4901,-5.5446,-5.5602,-5.5654,-5.5758,-5.5602,-5.5446,-5.5134,-5.5039,-5.4883,-5.4883,-5.4883,-5.4227,-8.2613,-8.2765,-8.2765,-8.2841,-8.3031,-8.3031,-8.341,-8.4018,-8.4018,-8.3638,-8.3107,-8.3031,-8.3031,-8.3107,-8.3714,-8.4018,-8.4094,-8.4663,-8.4929,-8.4929,-8.4929,-8.4929,-8.4929,-8.4929,-8.4853,-8.4701,-8.4663,-8.4246,-8.3524,-8.3259,-8.2955,-8.2537,-8.2955,-8.3676,-8.4663,-8.4474,-8.398,-8.3297,-8.398,-8.379,-8.2537,-8.3107,-8.3107,-8.2575,-8.3107,-8.2988,-8.2069,-8.0008,-7.6914,-7.3069,-6.983,-6.5952,-6.149,-6.3178,-6.2619,-5.8974,-5.9554,-5.9276,-5.6667,-5.5446,-5.4883,-5.4883,-5.4883,-5.4857,-5.4831,-5.4303,-5.4044,-5.407,-5.4407,-5.4831,-5.4805,-5.4857,-5.4883,-5.4883,-5.4883,-5.5039,-5.5264,-5.5143,-5.5039,-5.5264,-5.5143,-5.4909,-5.4883,-5.4883,-5.4883,-5.4883,-5.4883,-5.4883,-5.4883,-5.4883,-5.4883,-5.4883,-5.4883,-5.4883,-5.4883,-5.4883,-5.4883,-5.4883,-5.4883,-5.4883,-5.4883,-5.4883,-5.4953,-5.5446,-5.5602,-5.5706,-5.6095,-5.5913,-5.555,-5.5482,-5.5117,-5.4883,-5.4883,-5.4883,-5.4365,-8.155,-8.1892,-8.1892,-8.212,-8.2461,-8.2461,-8.2727,-8.3107,-8.2765,-8.2537,-8.2461,-8.2461,-8.2461,-8.2499,-8.2955,-8.3145,-8.3183,-8.36,-8.3828,-8.3866,-8.4246,-8.4398,-8.4436,-8.4777,-8.4929,-8.4929,-8.4929,-8.4739,-8.4284,-8.3904,-8.3524,-8.3107,-8.3486,-8.4132,-8.4891,-8.4929,-8.4549,-8.3752,-8.423,-8.3721,-8.2478,-8.2538,-8.223,-8.1443,-8.2132,-8.2139,-8.131,-7.9597,-7.7139,-7.4183,-6.9853,-6.59,-6.2833,-6.2545,-6.1269,-5.8756,-5.9248,-5.8942,-5.6763,-5.5627,-5.4686,-5.4101,-5.4075,-5.4101,-5.394,-5.3628,-5.3446,-5.3472,-5.3732,-5.4101,-5.4101,-5.4173,-5.4303,-5.4303,-5.4727,-5.4953,-5.5446,-5.529,-5.5342,-5.5836,-5.5706,-5.5394,-5.516,-5.5108,-5.5056,-5.4909,-5.4883,-5.4883,-5.4883,-5.4883,-5.4883,-5.4883,-5.4883,-5.4883,-5.4883,-5.4883,-5.4883,-5.4883,-5.4883,-5.4883,-5.4883,-5.4883,-5.5143,-5.5472,-5.5368,-5.5472,-5.5939,-5.5602,-5.543,-5.5491,-5.523,-5.5073,-5.5374,-5.5374,-5.4857,-8.0449,-8.1095,-8.1095,-8.1512,-8.212,-8.212,-8.212,-8.2082,-8.1398,-8.1474,-8.212,-8.212,-8.212,-8.212,-8.2234,-8.2309,-8.2309,-8.2423,-8.2461,-8.2499,-8.3221,-8.3562,-8.36,-8.4284,-8.4587,-8.4587,-8.4587,-8.4663,-8.4701,-8.4094,-8.379,-8.3904,-8.3904,-8.4246,-8.4891,-8.4929,-8.4625,-8.3942,-8.3504,-8.2861,-8.2191,-8.0998,-8.0079,-7.9557,-8.0113,-8.014,-7.9679,-7.8816,-7.7919,-7.6464,-7.1087,-6.7407,-6.5896,-6.1789,-5.909,-5.8228,-5.8038,-5.7655,-5.6921,-5.6142,-5.5099,-5.3638,-5.3349,-5.3244,-5.3087,-5.3298,-5.327,-5.3294,-5.3505,-5.3294,-5.3135,-5.3498,-5.3732,-5.3758,-5.4147,-5.4693,-5.5212,-5.5264,-5.5446,-5.5991,-5.6199,-5.5913,-5.5446,-5.5394,-5.5186,-5.4987,-5.4883,-5.4883,-5.4883,-5.4883,-5.4883,-5.4883,-5.4883,-5.4883,-5.4883,-5.4883,-5.4883,-5.4883,-5.4883,-5.4883,-5.4883,-5.4883,-5.5039,-5.556,-5.5247,-5.5143,-5.5839,-5.536,-5.5479,-5.6082,-5.5754,-5.5538,-5.6029,-5.6355,-5.6029,-8.0107,-8.0259,-8.0259,-8.0335,-8.0449,-8.0449,-8.0487,-8.0449,-8.0297,0.0,0.0,-8.0449,-8.0487,-8.0525,-8.1171,-8.1474,-8.1512,-8.2158,-8.2461,-8.2499,-8.2613,-8.2689,-8.2689,-8.2841,-8.2917,-8.2917,-8.2917,-8.3259,-8.3904,-8.3828,-8.4094,-8.4663,-8.4739,-8.4815,-8.4929,-8.4929,-8.4891,-8.4579,-8.1951,-8.0289,-8.0182,-7.7132,-7.5823,-7.6755,-7.6879,-7.7019,-7.6978,-7.6908,-7.5227,-7.1735,-6.9754,-6.7407,-6.4399,-6.2735,-6.18,-6.1459,-6.0861,-6.0106,-5.9382,-5.8449,-5.7474,-5.5926,-5.4699,-5.3848,-5.3635,-5.4039,-5.4557,-5.4752,-5.4858,-5.451,-5.3841,-5.3394,-5.3135,-5.3161,-5.3239,-5.3524,-5.407,-5.4147,-5.4459,-5.4901,-5.5082,-5.5143,-5.4927,-5.4901,-5.4961,-5.4883,-5.4883,-5.4883,-5.4883,-5.4883,-5.4883,-5.4883,-5.4883,-5.4883,-5.4883,-5.4909,-5.4883,-5.4961,-5.4935,-5.4883,-5.4883,-5.4883,-5.5073,-5.5992,-5.5315,-5.5643,-5.6653,-5.6325,-5.6192,-5.6818,-5.6981,-5.6981,-5.7144,-5.766,-5.793,-7.9386,-7.9424,-7.9842,-8.0032,0.0,-8.0032,-7.9576,-7.8779,-7.8779,-7.8779,-7.8779,-7.8779,-7.9006,-7.9424,-7.9804,-8.0221,-8.0639,-8.1057,-8.1246,-8.1284,-8.1664,-8.1854,-8.1854,-8.2272,-8.2461,-8.2461,-8.2461,-8.2689,-8.3107,-8.3107,-8.2508,-8.1257,-8.1257,-8.1478,-8.1847,-8.1884,-8.0823,-7.8621,-7.8564,-7.8275,-7.7886,-7.788,-7.7674,-7.7329,-7.6119,0.0,0.0,0.0,0.0,0.0,0.0,0.0,0.0,-6.3436,0.0,-6.2633,-6.1557,-6.0486,-5.9422,-5.8903,-5.7838,-5.5992,-5.449,-5.3334,-5.2883,-5.3076,-5.3345,-5.3481,-5.3253,-5.2922,-5.272,-5.2434,-5.2252,-5.2537,-5.2823,-5.3213,-5.3732,-5.3862,-5.4199,-5.4953,-5.5065,-5.4987,-5.5108,-5.4927,-5.4883,-5.4883,-5.4883,-5.4883,-5.4883,-5.4883,-5.4883,-5.4883,-5.4883,-5.4823,-5.5247,-5.5491,-5.59,-5.6329,-5.674,-5.7072,-5.7072,-5.7072,-5.7238,-5.757,-5.7404,-5.7238,-5.804,-5.7631,-5.7441,-5.807,-5.7852,-5.7496,-5.7801,-5.8168,-5.8037,-7.8551,-7.8627,-7.931,-7.9576,-7.9576,-7.9576,-7.8779,-7.7526,-7.7526,-7.7526,-7.7526,-7.7526,-7.7905,-7.8513,-7.8513,-7.8893,-7.9576,-7.9576,-7.9576,-7.9576,-8.0259,-8.0563,-8.0601,-8.1246,-8.1626,-8.1778,-8.1778,-8.162,-8.1262,-8.1262,-7.9615,-7.6684,-7.7196,-7.7517,-7.7604,0.0,0.0,0.0,-7.442,-7.5067,-7.4644,-7.6483,-7.7127,-7.6094,-7.4629,0.0,-7.1308,-6.9877,-6.9438,-6.9897,-6.6088,0.0,0.0,0.0,0.0,0.0,0.0,0.0,0.0,0.0,0.0,0.0,-5.4338,-5.3243,-5.2216,-5.2222,-5.2159,-5.223,-5.18,-5.1568,-5.1765,-5.1531,-5.1647,-5.2197,-5.2695,-5.3219,-5.3769,-5.3927,-5.4346,-5.5177,-5.5047,-5.4883,-5.5108,-5.4953,-5.4831,-5.47,-5.4805,-5.5021,-5.5374,-5.5374,-5.5374,-5.5348,-5.5348,-5.5532,-5.5866,-5.6528,-5.7104,-5.7613,-5.8442,-5.8722,-5.864,-5.8668,-5.8889,-5.9028,-5.911,-5.8862,-5.9196,-5.8728,-5.8234,-5.9025,-5.8255,-5.7646,-5.7968,-5.8055,-5.7242,-7.7716,-7.7716,-7.783,-7.7867,-7.7867,-7.7867,-7.7754,-7.7526,-7.7526,-7.7526,-7.7526,-7.7526,-7.7602,-7.7716,-7.7716,-7.7754,-7.7867,-7.7867,-7.7867,-7.7867,-7.7981,-7.8019,-7.8019,-7.8133,-7.8551,-7.9234,-7.9234,-7.844,-7.7103,-7.6947,-7.5697,-7.3419,-7.6048,-7.6118,-7.3232,-6.9768,-6.938,-7.2453,-6.983,-6.8392,-6.8134,-6.5628,-6.4997,-6.6515,-6.8252,-6.8641,-6.7267,-7.1679,-7.1394,-6.5555,-6.6572,-6.586,-6.2527,-6.0155,-5.9007,0.0,-5.9937,0.0,0.0,0.0,0.0,0.0,0.0,0.0,0.0,-5.2992,-5.3376,-5.37,-5.4283,-5.394,-5.2598,-5.2138,-5.2111,-5.2679,-5.2842,-5.3112,-5.368,-5.4221,-5.4288,-5.3848,-5.4539,-5.4774,-5.4258,-5.4459,-5.4648,-5.431,-5.4518,-5.538,-5.6601,-5.69,-5.6737,-5.6981,-5.6981,-5.6791,-5.6953,-5.7144,-5.7388,-5.7416,-5.7879,-5.7525,-5.7852,-5.7825,-5.7934,-5.8615,-5.8343,-5.8123,-5.8967,-5.84,-5.7989,-5.8392,-5.8052,-5.7798,-5.7913,-5.7827,-5.7242,-7.6804,-7.6842,-7.7336,-7.6994,-7.6121,-7.6121,-7.6121,-7.6121,-7.6121,-7.5855,-7.5438,-7.54,-7.5703,-7.6159,-7.6577,-7.707,-7.7526,-7.7526,-7.7526,-7.7526,-7.7526,-7.7526,-7.7526,-7.7526,-7.6795,-7.5463,-7.5427,-7.5045,-7.4335,-7.4335,-7.2796,-7.0046,-7.1732,-7.0247,-6.5432,-6.5182,-6.5084,-6.5129,-6.3753,-6.4306,-6.6594,-6.9216,-6.9897,-6.8384,-6.9306,-6.8338,-6.5087,-6.5828,-6.547,-6.3764,-6.2937,-6.3228,-6.4824,-6.0658,-5.9005,0.0,0.0,0.0,0.0,0.0,0.0,0.0,0.0,0.0,0.0,0.0,-5.2962,-5.3211,-5.3699,-5.3422,-5.2041,-5.1848,-5.1919,-5.1865,-5.2137,-5.2436,-5.2708,-5.3253,-5.3481,-5.3077,-5.3508,-5.4024,-5.4645,-5.4752,-5.4939,-5.5712,-5.5445,-5.5392,-5.576,-5.611,-5.6436,-5.6763,-5.6817,-5.6899,-5.728,-5.8097,-5.8591,-5.9059,-5.9472,-5.9802,-5.9802,-5.9802,-5.9856,-5.9875,-5.9627,-5.9431,-5.9487,-5.893,-5.8618,-5.8425,-5.723,-5.6121,-5.5978,-5.5978,-5.5676,-7.6037,-7.5931,-7.6667,-7.6132,-7.496,-7.496,-7.4934,-7.4982,-7.4982,-7.4527,-7.3729,-7.3919,-7.4287,-7.4694,-7.5483,-7.6247,-7.6942,-7.6942,-7.6911,-7.6956,-7.6956,-7.6956,-7.6956,-7.6918,-7.5828,-7.3845,-7.3513,-7.3326,-7.2763,-7.2287,-7.0393,-6.7084,-6.7315,-6.4638,-5.9648,-6.1742,-6.1709,-5.917,-5.9324,-6.1211,-6.4541,-7.0308,-7.1777,-6.8349,-6.911,-6.7263,-6.2837,-6.1708,-6.1319,-6.1466,-6.0209,-6.116,-6.5198,-6.0304,0.0,0.0,0.0,0.0,0.0,0.0,0.0,0.0,0.0,-5.3791,-5.1872,0.0,-5.188,0.0,-5.2957,-5.2916,-5.2104,-5.2028,0.0,0.0,-5.1648,-5.1931,-5.2096,-5.2509,-5.2663,-5.2394,-5.2612,-5.3295,-5.4349,-5.4485,-5.5287,-5.7077,-5.6609,-5.5866,-5.5151,-5.5646,-5.6066,-5.6362,-5.6499,-5.6775,-5.7215,-5.8445,-5.9604,-6.0275,-6.0829,-6.1354,-6.1354,-6.1269,-6.0985,-6.053,-6.033,-5.9961,-5.9306,-5.8738,-5.8254,-5.777,-5.6007,-5.4182,-5.4182,-5.421,-5.4064,-7.5804,-7.5086,-7.4924,-7.483,-7.4818,-7.4818,-7.5,-7.4982,-7.4982,-7.4527,-7.3805,-7.4527,-7.449,-7.3664,-7.4424,0.0,-7.5048,-7.5048,-7.5013,-7.5172,-7.5172,-7.5172,-7.5172,-7.521,-7.5447,-7.584,-7.5985,-7.4762,-7.2543,-7.1015,-6.8295,-6.4523,-6.3743,-6.2158,-5.9702,-5.9699,-5.9466,-5.9233,-5.8665,-5.8668,-5.9614,-6.0699,-6.086,-6.0252,-6.3014,-6.271,-5.8924,-6.4204,-6.4031,-5.7412,-6.0767,-6.1258,-5.7554,0.0,0.0,0.0,0.0,0.0,0.0,0.0,0.0,0.0,0.0,0.0,0.0,0.0,0.0,-5.1456,-5.2736,0.0,-5.3983,-5.3104,0.0,0.0,0.0,-5.1827,-5.2423,-5.2508,-5.2252,-5.1511,0.0,0.0,-5.2097,-5.3508,-5.5161,-5.7006,-5.7586,-5.7444,-5.6253,-5.7075,-5.7473,-5.6298,-5.6735,-5.7104,-5.7204,-5.8239,-5.9146,-5.9742,-5.9912,-6.0074,-6.0046,-5.9648,-5.9438,-5.9107,-5.8652,-5.8083,-5.7458,-5.6775,-5.6035,-5.4983,-5.4442,-5.4097,-5.3983,-5.3983,-5.3342,-7.4442,-7.3126,-7.3005,-7.306,-7.3143,-7.3686,-7.3976,-7.4094,-7.4731,-7.4195,-7.2794,-7.3275,-7.2779,-7.1862,-7.2125,0.0,0.0,0.0,-7.3527,-7.4056,-7.4135,-7.4489,-7.4982,-7.4982,-7.4281,-7.2677,-7.2677,-7.1194,-6.8216,-6.7649,-6.7062,-6.6266,0.0,-6.1898,-6.0998,-5.9478,-5.8972,-5.9376,-5.86,-5.8326,-5.8582,-5.8652,-5.8681,-5.8582,-6.1818,-6.1672,-5.7796,-6.1866,-6.1942,-5.7143,-6.1018,-6.1967,0.0,0.0,0.0,0.0,0.0,0.0,0.0,0.0,0.0,0.0,0.0,-5.4662,-5.2522,0.0,0.0,0.0,-5.0876,-5.1228,-5.1484,-5.2082,0.0,0.0,0.0,0.0,0.0,0.0,0.0,-5.0362,-5.2083,-5.3319,-5.3272,-5.3793,-5.4539,-5.5288,-5.5637,-5.5637,-5.5125,0.0,-5.5893,-5.6121,-5.6064,-5.6263,-5.6974,-5.7202,-5.7486,-5.8112,-5.8538,-5.8766,-5.8794,-5.8595,-5.8169,-5.7486,-5.7088,-5.6604,-5.5609,-5.4613,-5.3731,-5.3276,-5.2594,-5.2082,-5.2053,-5.2082,-5.1772,-7.3189,0.0,0.0,0.0,0.0,-7.2167,-7.2515,-7.2701,-7.3551,-7.3106,-7.1521,-7.1791,0.0,0.0,0.0,0.0,0.0,0.0,-7.2547,-7.3125,-7.3512,-7.3919,-7.4261,-7.4541,-7.338,-7.1364,-7.1222,-7.0048,-6.783,-6.6555,-6.6162,-6.658,0.0,0.0,0.0,0.0,-5.9924,-6.0495,-5.946,-5.8997,-5.9171,-5.9171,-5.9259,-5.9434,-6.1554,-6.113,-5.7627,-5.995,-6.0021,-5.7641,-6.0386,0.0,0.0,0.0,0.0,0.0,0.0,0.0,0.0,0.0,0.0,0.0,0.0,0.0,0.0,0.0,0.0,0.0,0.0,0.0,-4.9351,-5.0745,-5.1086,0.0,0.0,0.0,0.0,0.0,0.0,0.0,0.0,0.0,-5.3475,-5.37,-5.3983,0.0,0.0,-5.467,-5.4158,-5.4386,-5.4579,-5.504,-5.4898,0.0,-5.5694,-5.5694,-5.5836,-5.649,-5.7088,-5.7514,-5.7514,-5.7059,-5.6434,-5.5552,-5.5353,-5.4932,-5.3535,-5.2529,-5.1982,-5.1867,-5.1206,-5.0602,-5.0573,-5.0573,-5.0573,0.0,0.0,0.0,0.0,-7.0375,0.0,0.0,0.0,-7.1579,-7.0956,0.0,-7.0216,0.0,0.0,0.0,0.0,-7.0368,-7.1422,0.0,0.0,-7.3131,-7.3312,-7.2727,-7.3275,-7.351,-7.3373,-7.3237,-7.3198,-7.281,-6.906,-6.611,0.0,0.0,0.0,0.0,0.0,-6.3015,-6.3149,-6.1707,-6.1216,-6.165,-6.165,-6.1988,-6.2448,-6.2171,-6.0767,-5.8596,-5.9437,-5.9254,-5.7562,-5.8913,0.0,0.0,0.0,0.0,0.0,0.0,0.0,0.0,0.0,0.0,0.0,0.0,0.0,0.0,0.0,0.0,0.0,0.0,0.0,0.0,-4.9322,0.0,0.0,0.0,0.0,0.0,0.0,0.0,0.0,0.0,-5.1598,-5.1626,-5.265,-5.3646,-5.4069,0.0,0.0,0.0,0.0,-5.4613,-5.2906,-5.3106,-5.3305,-5.2764,-5.3618,-5.4585,-5.521,0.0,0.0,-5.6206,-5.4755,-5.3734,-5.3504,-5.362,-5.2933,-5.1122,-5.0695,-5.0607,-5.0578,-5.0489,-5.0561,-5.0561,-5.0342,-5.0401,0.0,0.0,0.0,0.0,0.0,0.0,0.0,0.0,0.0,-6.7753,-6.6729,-6.6884,0.0,0.0,0.0,0.0,0.0,0.0,0.0,0.0,-7.0736,-7.1311,-7.2178,-7.235,-7.2444,-7.2483,-7.2483,-7.1579,0.0,0.0,0.0,0.0,0.0,0.0,0.0,0.0,-6.3295,-6.3869,-6.2053,-6.1119,-6.1336,-6.1336,-6.1459,-6.1675,-6.1459,-6.0662,-5.9406,-6.1178,-6.1054,0.0,0.0,0.0,0.0,0.0,0.0,0.0,0.0,0.0,0.0,0.0,0.0,0.0,0.0,0.0,0.0,0.0,0.0,0.0,0.0,0.0,0.0,0.0,-4.9148,0.0,0.0,0.0,0.0,0.0,0.0,0.0,0.0,0.0,-5.1509,-5.2296,-5.3059,-5.3649,-5.3679,-5.3478,-5.2964,0.0,0.0,0.0,0.0,0.0,0.0,0.0,-5.3621,-5.342,-5.3992,-5.4682,-5.512,-5.4273,-5.3286,-5.2878,0.0,0.0,-5.0266,-5.0041,-4.9893,-4.9321,-4.9035,-4.862,-4.8082,-4.8443,-4.8739,0.0,0.0,0.0,0.0,0.0,0.0,0.0,0.0,0.0,-6.4899,-6.3863,0.0,0.0,0.0,0.0,0.0,0.0,0.0,0.0,0.0,0.0,0.0,-6.9836,-7.0365,0.0,0.0,0.0,0.0,0.0,0.0,0.0,0.0,0.0,0.0,0.0,0.0,-6.4272,-6.5079,-6.3533,-6.2518,-6.2635,-6.2667,-6.254,-6.2318,-6.2318,-6.1913,-6.1081,0.0,0.0,0.0,0.0,0.0,0.0,0.0,0.0,0.0,0.0,0.0,0.0,0.0,0.0,0.0,0.0,0.0,0.0,0.0,0.0,0.0,0.0,0.0,0.0,0.0,-4.8421,0.0,0.0,0.0,0.0,0.0,0.0,0.0,0.0,0.0,0.0,-5.1757,-5.2432,-5.3046,-5.3117,-5.3069,-5.2847,-5.3048,-5.3249,0.0,0.0,0.0,0.0,0.0,0.0,0.0,0.0,0.0,0.0,0.0,0.0,0.0,0.0,-5.066,-4.978,-4.9569,-4.9265,-4.8687,0.0,0.0,0.0,0.0,0.0,0.0,0.0,0.0,0.0,0.0,0.0,0.0,0.0,0.0,0.0,-6.0985,0.0,0.0,-5.8425,0.0,0.0,0.0,0.0,0.0,0.0,0.0,0.0,0.0,0.0,0.0,0.0,0.0,0.0,0.0,0.0,0.0,0.0,0.0,0.0,0.0,0.0,-6.6206,-6.6636,-6.5974,-6.5626,-6.5626,-6.5626,-6.5261,-6.4741,-6.4642,-6.4228,-6.342,0.0,0.0,0.0,0.0,0.0,0.0,0.0,0.0,0.0,0.0,0.0,0.0,0.0,0.0,0.0,0.0,0.0,0.0,0.0,0.0,0.0,0.0,0.0,0.0,0.0,0.0,-4.7821,-4.8968,-4.9558,0.0,0.0,0.0,0.0,0.0,0.0,0.0,0.0,0.0,-5.2497,-5.3514,-5.4163,-5.3441,-5.3876,-5.3878,-5.2707,-5.3187,-5.3209,-5.1794,-5.1541,-5.1791,0.0,0.0,0.0,0.0,0.0,0.0,0.0,0.0,0.0,0.0,0.0,0.0,0.0,0.0,0.0,0.0,0.0,0.0,0.0,0.0,0.0,0.0,0.0,0.0,0.0,0.0,0.0,0.0,0.0,0.0,0.0,0.0,0.0,0.0,0.0,0.0,0.0,0.0,0.0,0.0,0.0,0.0,0.0,0.0,0.0,0.0,0.0,0.0,0.0,0.0,0.0,0.0,0.0,0.0,-6.6339,-6.6636,-6.6083,-6.5773,-6.5773,-6.5274,-6.4908,-6.4642,-6.3676,-6.269,0.0,0.0,0.0,0.0,0.0,0.0,0.0,0.0,0.0,0.0,0.0,0.0,0.0,0.0,0.0,0.0,0.0,0.0,0.0,0.0,0.0,0.0,0.0,0.0,0.0,0.0,0.0,0.0,-4.8694,-4.8746,-4.8439,0.0,0.0,0.0,0.0,0.0,0.0,0.0,0.0,0.0,0.0,-5.1985,-5.274,-5.2543,-5.263,-5.3015,-5.3412,-5.318,-5.2294,-5.3039,-5.3266,-5.2214,0.0,0.0,0.0,0.0,0.0,0.0,0.0,0.0,0.0,0.0,0.0,0.0,0.0,0.0,0.0,0.0,0.0,0.0,0.0,0.0,0.0,0.0,0.0,0.0,0.0,0.0,0.0,0.0,0.0,0.0,0.0,0.0,0.0,0.0,0.0,0.0,0.0,0.0,0.0,0.0,0.0,0.0,0.0,0.0,0.0,0.0,0.0,0.0,0.0,0.0,0.0,0.0,0.0,-6.5674,-6.6139,-6.5641,-6.5341,-6.5341,-6.4908,-6.4409,-6.3843,-6.2678,-6.1623,0.0,0.0,0.0,0.0,0.0,0.0,0.0,0.0,0.0,0.0,0.0,0.0,0.0,0.0,0.0,0.0,0.0,0.0,0.0,0.0,0.0,0.0,0.0,0.0,0.0,0.0,0.0,0.0,-4.8246,-4.8222,-4.8229,0.0,0.0,0.0,0.0,0.0,0.0,0.0,0.0,0.0,0.0,-5.2027,-5.2559,-5.2827,0.0,0.0,-5.3769,-5.376,-5.2992,-5.3862,-5.409,-5.2358,-5.2553,0.0,0.0,0.0,0.0,0.0,0.0,0.0,0.0,0.0,0.0,0.0,0.0,0.0,0.0,0.0,0.0,0.0,0.0,0.0,0.0,0.0,0.0,0.0,0.0,0.0,0.0,0.0,0.0,0.0,0.0,0.0,0.0,0.0,0.0,0.0,0.0,0.0,0.0,0.0,0.0,0.0,0.0,0.0,0.0,0.0,0.0,0.0,0.0,0.0,0.0,0.0,0.0,-6.4754,-6.5081,-6.4892,-6.4642,-6.4608,-6.4542,-6.3843,-6.2445,-6.1513,-6.0752,0.0,0.0,0.0,0.0,0.0,0.0,0.0,0.0,0.0,0.0,0.0,0.0,0.0,0.0,0.0,0.0,0.0,0.0,0.0,0.0,0.0,0.0,0.0,0.0,0.0,0.0,0.0,0.0,0.0,0.0,0.0,0.0,0.0,0.0,0.0,0.0,0.0,0.0,0.0,0.0,0.0,-5.3395,-5.3003,-5.3893,-5.4397,0.0,-5.419,-5.4458,-5.3786,-5.419,-5.4294,-5.3059,0.0,0.0,0.0,0.0,0.0,0.0,0.0,0.0,0.0,0.0,0.0,0.0,0.0,0.0,0.0,0.0,0.0,0.0,0.0,0.0,0.0,0.0,0.0,0.0,0.0,0.0,0.0,0.0,0.0,0.0,0.0,0.0,0.0,0.0,0.0,0.0,0.0,0.0,0.0,0.0,0.0,0.0,0.0,0.0,0.0,0.0,0.0,0.0,0.0,0.0,0.0,0.0,0.0,0.0,-6.3558,-6.4382,-6.4409,-6.3843,-6.3277,-6.2578,-6.1646,-5.9316,0.0,0.0,0.0,0.0,0.0,0.0,0.0,0.0,0.0,0.0,0.0,0.0,0.0,0.0,0.0,0.0,0.0,0.0,0.0,0.0,0.0,0.0,0.0,0.0,0.0,0.0,0.0,-4.6434,0.0,0.0,0.0,0.0,0.0,0.0,0.0,0.0,0.0,0.0,0.0,0.0,0.0,0.0,-5.2459,-5.3364,-5.3364,-5.3458,0.0,0.0,-5.389,-5.3629,-5.425,-5.4514,0.0,0.0,0.0,0.0,0.0,0.0,0.0,0.0,0.0,0.0,0.0,0.0,0.0,0.0,0.0,0.0,0.0,0.0,0.0,0.0,0.0,0.0,0.0,0.0,0.0,0.0,0.0,0.0,0.0,0.0,0.0,0.0,0.0,0.0,0.0,0.0,0.0,0.0,0.0,0.0,0.0,0.0,0.0,0.0,0.0,0.0,0.0,0.0,0.0,0.0,0.0,0.0,0.0,0.0,-6.3751,-6.3346,-6.3329,-6.2991,-6.2718,-6.2178,-6.1479,-6.0414,-5.8184,-5.7252,0.0,0.0,0.0,0.0,0.0,0.0,0.0,0.0,0.0,0.0,0.0,0.0,0.0,0.0,0.0,0.0,0.0,0.0,0.0,0.0,0.0,0.0,0.0,0.0,0.0,0.0,0.0,0.0,0.0,0.0,0.0,0.0,0.0,0.0,0.0,0.0,0.0,0.0,0.0,0.0,0.0,0.0,-5.3595,-5.3561,0.0,0.0,0.0,-5.4202,-5.4202,0.0,0.0,0.0,0.0,0.0,0.0,0.0,0.0,0.0,0.0,0.0,0.0,0.0,0.0,0.0,0.0,0.0,0.0,0.0,0.0,0.0,0.0,0.0,0.0,0.0,0.0,0.0,0.0,0.0,0.0,0.0,0.0,0.0,0.0,0.0,0.0,0.0,0.0,0.0,0.0,0.0,0.0,0.0,0.0,0.0,0.0,0.0,0.0,0.0,0.0,0.0,0.0,0.0,0.0,0.0,0.0,0.0,-6.3454,-6.1837,-6.1022,-6.1183,-6.1013,-6.0348,-5.9049,-5.7618,-5.7151,0.0,0.0,0.0,0.0,0.0,0.0,0.0,0.0,0.0,0.0,0.0,0.0,0.0,0.0,0.0,0.0,0.0,0.0,0.0,0.0,0.0,0.0,0.0,0.0,0.0,0.0,0.0,0.0,0.0,0.0,0.0,0.0,0.0,0.0,0.0,0.0,0.0,0.0,0.0,0.0,0.0,-5.355,-5.3823,-5.3733,-5.3667,0.0,0.0,-5.465,-5.4716,-5.5214,0.0,0.0,0.0,0.0,0.0,0.0,0.0,0.0,0.0,0.0,0.0,0.0,0.0,0.0,0.0,0.0,0.0,0.0,0.0,0.0,0.0,0.0,0.0,0.0,0.0,0.0,0.0,0.0,0.0,0.0,0.0,0.0,0.0,0.0,0.0,0.0,0.0,0.0,0.0,0.0,0.0,0.0,0.0,0.0,0.0,0.0,0.0,0.0,0.0,0.0,0.0,0.0,0.0,0.0,0.0,0.0,-6.1114,-6.0134,-5.9507,-5.9515,-5.9049,-5.8617,-5.8317,-5.6919,-5.6659,0.0,0.0,0.0,0.0,0.0,0.0,0.0,0.0,0.0,0.0,0.0,0.0,0.0,0.0,0.0,0.0,0.0,0.0,0.0,0.0,0.0,0.0,0.0,0.0,0.0,0.0,0.0,0.0,0.0,0.0,0.0,0.0,0.0,0.0,0.0,0.0,0.0,0.0,0.0,0.0,0.0,-5.3091,-5.367,-5.3305,0.0,0.0,0.0,0.0,-5.3782,-5.3537,0.0,0.0,0.0,0.0,0.0,0.0,0.0,0.0,0.0,0.0,0.0,0.0,0.0,0.0,0.0,0.0,0.0,0.0,0.0,0.0,0.0,0.0,0.0,0.0,0.0,0.0,0.0,0.0,0.0,0.0,0.0,0.0,0.0,0.0,0.0,0.0,0.0,0.0,0.0,0.0,0.0,0.0,0.0,0.0,0.0,0.0,0.0,0.0,0.0,0.0,0.0,0.0,0.0,0.0,0.0,0.0,-6.0265,-5.9304,-5.8835,-5.8583,-5.8284,-5.7951,-5.7552,-5.652,-5.6546,0.0,0.0,0.0,0.0,0.0,0.0,0.0,0.0,0.0,0.0,0.0,0.0,0.0,0.0,0.0,0.0,0.0,0.0,0.0,0.0,0.0,0.0,0.0,0.0,0.0,0.0,0.0,0.0,0.0,0.0,0.0,0.0,0.0,0.0,0.0,0.0,0.0,0.0,0.0,0.0,-5.156,-5.1826,-5.2525,0.0,0.0,0.0,0.0,0.0,0.0,-5.2559,-5.2059,0.0,0.0,0.0,0.0,0.0,0.0,0.0,0.0,0.0,0.0,0.0,0.0,0.0,0.0,0.0,0.0,0.0,0.0,0.0,0.0,0.0,0.0,0.0,0.0,0.0,0.0,0.0,0.0,0.0,0.0,0.0,0.0,0.0,0.0,0.0,0.0,0.0,0.0,0.0,0.0,0.0,0.0,0.0,0.0,0.0,0.0,0.0,0.0,0.0,0.0,0.0,0.0,0.0,0.0,0.0,-5.9959,-5.8911,-5.8223,-5.7943,-5.7751,-5.7518,-5.6986,-5.6413,-5.6534,-5.7495,0.0,0.0,0.0,0.0,0.0,0.0,0.0,0.0,0.0,0.0,0.0,0.0,0.0,0.0,0.0,0.0,0.0,0.0,0.0,0.0,0.0,0.0,0.0,0.0,0.0,0.0,0.0,0.0,0.0,0.0,0.0,0.0,0.0,0.0,0.0,0.0,0.0,0.0,0.0,-5.0162,-5.0495,0.0,0.0,0.0,0.0,0.0,0.0,0.0,0.0,-5.1061,0.0,0.0,0.0,0.0,0.0,0.0,0.0,0.0,0.0,0.0,0.0,0.0,0.0,0.0,0.0,0.0,0.0,0.0,0.0,0.0,0.0,0.0,0.0,0.0,0.0,0.0,0.0,0.0,0.0,0.0,0.0,0.0,0.0,0.0,0.0,0.0,0.0,0.0,0.0,0.0,0.0,0.0,0.0,0.0,0.0,0.0,0.0,0.0,0.0,0.0,0.0,0.0,0.0,0.0,0.0,0.0,-5.7899,-5.6949,-5.7031,-5.6505,-5.6486,-5.6952,-5.6756,-5.7001,-5.7723,0.0,0.0,0.0,0.0,0.0,0.0,0.0,0.0,0.0,0.0,0.0,0.0,0.0,0.0,0.0,0.0,0.0,0.0,0.0,0.0,0.0,0.0,0.0,0.0,0.0,0.0,0.0,0.0,0.0,0.0,0.0,0.0,0.0,0.0,0.0,0.0,0.0,0.0,-4.8456,-4.9097,0.0,0.0,0.0,0.0,0.0,0.0,0.0,0.0,-4.9729,0.0,0.0,0.0,0.0,0.0,0.0,0.0,0.0,0.0,0.0,0.0,0.0,0.0,0.0,0.0,0.0,0.0,0.0,0.0,0.0,0.0,0.0,0.0,0.0,0.0,0.0,0.0,0.0,0.0,0.0,0.0,0.0,0.0,0.0,0.0,0.0,0.0,0.0,0.0,0.0,0.0,0.0,0.0,0.0,0.0,0.0,0.0,0.0,0.0,0.0,0.0,0.0,0.0,0.0,0.0,0.0,0.0,0.0,-5.753,-5.781,-5.7258,-5.6958,-5.6983,-5.8144,-5.8312,0.0,0.0,0.0,0.0,0.0,0.0,0.0,0.0,0.0,0.0,0.0,0.0,0.0,0.0,0.0,0.0,0.0,0.0,0.0,0.0,0.0,0.0,0.0,0.0,0.0,0.0,0.0,0.0,0.0,0.0,0.0,0.0,0.0,0.0,0.0,0.0,0.0,0.0,0.0,0.0,0.0,0.0,0.0,0.0,0.0,0.0,0.0,0.0,0.0,0.0,0.0,0.0,0.0,0.0,0.0,0.0,0.0,0.0,0.0,0.0,0.0,0.0,0.0,0.0,0.0,0.0,0.0,0.0,0.0,0.0,0.0,0.0,0.0,0.0,0.0,0.0,0.0,0.0,0.0,0.0,0.0,0.0,0.0,0.0,0.0,0.0,0.0,0.0,0.0,0.0,0.0,0.0,0.0,0.0,0.0,0.0,0.0,0.0,0.0,0.0,0.0,0.0,0.0,0.0,0.0,0.0,0.0,0.0,-5.8794,-5.8704,-5.9024,-5.8486,-5.7143,-5.9084,-5.9259,0.0,0.0,0.0,0.0,0.0,0.0,0.0,0.0,0.0,0.0,0.0,0.0,0.0,0.0,0.0,0.0,0.0,0.0,0.0,0.0,0.0,0.0,0.0,0.0,0.0,0.0,0.0,0.0,0.0,0.0,0.0,0.0,0.0,0.0,0.0,0.0,0.0,0.0,0.0,0.0,0.0,0.0,0.0,0.0,0.0,0.0,0.0,0.0,-4.6563,0.0,0.0,0.0,0.0,0.0,0.0,0.0,0.0,0.0,0.0,0.0,0.0,0.0,0.0,0.0,0.0,0.0,0.0,0.0,0.0,0.0,0.0,0.0,0.0,0.0,0.0,0.0,0.0,0.0,0.0,0.0,0.0,0.0,0.0,0.0,0.0,0.0,0.0,0.0,0.0,0.0,0.0,0.0,0.0,0.0,0.0,0.0,0.0,0.0,0.0,0.0,0.0,0.0,0.0,0.0,0.0,0.0,0.0,0.0,-6.0551,-5.8992,-6.1463,-6.104,-5.7625,-5.8311,-5.8361,0.0,0.0,0.0,0.0,0.0,0.0,0.0,0.0,0.0,0.0,0.0,0.0,0.0,0.0,0.0,0.0,0.0,0.0,0.0,0.0,0.0,0.0,0.0,0.0,0.0,0.0,0.0,0.0,0.0,0.0,0.0,0.0,0.0,0.0,0.0,0.0,0.0,0.0,0.0,0.0,0.0,0.0,0.0,0.0,0.0,0.0,0.0,0.0,0.0,0.0,0.0,0.0,0.0,0.0,0.0,0.0,0.0,0.0,0.0,0.0,0.0,0.0,0.0,0.0,0.0,0.0,0.0,0.0,0.0,0.0,0.0,0.0,0.0,0.0,0.0,0.0,0.0,0.0,0.0,0.0,0.0,0.0,0.0,0.0,0.0,0.0,0.0,0.0,0.0,0.0,0.0,0.0,0.0,0.0,0.0,0.0,0.0,0.0,0.0,0.0,0.0,0.0,0.0,0.0,0.0,0.0,0.0,0.0,-5.975,-5.9381,-6.003,-5.9686,-5.8439,-5.9395,-5.931,0.0,0.0,0.0,0.0,0.0,0.0,0.0,0.0,0.0,0.0,0.0,0.0,0.0,0.0,0.0,0.0,0.0,0.0,0.0,0.0,0.0,0.0,0.0,0.0,0.0,0.0,0.0,0.0,0.0,0.0,0.0,0.0,0.0,0.0,0.0,0.0,0.0,0.0,0.0,0.0,0.0,0.0,0.0,0.0,0.0,0.0,0.0,0.0,0.0,0.0,0.0,0.0,0.0,0.0,0.0,0.0,0.0,0.0,0.0,0.0,0.0,0.0,0.0,0.0,0.0,0.0,0.0,0.0,0.0,0.0,0.0,0.0,0.0,0.0,0.0,0.0,0.0,0.0,0.0,0.0,0.0,0.0,0.0,0.0,0.0,0.0,0.0,0.0,0.0,0.0,0.0,0.0,0.0,0.0,0.0,0.0,0.0,0.0,0.0,0.0,0.0,0.0,0.0,0.0,0.0,0.0,0.0,0.0,0.0,-5.9811,-5.9192,-5.8958,-5.918,-6.0137,-6.0009,0.0,0.0,0.0,0.0,0.0,0.0,0.0,0.0,0.0,0.0,0.0,0.0,0.0,0.0,0.0,0.0,0.0,0.0,0.0,0.0,0.0,0.0,0.0,0.0,0.0,0.0,0.0,0.0,0.0,0.0,0.0,0.0,0.0,0.0,0.0,0.0,0.0,0.0,0.0,0.0,0.0,0.0,0.0,0.0,0.0,0.0,0.0,0.0,0.0,0.0,0.0,0.0,0.0,0.0,0.0,0.0,0.0,0.0,0.0,0.0,0.0,0.0,0.0,0.0,0.0,0.0,0.0,0.0,0.0,0.0,0.0,0.0,0.0,0.0,0.0,0.0,0.0,0.0,0.0,0.0,0.0,0.0,0.0,0.0,0.0,0.0,0.0,0.0,0.0,0.0,0.0,0.0,0.0,0.0,0.0,0.0,0.0,0.0,0.0,0.0,0.0,0.0,0.0,0.0,0.0,0.0,0.0,0.0,0.0,-6.0458,-6.0729,-6.0383,-5.9501,-6.0042,-5.9776,0.0,0.0,0.0,0.0,0.0,0.0,0.0,0.0,0.0,0.0,0.0,0.0,0.0,0.0,0.0,0.0,0.0,0.0,0.0,0.0,0.0,0.0,0.0,0.0,0.0,0.0,0.0,0.0,0.0,0.0,0.0,0.0,0.0,0.0,0.0,0.0,0.0,0.0,0.0,0.0,0.0,0.0,0.0,0.0,0.0,0.0,0.0,0.0,0.0,0.0,0.0,0.0,0.0,0.0,0.0,0.0,0.0,0.0,0.0,0.0,0.0,0.0,0.0,0.0,0.0,0.0,0.0,0.0,0.0,0.0,0.0,0.0,0.0,0.0,0.0,0.0,0.0,0.0,0.0,0.0,0.0,0.0,0.0,0.0,0.0,0.0,0.0,0.0,0.0,0.0,0.0,0.0,0.0,0.0,0.0,0.0,0.0,0.0,0.0,0.0,0.0,0.0,0.0,0.0,0.0,0.0,0.0,0.0,0.0,-5.9805,-5.9916,-5.9747,-5.9409,-5.9009,-5.8905,-5.9162,0.0,0.0,0.0,0.0,0.0,0.0,0.0,0.0,0.0,0.0,0.0,0.0,0.0,0.0,0.0,0.0,0.0,0.0,0.0,0.0,0.0,0.0,0.0,0.0,0.0,0.0,0.0,0.0,0.0,0.0,0.0,0.0,0.0,0.0,0.0,0.0,0.0,0.0,0.0,0.0,0.0,0.0,0.0,0.0,0.0,0.0,0.0,0.0,0.0,0.0,0.0,0.0,0.0,0.0,0.0,0.0,0.0,0.0,0.0,0.0,0.0,0.0,0.0,0.0,0.0,0.0,0.0,0.0,0.0,0.0,0.0,0.0,0.0,0.0,0.0,0.0,0.0,0.0,0.0,0.0,0.0,0.0,0.0,0.0,0.0,0.0,0.0,0.0,0.0,0.0,0.0,0.0,0.0,0.0,0.0,0.0,0.0,0.0,0.0,0.0,0.0,0.0,0.0,0.0,0.0,0.0,0.0,0.0,-6.0096,-6.0096,-5.9965,-5.9524,-5.896,-5.8848,0.0,0.0,0.0,0.0,0.0,0.0,0.0,0.0,0.0,0.0,0.0,0.0,0.0,0.0,0.0,0.0,0.0,0.0,0.0,0.0,0.0,0.0,0.0,0.0,0.0,0.0,0.0,0.0,0.0,0.0,0.0,0.0,0.0,0.0,0.0,0.0,0.0,0.0,0.0,0.0,0.0,0.0,0.0,0.0,0.0,0.0,0.0,0.0,0.0,0.0,0.0,0.0,0.0,0.0,0.0,0.0,0.0,0.0,0.0,0.0,0.0,0.0,0.0,0.0,0.0,0.0,0.0,0.0,0.0,0.0,0.0,0.0,0.0,0.0,0.0,0.0,0.0,0.0,0.0,0.0,0.0,0.0,0.0,0.0,0.0,0.0,0.0,0.0,0.0,0.0,0.0,0.0,0.0,0.0,0.0,0.0,0.0,0.0,0.0,0.0,0.0,0.0,0.0,0.0,0.0,0.0,0.0,0.0,-6.0696,-6.168,-6.168,-6.1098,-6.0251,-6.0162,-5.9672,0.0,0.0,0.0,0.0,0.0,0.0,0.0,0.0,0.0,0.0,0.0,0.0,0.0,0.0,0.0,0.0,0.0,0.0,0.0,0.0,0.0,0.0,0.0,0.0,0.0,0.0,0.0,0.0,0.0,0.0,0.0,0.0,0.0,0.0,0.0,0.0,0.0,0.0,0.0,0.0,0.0,0.0,0.0,0.0,0.0,0.0,0.0,0.0,0.0,0.0,0.0,0.0,0.0,0.0,0.0,0.0,0.0,0.0,0.0,0.0,0.0,0.0,0.0,0.0,0.0,0.0,0.0,0.0,0.0,0.0,0.0,0.0,0.0,0.0,0.0,0.0,0.0,0.0,0.0,0.0,0.0,0.0,0.0,0.0,0.0,0.0,0.0,0.0,0.0,0.0,0.0,0.0,0.0,0.0,0.0,0.0,0.0,0.0,0.0,0.0,0.0,0.0,0.0,0.0,0.0,0.0,0.0,0.0,0.0,-5.9717,-5.9717,-5.9583,-5.9137,-5.9226,-5.9092,0.0,0.0,0.0,0.0,0.0,0.0,0.0,0.0,0.0,0.0,0.0,0.0,0.0,0.0,0.0,0.0,0.0,0.0,0.0,0.0,0.0,0.0,0.0,0.0,0.0,0.0,0.0,0.0,0.0,0.0,0.0,0.0,0.0,0.0,0.0,0.0,0.0,0.0,0.0,0.0,0.0,0.0,0.0,0.0,0.0,0.0,0.0,0.0,0.0,0.0,0.0,0.0,0.0,0.0,0.0,0.0,0.0,0.0,0.0,0.0,0.0,0.0,0.0,0.0,0.0,0.0,0.0,0.0,0.0,0.0,0.0,0.0,0.0,0.0,0.0,0.0,0.0,0.0,0.0,0.0,0.0,0.0,0.0,0.0,0.0,0.0,0.0,0.0,0.0,0.0,0.0,0.0,0.0,0.0,0.0,0.0,0.0,0.0,0.0,0.0,0.0,0.0,0.0,0.0,0.0,0.0,0.0,0.0,0.0,-5.8735,-5.8735,-5.8735,-5.8735,-5.8735,-5.8735,0.0,0.0,0.0,0.0,0.0,0.0,0.0,0.0,0.0,0.0,0.0,0.0,0.0,0.0,0.0,0.0,0.0,0.0,0.0,0.0,0.0,0.0,0.0,0.0,0.0,0.0,0.0,0.0,0.0,0.0,0.0,0.0,0.0,0.0,0.0,0.0,0.0,0.0,0.0,0.0,0.0,0.0,0.0,0.0,0.0,0.0,0.0,0.0,0.0,0.0,0.0,0.0,0.0,0.0,0.0,0.0,0.0,0.0,0.0,0.0,0.0,0.0,0.0,0.0,0.0,0.0,0.0,0.0,0.0,0.0,0.0,0.0,0.0,0.0,0.0,0.0,0.0,0.0,0.0,0.0,0.0,0.0,0.0,0.0,0.0,0.0,0.0,0.0,0.0,0.0,0.0,0.0,0.0,0.0,0.0,0.0,0.0,0.0,0.0,0.0,0.0,0.0,0.0,0.0,0.0,0.0,0.0,0.0,0.0,-5.8735,-5.8735,-5.8735,-5.8735,-5.8735,-5.8735,0.0,0.0,0.0,0.0,0.0,0.0,0.0,0.0,0.0,0.0,0.0,0.0,0.0,0.0,0.0,0.0,0.0,0.0,0.0,0.0,0.0,0.0,0.0,0.0,0.0,0.0,0.0,0.0,0.0,0.0,0.0,0.0,0.0,0.0,0.0,0.0,0.0,0.0,0.0,0.0,0.0,0.0,0.0,0.0,0.0,0.0,0.0,0.0,0.0,0.0,0.0,0.0,0.0,0.0,0.0,0.0,0.0,0.0,0.0,0.0,0.0,0.0,0.0,0.0,0.0,0.0,0.0,0.0,0.0,0.0,0.0,0.0,0.0,0.0,0.0,0.0,0.0,0.0,0.0,0.0,0.0,0.0,0.0,0.0,0.0,0.0,0.0,0.0,0.0,0.0,0.0,0.0,0.0,0.0,0.0,0.0,0.0,0.0,0.0,0.0,0.0,0.0,0.0,0.0,0.0,0.0,0.0,0.0,0.0,0.0,-5.8735,-5.8735,-5.8735,-5.8735,-5.8735,-5.8735,0.0,0.0,0.0,0.0,0.0,0.0,0.0,0.0,0.0,0.0,0.0,0.0,0.0,0.0,0.0,0.0,0.0,0.0,0.0,0.0,0.0,0.0,0.0,0.0,0.0,0.0,0.0,0.0,0.0,0.0,0.0,0.0,0.0,0.0,0.0,0.0,0.0,0.0,0.0,0.0,0.0,0.0,0.0,0.0,0.0,0.0,0.0,0.0,0.0,0.0,0.0,0.0,0.0,0.0,0.0,0.0,0.0,0.0,0.0,0.0,0.0,0.0,0.0,0.0,0.0,0.0,0.0,0.0,0.0,0.0,0.0,0.0,0.0,0.0,0.0,0.0,0.0,0.0,0.0,0.0,0.0,0.0,0.0,0.0,0.0,0.0,0.0,0.0,0.0,0.0,0.0,0.0,0.0,0.0,0.0,0.0,0.0,0.0,0.0,0.0,0.0,0.0,0.0,0.0,0.0,0.0,0.0,0.0,0.0,0.0,-5.8735,-5.8735,-5.8735,-5.8735,0.0,0.0,0.0,0.0,0.0,0.0,0.0,0.0,0.0,0.0,0.0,0.0,0.0,0.0,0.0,0.0,0.0,0.0,0.0,0.0,0.0,0.0,0.0,0.0,0.0,0.0,0.0,0.0,0.0,0.0,0.0,0.0,0.0,0.0,0.0,0.0,0.0,0.0,0.0,0.0,0.0,0.0,0.0,0.0,0.0,0.0,0.0,0.0,0.0,0.0,0.0,0.0,0.0,0.0,0.0,0.0,0.0,0.0,0.0,0.0,0.0,0.0,0.0,0.0,0.0,0.0,0.0,0.0,0.0,0.0,0.0,0.0,0.0,0.0,0.0,0.0,0.0,0.0,0.0,0.0,0.0,0.0,0.0,0.0,0.0,0.0,0.0,0.0,0.0,0.0,0.0,0.0,0.0,0.0,0.0,0.0,0.0,0.0,0.0,0.0,0.0,0.0,0.0,0.0,0.0,0.0,0.0,0.0,0.0,0.0,0.0,-5.8735,-5.8735,-5.8735,0.0,-5.8735,0.0,0.0,0.0,0.0,0.0,0.0,0.0,0.0,0.0,0.0,0.0,0.0,0.0,0.0,0.0,0.0,0.0,0.0,0.0,0.0,0.0,0.0,0.0,0.0,0.0,0.0,0.0,0.0,0.0,0.0,0.0,0.0,0.0,0.0,0.0,0.0,0.0,0.0,0.0,0.0,0.0,0.0,0.0,0.0,0.0,0.0,0.0,0.0,0.0,0.0,0.0,0.0,0.0,0.0,0.0,0.0,0.0,0.0,0.0,0.0,0.0,0.0,0.0,0.0,0.0,0.0,0.0,0.0,0.0,0.0,0.0,0.0,0.0,0.0,0.0,0.0,0.0,0.0,0.0,0.0,0.0,0.0,0.0,0.0,0.0,0.0,0.0,0.0,0.0,0.0,0.0,0.0,0.0,0.0,0.0,0.0,0.0,0.0,0.0,0.0,0.0,0.0,0.0,0.0,0.0,0.0,0.0,0.0,0.0,0.0,0.0,0.0,-5.8735,-5.8735,-5.8735,0.0,0.0,0.0,0.0,0.0,0.0,0.0,0.0,0.0,0.0,0.0,0.0,0.0,0.0,0.0,0.0,0.0,0.0,0.0,0.0,0.0,0.0,0.0,0.0,0.0,0.0,0.0,0.0,0.0,0.0,0.0,0.0,0.0,0.0,0.0,0.0,0.0,0.0,0.0,0.0,0.0,0.0,0.0,0.0,0.0,0.0,0.0,0.0,0.0,0.0,0.0,0.0,0.0,0.0,0.0,0.0,0.0,0.0,0.0,0.0,0.0,0.0,0.0,0.0,0.0,0.0,0.0,0.0,0.0,0.0,0.0,0.0,0.0,0.0,0.0,0.0,0.0,0.0,0.0,0.0,0.0,0.0,0.0,0.0,0.0,0.0,0.0,0.0,0.0,0.0,0.0,0.0,0.0,0.0,0.0,0.0,0.0,0.0,0.0,0.0,0.0,0.0,0.0,0.0,0.0,0.0,0.0,0.0,0.0,0.0,-5.8735,-5.8735,-5.8735,-5.8735,-5.8735,0.0,0.0,0.0,0.0,0.0,0.0,0.0,0.0,0.0,0.0,0.0,0.0,0.0,0.0,0.0,0.0,0.0,0.0,0.0,0.0,0.0,0.0,0.0,0.0,0.0,0.0,0.0,0.0,0.0,0.0,0.0,0.0,0.0,0.0,0.0,0.0,0.0,0.0,0.0,0.0,0.0,0.0,0.0,0.0,0.0,0.0,0.0,0.0,0.0,0.0,0.0,0.0,0.0,0.0,0.0,0.0,0.0,0.0,0.0,0.0,0.0,0.0,0.0,0.0,0.0,0.0,0.0,0.0,0.0,0.0,0.0,0.0,0.0,0.0,0.0,0.0,0.0,0.0,0.0,0.0,0.0,0.0,0.0,0.0,0.0,0.0,0.0,0.0,0.0,0.0,0.0,0.0,0.0,0.0,0.0,0.0,0.0,0.0,0.0,0.0,0.0,0.0,0.0,0.0,0.0,0.0,0.0,0.0,0.0,0.0,-5.8735,0.0,0.0,0.0,-5.8735,0.0,0.0,0.0,0.0,0.0,0.0,0.0,0.0,0.0,0.0,0.0,0.0,0.0,0.0,0.0,0.0,0.0,0.0,0.0,0.0,0.0,0.0,0.0,0.0,0.0,0.0,0.0,0.0,0.0,0.0,0.0,0.0,0.0,0.0,0.0,0.0,0.0,0.0,0.0,0.0,0.0,0.0,0.0,0.0,0.0,0.0,0.0,0.0,0.0,0.0,0.0,0.0,0.0,0.0,0.0,0.0,0.0,0.0,0.0,0.0,0.0,0.0,0.0,0.0,0.0,0.0,0.0,0.0,0.0,0.0,0.0,0.0,0.0,0.0,0.0,0.0,0.0,0.0,0.0,0.0,0.0,0.0,0.0,0.0,0.0,0.0,0.0,0.0,0.0,0.0,0.0,0.0,0.0,0.0,0.0,0.0,0.0,0.0,0.0,0.0,0.0,0.0,0.0,0.0,0.0,0.0,0.0,0.0,0.0,0.0,0.0,0.0,0.0,0.0,0.0,0.0,0.0,0.0,0.0,0.0,0.0,0.0,0.0,0.0,0.0,0.0,0.0,0.0,0.0,0.0,0.0,0.0,0.0,0.0,0.0,0.0,0.0,0.0,0.0,0.0,0.0,0.0,0.0,0.0,0.0,0.0,0.0,0.0,0.0,0.0,0.0,0.0,0.0,0.0,0.0,0.0,0.0,0.0,0.0,0.0,0.0,0.0,0.0,0.0,0.0,0.0,0.0,0.0,0.0,0.0,0.0,0.0,0.0,0.0,0.0,0.0,0.0,0.0,0.0,0.0,0.0,0.0,0.0,0.0,0.0,0.0,0.0,0.0,0.0,0.0,0.0,0.0,0.0,0.0,0.0,0.0,0.0,0.0,0.0,0.0,0.0,0.0,0.0,0.0,0.0,0.0,0.0,0.0,0.0,0.0,0.0,0.0,0.0,0.0,0.0,0.0,0.0,0.0,0.0,0.0,0.0,0.0,0.0,0.0,0.0,0.0,0.0,0.0,0.0,0.0,0.0,0.0,0.0,0.0,0.0,0.0,0.0,0.0,0.0,0.0,0.0,0.0,0.0,0.0,0.0,0.0,0.0,0.0,0.0,0.0,0.0,0.0,0.0,0.0,0.0,0.0,0.0,0.0,0.0,0.0,0.0,0.0,0.0,0.0,0.0,0.0,0.0,0.0,0.0,0.0,0.0,0.0,0.0,0.0,0.0,0.0,0.0,0.0,0.0,0.0,0.0,0.0,0.0,0.0,0.0,0.0,0.0,0.0,0.0,0.0,0.0,0.0,0.0,0.0,0.0,0.0,0.0,0.0,0.0,0.0,0.0,0.0,0.0,0.0,0.0,0.0,0.0,0.0,0.0,0.0,0.0,0.0,0.0,0.0,0.0,0.0,0.0,0.0,0.0,0.0,0.0,0.0,0.0,0.0,0.0,0.0,0.0,0.0,0.0,0.0,0.0,0.0,0.0,0.0,0.0,0.0,0.0,0.0,0.0,0.0,0.0,0.0,0.0,0.0,0.0,0.0,0.0,0.0,0.0,0.0,0.0,0.0,0.0,0.0,0.0,0.0,0.0,0.0,0.0,0.0,0.0,0.0,0.0,0.0,0.0,0.0,0.0,0.0,0.0,0.0,0.0,0.0,0.0,0.0,0.0,0.0,0.0,0.0,0.0,0.0,0.0,0.0,0.0,0.0,0.0,0.0,0.0,0.0,0.0,0.0,0.0,0.0,0.0,0.0,0.0,0.0,0.0,0.0,0.0,0.0,0.0,0.0,0.0,0.0,0.0,0.0,0.0,0.0,0.0,0.0,0.0,0.0,0.0,0.0,0.0,0.0,0.0,0.0,0.0,0.0,0.0,0.0,0.0,0.0,0.0,0.0,0.0,0.0,0.0,0.0,0.0,0.0,0.0,0.0,0.0,0.0,0.0,0.0,0.0,0.0,0.0,0.0,0.0,0.0,0.0,0.0,0.0,0.0,0.0,0.0,0.0,0.0,0.0,0.0,0.0,0.0,0.0,0.0,0.0,0.0,0.0,0.0,0.0,0.0,0.0,0.0,0.0,0.0,0.0,0.0,0.0,0.0,0.0,0.0,0.0,0.0,0.0,0.0,0.0,0.0,0.0,0.0,0.0,0.0,0.0,0.0,0.0,0.0,0.0,0.0,0.0,0.0,0.0,0.0,0.0,0.0,0.0,0.0,0.0,0.0,0.0,0.0,0.0,0.0,0.0,0.0,0.0,0.0,0.0,0.0,0.0,0.0,0.0,0.0,0.0,0.0,0.0,0.0,0.0,0.0,0.0,0.0,0.0,0.0,0.0,0.0,0.0,0.0,0.0,0.0,0.0,0.0,0.0,0.0,0.0,0.0,0.0,0.0,0.0,0.0,0.0,0.0,0.0,0.0,0.0,0.0,0.0,0.0,0.0,0.0,0.0,0.0,0.0,0.0,0.0,0.0,0.0,0.0,0.0,0.0,0.0,0.0,0.0,0.0,0.0,0.0,0.0,0.0,0.0,0.0,0.0,0.0,0.0,0.0,0.0,0.0,0.0,0.0,0.0,0.0,0.0,0.0,0.0,0.0,0.0,0.0,0.0,0.0,0.0,0.0,0.0,0.0,0.0,0.0,0.0,0.0,0.0,0.0,0.0,0.0,0.0,0.0,0.0,0.0,0.0,0.0,0.0,0.0,0.0,0.0,0.0,0.0,0.0,0.0,0.0,0.0,0.0,0.0,0.0,0.0,0.0,0.0,0.0,0.0,0.0,0.0,0.0,0.0,0.0,0.0,0.0,0.0,0.0,0.0,0.0,0.0,0.0,0.0,0.0,0.0,0.0,0.0,0.0,0.0,0.0,0.0,0.0,0.0,0.0,0.0,0.0,0.0,0.0,0.0,0.0,0.0,0.0,0.0,0.0,0.0,0.0,0.0,0.0,0.0,0.0,0.0,0.0,0.0,0.0,0.0,0.0,0.0,0.0,0.0,0.0,0.0,0.0,0.0,0.0,0.0,0.0,0.0,0.0,0.0,0.0,0.0,0.0,0.0,0.0,0.0,0.0,0.0,0.0,0.0,0.0,0.0,0.0,0.0,0.0,0.0,0.0,0.0,0.0,0.0,0.0,0.0,0.0,0.0,0.0,0.0,0.0,0.0,0.0,0.0,0.0,0.0,0.0,0.0,0.0,0.0,0.0,0.0,0.0,0.0,0.0,0.0,0.0,0.0,0.0,0.0,0.0,0.0,0.0,0.0,0.0,0.0,0.0,0.0,0.0,0.0,0.0,0.0,0.0,0.0,0.0,0.0,0.0,0.0,0.0,0.0,0.0,0.0,0.0,0.0,0.0,0.0,0.0,0.0,0.0,0.0,0.0,0.0,0.0,0.0,0.0,0.0,0.0,0.0,0.0,0.0,0.0,0.0,0.0,0.0,0.0,0.0,0.0,0.0,0.0,0.0,0.0,0.0,0.0,0.0,0.0,0.0,0.0,0.0,0.0,0.0,0.0,0.0,0.0,0.0,0.0,0.0,0.0,0.0,0.0,0.0,0.0,0.0,0.0,0.0,0.0,0.0,0.0,0.0,0.0,0.0,0.0,0.0,0.0,0.0,0.0,0.0,0.0,0.0,0.0,0.0,0.0,0.0,0.0,0.0,0.0,0.0,0.0,0.0,0.0,0.0,0.0,0.0,0.0,0.0,0.0,0.0,0.0,0.0,0.0,0.0,0.0,0.0,0.0,0.0,0.0,0.0,0.0,0.0,0.0,0.0,0.0,0.0,0.0,0.0,0.0,0.0,0.0,0.0,0.0,0.0,0.0,0.0,0.0,0.0,0.0,0.0,0.0,0.0,0.0,0.0,0.0,0.0,0.0,0.0,0.0,0.0,0.0,0.0,0.0,0.0,0.0,0.0,0.0,0.0,0.0,0.0,0.0,0.0,0.0,0.0,0.0,0.0,0.0,0.0,0.0,0.0,0.0,0.0,0.0,0.0,0.0,0.0,0.0,0.0,0.0,0.0,0.0,0.0,0.0,0.0,0.0,0.0,0.0,0.0,0.0,0.0,0.0,0.0,0.0,0.0,0.0,0.0,0.0,0.0,0.0,0.0,0.0,0.0,0.0,0.0,0.0,0.0,0.0,0.0,0.0,0.0,0.0,0.0,0.0,0.0,0.0,0.0,0.0,0.0,0.0,0.0,0.0,0.0,0.0,0.0,0.0,0.0,0.0,0.0,0.0,0.0,0.0,0.0,0.0,0.0,0.0,0.0,0.0,0.0,0.0,0.0,0.0,0.0,0.0,0.0,0.0,0.0,0.0,0.0,0.0,0.0,0.0,0.0,0.0,0.0,0.0,0.0,0.0,0.0,0.0,0.0,0.0,0.0]}],[{"header":{"parameterUnit":"kt","parameterCategory":2,"dx":1,"dy":1,"la1":29.587661999999998,"la2":31.0,"lo1":-88.76705300000003,"lo2":-86.6583820000003,"nx":115,"ny":88,"refTime":"2022-10-31T00:00:00:Z","depth":0,"parameterNumber":2,"parameterNumberName":"V-component_of_WINDS"},"data":[14.0416,13.9013,13.8684,13.8619,13.8531,13.8619,13.8619,13.8619,13.8619,13.8619,13.8619,13.8619,13.8619,13.875,13.9934,14.1117,14.2564,14.4077,14.7299,15.0784,15.1836,15.3677,15.5124,15.5913,15.5913,15.5913,15.5913,15.5913,15.5913,15.5847,15.5256,15.4006,15.3809,15.2888,15.1442,15.0521,14.9863,14.9929,15.0126,15.0652,15.2428,15.2823,15.3086,15.4072,15.4927,15.5453,15.5847,15.5913,15.5913,15.5913,15.5913,15.5913,15.5913,15.5913,15.5913,15.5913,15.5913,15.5913,15.5913,15.5913,15.5913,15.5913,15.5913,15.5847,15.5843,15.5377,15.4144,15.3539,15.2239,15.0586,15.0297,15.0049,14.9936,15.0023,15.011,15.011,15.011,15.011,15.011,15.011,15.011,15.011,15.011,15.011,15.011,15.011,15.011,15.0733,15.0904,15.2341,15.3797,15.7077,16.0512,16.1772,16.228,16.3902,16.5037,16.4395,16.4395,16.5251,16.6464,16.8105,16.8248,16.7463,16.7749,16.8319,16.8819,16.8748,16.889,16.8962,16.9033,16.8962,16.9033,16.889,16.8319,14.1367,14.0328,13.9145,13.8619,13.8619,13.8619,13.8619,13.8619,13.8619,13.8619,13.8619,13.8619,13.8619,13.8619,13.8947,13.9934,14.1052,14.2301,14.5589,14.8811,15.0652,15.2428,15.4072,15.5782,15.5716,15.5716,15.5847,15.5913,15.5847,15.5519,15.4993,15.4072,15.3217,15.2428,15.0521,14.9403,14.914,14.8943,14.9009,14.96,14.9798,15.0061,15.1573,15.2954,15.4072,15.4729,15.5519,15.5847,15.5847,15.5782,15.565,15.565,15.5584,15.5782,15.5782,15.5716,15.565,15.5913,15.5913,15.5913,15.5913,15.5913,15.5913,15.5977,15.6037,15.5165,15.3489,15.2423,15.1099,15.0136,15.0136,15.0023,15.0023,15.011,15.011,15.011,15.011,15.011,15.011,15.011,15.011,15.011,15.011,15.011,15.011,15.011,15.0457,15.1092,15.2095,15.3608,15.6012,15.9456,16.1994,16.2327,16.2488,16.3896,16.5394,16.4752,16.4181,16.4609,16.5109,16.5893,16.6179,16.5822,16.625,16.6821,16.7321,16.7606,16.8391,16.8676,16.8391,16.7891,16.7963,16.7463,16.7178,14.0859,13.9451,13.8882,13.8619,13.8619,13.8619,13.8619,13.8619,13.8619,13.8619,13.8619,13.8619,13.8619,13.8619,13.8619,13.9474,14.0591,14.0723,14.3485,14.6378,14.8351,15.0521,15.2757,15.4598,15.4927,15.5124,15.5453,15.5782,15.5716,15.5256,15.4072,15.2625,15.1507,15.0652,14.9798,14.8614,14.8154,14.8351,14.8154,14.8219,14.8219,14.914,15.0455,15.1047,15.2033,15.2757,15.3414,15.3546,15.394,15.4532,15.4729,15.4729,15.4795,15.5387,15.5453,15.519,15.5453,15.5913,15.5913,15.5913,15.5913,15.6011,15.6109,15.561,15.5731,15.414,15.2514,15.201,15.0672,15.009,15.0023,15.011,15.011,15.011,15.011,15.011,15.011,15.011,15.011,15.011,15.011,15.011,15.011,15.011,15.011,15.011,15.1261,15.2109,15.3517,15.5048,15.8536,16.1704,16.3168,16.37,16.3753,16.4681,16.5608,16.4966,16.4181,16.4466,16.4681,16.4538,16.4466,16.4823,16.518,16.5465,16.5537,16.5679,16.6393,16.7178,16.7035,16.6821,16.625,16.5822,16.4395,14.0049,13.8684,13.8619,13.8619,13.8619,13.8619,13.8619,13.8619,13.8619,13.8619,13.8619,13.8619,13.8619,13.8619,13.8619,13.9013,13.9802,13.9737,14.1249,14.4011,14.6181,14.8154,15.0061,15.302,15.4138,15.4269,15.4729,15.5387,15.5519,15.4466,15.3086,15.1705,15.1113,14.9863,14.8745,14.8745,14.8154,14.8219,14.7825,14.743,14.743,14.8417,14.9272,14.9929,15.0389,15.1179,15.1836,15.1836,15.2428,15.2954,15.3217,15.3283,15.3349,15.4598,15.4664,15.4269,15.5124,15.5716,15.5913,15.6043,15.6207,15.6304,15.5905,15.5533,15.4616,15.2872,15.1722,15.1387,15.0982,15.0445,15.011,15.011,15.011,15.011,15.011,15.011,15.011,15.011,15.011,15.011,15.011,15.011,15.011,15.011,15.011,15.0733,15.1846,15.3083,15.4454,15.6971,16.0437,16.2031,16.3622,16.4752,16.5394,16.5822,16.5608,16.5037,16.5251,16.4966,16.4538,16.4752,16.4966,16.4681,16.3896,16.3896,16.3896,16.4038,16.4466,16.5037,16.518,16.5537,16.5109,16.3182,16.1327,13.9468,13.8619,13.8619,13.8619,13.8619,13.8619,13.8619,13.8619,13.8619,13.8619,13.8619,13.8619,13.8619,13.8619,13.8619,13.8882,13.8882,13.8882,14.0394,14.2959,14.4405,14.6247,14.8548,15.1179,15.2559,15.348,15.4203,15.4927,15.519,15.4203,15.2691,15.1639,15.0981,14.9732,14.8154,14.8219,14.8154,14.7891,14.7365,14.7102,14.7233,14.743,14.7956,14.914,14.9666,15.0061,15.1047,15.1507,15.1705,15.1705,15.177,15.1836,15.2231,15.3086,15.3677,15.4006,15.5156,15.5846,15.6207,15.6433,15.6596,15.6326,15.5819,15.5468,15.467,15.3082,15.1454,15.0693,15.0646,15.0244,15.011,15.011,15.011,15.011,15.011,15.011,15.011,15.011,15.011,15.011,15.011,15.011,15.011,15.011,15.011,15.0648,15.1778,15.3492,15.5532,15.8616,16.0829,16.206,16.3253,16.4181,16.5037,16.5465,16.5394,16.5893,16.675,16.6322,16.3682,16.4038,16.5251,16.3896,16.2326,16.2326,16.2469,16.3039,16.3468,16.3468,16.3468,16.4038,16.2754,16.0399,15.8473,14.0212,13.8663,13.8619,13.8619,13.8619,13.8619,13.8619,13.8619,13.8619,13.8619,13.8619,13.8619,13.8619,13.8619,13.8619,13.8619,13.8619,13.8684,13.9145,14.1183,14.2564,14.4405,14.6378,14.8548,15.0784,15.2362,15.3349,15.4269,15.4927,15.3809,15.177,15.0455,14.9206,14.8154,14.7693,14.7759,14.7693,14.7365,14.7102,14.7102,14.7167,14.7233,14.743,14.7956,14.8022,14.8285,14.8745,14.8745,14.9403,15.0192,15.0258,15.0652,15.1705,15.1179,15.131,15.3272,15.4854,15.6301,15.6789,15.6982,15.7078,15.6872,15.6227,15.5496,15.4352,15.2882,15.1296,15.0311,15.0244,15.011,15.011,15.011,15.011,15.011,15.011,15.011,15.011,15.011,15.011,15.011,15.011,15.011,15.011,15.011,15.037,15.1345,15.2693,15.4357,15.6853,15.9431,16.0654,16.1612,16.254,16.3396,16.4252,16.4823,16.4252,16.4252,16.5608,16.4966,16.2469,16.204,16.2897,16.2112,16.1042,16.0827,16.0899,16.1612,16.2112,16.1398,16.1256,16.0899,15.9615,15.7688,15.6047,14.0343,13.8684,13.8619,13.8619,13.8553,13.8158,13.8224,13.8619,13.8619,13.8619,13.8619,13.8619,13.8619,13.8619,13.8619,13.8619,13.8619,13.8619,13.8619,13.9474,14.1249,14.217,14.4011,14.6444,14.9272,15.1179,15.2691,15.3612,15.4401,15.3677,15.1639,14.9469,14.8285,14.7628,14.7233,14.7167,14.7167,14.7102,14.7102,14.7102,14.7102,14.7102,14.7167,14.7299,14.7365,14.743,14.7496,14.7496,14.7825,14.8614,14.8745,14.9074,15.0258,14.9535,15.0023,15.2077,15.4776,15.6886,15.7365,15.7556,15.765,15.7479,15.6188,15.5245,15.3619,15.1899,15.0358,15.0177,15.0177,15.011,15.011,15.011,15.011,15.011,15.011,15.011,15.011,15.011,15.011,15.011,15.011,15.011,15.011,15.0197,15.1074,15.2437,15.3971,15.5782,15.7768,15.9124,16.0264,16.0899,16.1612,16.204,16.2897,16.3682,16.2968,16.254,16.3468,16.3468,16.2112,16.147,16.1042,16.1042,16.1398,16.0899,16.0043,16.0043,16.0756,16.0043,15.9115,15.7902,15.6689,15.5547,15.4049,13.9491,13.8663,13.8619,13.8553,13.829,13.7172,13.7369,13.8619,13.8619,13.8619,13.8619,13.8619,13.8619,13.8619,13.8619,13.8619,13.8619,13.8619,13.8619,13.9145,14.0065,14.1381,14.2893,14.4603,14.743,15.0126,15.1968,15.2757,15.3677,15.302,15.1639,14.9732,14.7956,14.7299,14.7102,14.7102,14.7102,14.7102,14.7102,14.7102,14.7102,14.7102,14.7102,14.7102,14.7102,14.7102,14.7102,14.7102,14.7299,14.7365,14.7365,14.743,14.7365,14.7299,14.9074,15.15,15.4681,15.6482,15.7517,15.8028,15.8056,15.7148,15.5646,15.4087,15.2658,15.1317,15.0311,15.011,15.011,15.011,15.011,15.011,15.011,15.011,15.011,15.011,15.011,15.011,15.011,15.011,15.011,15.011,15.011,15.0733,15.1429,15.2854,15.4357,15.629,15.8238,15.9566,15.9971,16.0471,16.0613,16.097,16.1327,16.204,16.1684,16.1541,16.2183,16.2397,16.2754,16.2255,16.1327,16.097,16.1612,16.1327,16.0185,15.9757,15.9686,15.8616,15.7759,15.6475,15.4905,15.3621,15.2622,14.0545,13.8553,13.7632,13.6646,13.5923,13.6317,13.7238,13.8421,13.8619,13.8619,13.8619,13.8619,13.8619,13.8619,13.8619,13.8619,13.8619,13.8619,13.8619,13.8684,13.9211,14.0328,14.1578,14.3156,14.5852,14.8285,15.0258,15.1705,15.2296,15.2362,15.1179,14.9469,14.7956,14.7299,14.7102,14.7102,14.7102,14.7102,14.7102,14.7102,14.7102,14.7102,14.7102,14.7102,14.7102,14.7102,14.7102,14.7102,14.7167,14.7167,14.7167,14.7167,14.7326,14.7642,14.8684,15.0547,15.3329,15.5869,15.7616,15.8456,15.7252,15.6115,15.4154,15.2993,15.2322,15.0914,15.0378,15.011,15.011,15.011,15.011,15.011,15.011,15.011,15.011,15.011,15.011,15.011,15.011,15.011,15.011,15.011,15.011,15.0904,15.1944,15.3265,15.4738,15.693,15.8971,15.9431,15.99,15.9971,16.0114,16.0257,16.0542,16.0899,16.0827,16.0613,16.0613,16.0613,16.1042,16.1541,16.1113,16.0685,16.0756,16.0613,15.9971,15.9472,15.9044,15.8187,15.6618,15.4834,15.3193,15.2123,15.1195,14.1512,13.9145,13.7238,13.5594,13.4607,13.5857,13.6975,13.783,13.8356,13.8619,13.8619,13.8619,13.8619,13.8619,13.8619,13.8619,13.8619,13.8619,13.8619,13.8619,13.8684,13.9539,14.0789,14.2498,14.4537,14.7167,14.9337,15.0784,15.0916,15.085,15.0061,14.8943,14.7628,14.7167,14.7102,14.7102,14.7102,14.7102,14.7102,14.7102,14.7102,14.7102,14.7102,14.7102,14.7102,14.7102,14.7102,14.7102,14.7102,14.7102,14.7102,14.726,14.7537,14.7629,14.8696,15.0545,15.2464,15.5129,15.6984,15.7393,15.6345,15.4602,15.2993,15.2322,15.1652,15.0579,15.0311,15.011,15.011,15.011,15.011,15.011,15.011,15.011,15.011,15.011,15.011,15.011,15.011,15.011,15.011,15.011,15.011,15.0562,15.2612,15.4203,15.6576,15.8709,15.9302,15.963,15.9757,15.9757,15.9757,15.9757,15.9829,16.0114,16.0185,16.0185,15.9971,15.9757,15.9757,16.0114,16.0043,16.0185,15.9971,15.9757,15.9757,15.9615,15.883,15.726,15.5191,15.3264,15.2051,15.1052,15.0279,14.1972,14.0394,13.7632,13.5725,13.4936,13.5923,13.658,13.7106,13.8093,13.8619,13.8619,13.8619,13.8619,13.8619,13.8619,13.8619,13.8619,13.8619,13.8619,13.8619,13.8619,13.9408,14.0591,14.1972,14.3682,14.6707,14.8548,14.9535,14.9666,14.9863,14.9074,14.7956,14.7496,14.7102,14.7102,14.7102,14.7102,14.7102,14.7102,14.7102,14.7102,14.7102,14.7102,14.7102,14.7102,14.7102,14.7102,14.7102,14.7102,14.7102,14.7102,14.7352,14.7786,14.7903,14.8772,15.0487,15.2496,15.4237,15.5572,15.4934,15.3909,15.2591,15.2121,15.1518,15.0579,15.0177,15.0023,15.011,15.011,15.011,15.011,15.011,15.011,15.011,15.011,15.011,15.011,15.011,15.011,15.011,15.011,15.011,15.011,15.0752,15.3185,15.5565,15.8238,15.9431,15.963,15.9757,15.9757,15.9757,15.9757,15.9757,15.9757,15.9757,15.9757,15.9757,15.9757,15.9757,15.9757,15.9757,15.9757,15.9757,15.9757,15.9757,15.9757,15.9615,15.7902,15.6118,15.3906,15.2337,15.1124,15.0279,15.0279,14.2038,14.046,13.7632,13.6777,13.7238,13.6712,13.704,13.7961,13.8487,13.8619,13.8619,13.8619,13.8619,13.8619,13.8619,13.8619,13.8619,13.8619,13.8619,13.8619,13.8619,13.8882,13.9605,14.0854,14.2564,14.4208,14.6378,14.8548,14.9272,14.9469,14.9074,14.8417,14.7759,14.7233,14.7102,14.7102,14.7102,14.7102,14.7102,14.7102,14.7102,14.7102,14.7102,14.7102,14.7102,14.7102,14.7102,14.7102,14.7102,14.7102,14.7194,14.7445,14.7812,14.8333,14.8893,15.0074,15.1455,15.2793,15.3284,15.3038,15.2389,15.1317,15.0982,15.0713,15.0157,15.011,15.011,15.011,15.011,15.011,15.011,15.011,15.011,15.011,15.011,15.011,15.011,15.011,15.011,15.011,15.011,15.011,15.039,15.1345,15.3502,15.5492,15.783,15.8971,15.9431,15.9757,15.9757,15.9757,15.9757,15.9757,15.9757,15.9757,15.9757,15.9757,15.9757,15.9757,15.9757,15.9757,15.9757,15.9757,15.9757,15.9757,15.9186,15.8116,15.6618,15.4905,15.355,15.2051,15.0921,15.0279,15.0279,14.2827,14.1381,13.9079,13.829,13.8553,13.7632,13.7764,13.8553,13.8619,13.8619,13.8619,13.8619,13.8619,13.8619,13.8619,13.8619,13.8619,13.8619,13.8619,13.8619,13.8619,13.8619,13.9145,14.0131,14.1446,14.3156,14.5129,14.7102,14.8482,14.8417,14.8745,14.8877,14.7825,14.7365,14.7102,14.7102,14.7102,14.7102,14.7102,14.7102,14.7102,14.7102,14.7102,14.7102,14.7102,14.7102,14.7102,14.7102,14.7102,14.7102,14.7102,14.7445,14.7878,14.8424,14.8874,14.9519,15.1454,15.2368,15.2591,15.1853,15.1183,15.0157,15.011,15.009,15.009,15.011,15.011,15.011,15.011,15.011,15.011,15.011,15.011,15.011,15.011,15.011,15.011,15.011,15.011,15.011,15.011,15.039,15.1176,15.2027,15.3737,15.5492,15.707,15.8643,15.9302,15.9757,15.9757,15.9757,15.9757,15.9757,15.9757,15.9757,15.9757,15.9757,15.9757,15.9757,15.9757,15.9757,15.9757,15.9757,15.9757,15.9258,15.833,15.6903,15.5405,15.3906,15.2693,15.1623,15.0992,15.035,15.0778,14.4208,14.2893,14.1446,14.0065,13.8816,13.8684,13.8553,13.8619,13.8619,13.8619,13.8619,13.8619,13.8619,13.8619,13.8619,13.8619,13.8619,13.8619,13.8619,13.8619,13.8619,13.8619,13.8947,13.9802,14.1117,14.2564,14.4077,14.5721,14.6904,14.7365,14.7956,14.8943,14.7693,14.7299,14.7102,14.7102,14.7102,14.7102,14.7102,14.7102,14.7102,14.7102,14.7102,14.7102,14.7102,14.7102,14.7102,14.7102,14.7102,14.7102,14.7102,14.7352,14.806,14.8514,14.8963,14.963,15.1141,15.1631,15.1719,15.1049,15.0157,15.009,15.011,15.011,15.011,15.011,15.011,15.011,15.011,15.011,15.011,15.011,15.011,15.011,15.011,15.011,15.011,15.011,15.011,15.011,15.0476,15.1176,15.1944,15.3423,15.5046,15.707,15.8775,15.9036,15.9694,15.9757,15.9757,15.9757,15.9757,15.9757,15.9757,15.9757,15.9757,15.9757,15.9757,15.9757,15.9757,15.9757,15.9757,15.9615,15.9115,15.8544,15.7759,15.5761,15.3978,15.2693,15.1837,15.1124,15.0422,15.0279,15.0981,14.4866,14.434,14.2959,14.1512,14.0197,13.9079,13.8619,13.8619,13.8619,13.8619,13.8619,13.8619,13.8619,13.8619,13.8619,13.8619,13.8619,13.8619,13.8619,13.8619,13.8619,13.8619,13.875,13.8947,14.0,14.1315,14.2827,14.4603,14.5918,14.6378,14.6444,14.7628,14.7365,14.7167,14.7102,14.7102,14.7102,14.7102,14.7102,14.7102,14.7102,14.7102,14.7102,14.7102,14.7102,14.7102,14.7102,14.7102,14.7102,14.7102,14.7102,14.7537,14.8242,14.8604,14.9052,14.9806,15.027,15.0827,15.0713,15.0512,15.0244,15.011,15.011,15.011,15.011,15.011,15.011,15.011,15.011,15.011,15.011,15.011,15.011,15.011,15.011,15.011,15.011,15.011,15.011,15.0476,15.1261,15.2012,15.3423,15.482,15.6647,15.8643,15.9366,15.9694,15.9757,15.9757,15.9757,15.9757,15.9757,15.9757,15.9757,15.9757,15.9757,15.9757,15.9757,15.9757,15.9686,15.9686,15.94,15.8972,15.8544,15.7759,15.6546,15.4477,15.2479,15.1766,15.1052,15.0422,15.0279,15.0279,15.0778,14.5589,14.4866,14.3485,14.2038,14.0591,13.9211,13.8619,13.8619,13.8619,13.8619,13.8619,13.8619,13.8619,13.8619,13.8619,13.8619,13.8619,13.8619,13.8619,13.8619,13.8619,13.8619,13.8619,13.8684,13.9342,14.0723,14.1775,14.3485,14.4603,14.5063,14.5786,14.7036,14.7102,14.7102,14.7102,14.7102,14.7102,14.7102,14.7102,14.7102,14.7102,14.7102,14.7102,14.7102,14.7102,14.7102,14.7102,14.7102,14.7102,14.7102,14.7102,14.7537,14.8152,14.8604,14.8963,14.9693,14.9869,15.0023,15.011,15.009,15.011,15.011,15.011,15.011,15.011,15.011,15.011,15.011,15.011,15.011,15.011,15.011,15.011,15.011,15.011,15.011,15.011,15.011,15.0476,15.1261,15.2095,15.3581,15.5046,15.6647,15.8372,15.9431,15.963,15.9757,15.9757,15.9757,15.9757,15.9757,15.9757,15.9757,15.9757,15.9757,15.9757,15.9757,15.9757,15.9686,15.9615,15.9186,15.8616,15.8187,15.7117,15.6118,15.5262,15.355,15.1694,15.091,15.0279,15.0279,15.0279,15.035,15.1623,14.6378,14.5195,14.3748,14.2301,14.092,13.9539,13.8816,13.8684,13.8619,13.8619,13.8619,13.8619,13.8619,13.8619,13.8619,13.8619,13.8619,13.8619,13.8619,13.8619,13.8619,13.8619,13.8619,13.8619,13.9342,14.0131,14.0657,14.1512,14.2696,14.4142,14.5392,14.6575,14.6838,14.7102,14.7102,14.7102,14.7102,14.7102,14.7102,14.7102,14.7102,14.7102,14.7102,14.7167,14.726,14.7352,14.7352,14.7445,14.7537,14.7445,14.7445,14.7629,14.7994,14.8514,14.8897,14.9341,14.9693,15.011,15.011,15.011,15.011,15.011,15.011,15.011,15.011,15.011,15.011,15.011,15.011,15.011,15.011,15.011,15.011,15.011,15.011,15.011,15.0197,15.039,15.1261,15.2027,15.3659,15.5195,15.6718,15.8372,15.9757,15.9757,15.9757,15.9757,15.9757,15.9757,15.9757,15.9757,15.9757,15.9757,15.9757,15.9757,15.9757,15.9757,15.9686,15.9615,15.9115,15.8402,15.7902,15.6618,15.5048,15.3906,15.3264,15.2265,15.0921,15.0279,15.0279,15.0279,15.035,15.1552,15.2765,14.697,14.6575,14.5195,14.3748,14.2301,14.092,13.9671,13.875,13.8619,13.8619,13.8619,13.8619,13.8619,13.8619,13.8619,13.8619,13.8619,13.8619,13.8619,13.8619,13.8619,13.8619,13.8619,13.8684,13.8816,13.9474,14.0,14.0854,14.1512,14.263,14.4011,14.5458,14.6707,14.7102,14.7102,14.7102,14.7102,14.7102,14.7102,14.7102,14.7102,14.7102,14.7102,14.7102,14.7537,14.7786,14.7878,14.7994,14.8242,14.8333,14.8424,14.8538,14.8919,14.9097,14.9429,14.9848,15.0023,15.0023,15.011,15.011,15.011,15.011,15.011,15.011,15.011,15.011,15.011,15.011,15.011,15.011,15.011,15.011,15.011,15.0197,15.0197,15.0197,15.0648,15.1429,15.2355,15.3581,15.5195,15.6789,15.8238,15.9757,15.9757,15.9757,15.9757,15.9757,15.9757,15.9757,15.9757,15.9757,15.9757,15.9757,15.9757,15.9757,15.9757,15.9686,15.9543,15.9115,15.8402,15.7403,15.6332,15.5191,15.3621,15.2265,15.1338,15.0422,15.0279,15.0279,15.0279,15.0636,15.1552,15.2622,15.3835,14.7102,14.697,14.5655,14.4603,14.3616,14.1644,14.0263,13.9605,13.8882,13.8619,13.8619,13.8619,13.8619,13.8619,13.8619,13.8619,13.8619,13.8619,13.8619,13.8619,13.8619,13.8619,13.8619,13.8619,13.8619,13.8816,13.9342,14.0,14.0789,14.1578,14.3025,14.4668,14.5655,14.651,14.697,14.7167,14.7102,14.7102,14.7102,14.7102,14.7102,14.7102,14.7352,14.7445,14.772,14.806,14.8242,14.8604,14.8694,14.8694,14.8694,14.8897,14.9186,14.9451,14.9781,15.0023,15.0023,15.011,15.011,15.011,15.011,15.011,15.011,15.011,15.011,15.011,15.011,15.011,15.011,15.011,15.011,15.011,15.0543,15.1074,15.1345,15.1695,15.2368,15.3185,15.4126,15.5265,15.6789,15.8305,15.9757,15.9757,15.9757,15.9757,15.9757,15.9757,15.9757,15.9757,15.9757,15.9757,15.9757,15.9757,15.9757,15.9757,15.9757,15.9543,15.9186,15.8402,15.7474,15.569,15.4477,15.3621,15.2408,15.1052,15.0279,15.0279,15.0279,15.0279,15.0564,15.1124,15.2337,15.3692,15.5048,14.7102,14.7036,14.5918,14.526,14.4668,14.2564,14.1249,14.0591,13.9539,13.8882,13.8684,13.8619,13.8619,13.8619,13.8619,13.8619,13.8619,13.8619,13.8619,13.8619,13.8619,13.8619,13.8619,13.8619,13.8619,13.8619,13.875,13.9342,14.0065,14.0723,14.1972,14.3945,14.5129,14.5786,14.6641,14.7365,14.7628,14.7233,14.7102,14.7102,14.7102,14.726,14.7537,14.806,14.8176,14.8448,14.8784,14.8874,14.8963,14.8963,14.8963,14.9075,14.9429,14.9781,15.0023,15.011,15.011,15.011,15.011,15.011,15.011,15.011,15.011,15.011,15.011,15.011,15.011,15.011,15.011,15.011,15.011,15.0562,15.1176,15.2177,15.2761,15.3413,15.451,15.5487,15.6362,15.728,15.8372,15.9757,15.9757,15.9757,15.9757,15.9757,15.9757,15.9757,15.9757,15.9757,15.9757,15.9757,15.9757,15.9757,15.9686,15.9686,15.9186,15.883,15.7973,15.7117,15.5619,15.3906,15.2622,15.1908,15.0778,15.0279,15.0279,15.0279,15.0279,15.035,15.085,15.1338,15.3121,15.4905,15.619,14.7102,14.7102,14.6904,14.6115,14.5063,14.4537,14.2959,14.1052,14.0526,13.9671,13.8816,13.8619,13.8619,13.8619,13.8619,13.8619,13.8619,13.8619,13.8619,13.8619,13.8619,13.8619,13.8619,13.8619,13.8619,13.8619,13.8619,13.8684,13.9342,14.0131,14.1052,14.2038,14.4734,14.6181,14.6247,14.7562,14.8548,14.7693,14.7496,14.7457,14.7391,14.7694,14.806,14.8514,14.8718,14.9075,14.9252,14.9518,14.9848,14.9848,14.9848,14.9936,14.9936,15.0023,15.011,15.011,15.011,15.011,15.011,15.011,15.011,15.011,15.011,15.011,15.011,15.011,15.011,15.011,15.011,15.011,15.0197,15.1092,15.2109,15.2854,15.3893,15.4586,15.5413,15.7487,15.851,15.9302,15.9495,15.9757,15.9757,15.9757,15.9757,15.9757,15.9757,15.9757,15.9757,15.9757,15.9757,15.9757,15.9757,15.9757,15.9543,15.94,15.8116,15.7403,15.6404,15.5262,15.3764,15.2693,15.198,15.0707,15.0279,15.0279,15.0279,15.0279,15.035,15.0564,15.1195,15.2337,15.4049,15.5976,15.7474,14.7102,14.7102,14.7102,14.6773,14.6115,14.5326,14.4274,14.2959,14.1512,14.0328,13.9671,13.8882,13.8619,13.8619,13.8619,13.8619,13.8619,13.8619,13.8619,13.8619,13.8619,13.8619,13.8619,13.8619,13.8619,13.8619,13.8619,13.8619,13.875,13.9342,14.0394,14.2038,14.3748,14.5458,14.7562,14.8745,14.9337,14.9206,14.9092,14.8657,14.8552,14.8523,14.8514,14.8694,14.9075,14.9518,14.9606,14.9869,15.0023,15.0023,15.0023,15.0023,15.011,15.011,15.011,15.011,15.011,15.011,15.011,15.011,15.011,15.011,15.011,15.011,15.011,15.011,15.011,15.011,15.011,15.0476,15.1345,15.2355,15.3649,15.4586,15.5855,15.6576,15.7487,15.8775,15.9757,15.9757,15.9757,15.9757,15.9757,15.9757,15.9757,15.9757,15.9757,15.9757,15.9757,15.9757,15.9757,15.9757,15.9757,15.9686,15.94,15.8758,15.7617,15.6404,15.5191,15.3478,15.2551,15.1908,15.1338,15.0778,15.0279,15.0279,15.0279,15.0279,15.0279,15.0778,15.1694,15.3264,15.4834,15.6546,15.8187,14.7102,14.7102,14.7102,14.7102,14.697,14.5984,14.5326,14.48,14.263,14.1446,14.0591,13.9605,13.8947,13.8619,13.8619,13.8619,13.8619,13.8619,13.8619,13.8619,13.8619,13.8619,13.8619,13.8619,13.8619,13.8619,13.8619,13.8619,13.8619,13.8882,13.9934,14.217,14.3353,14.5063,14.8154,14.9074,15.0455,15.0813,15.0399,14.9925,14.9688,14.9575,14.9273,14.8874,14.9653,15.0095,15.0157,15.011,15.011,15.011,15.011,15.011,15.011,15.011,15.011,15.011,15.011,15.011,15.011,15.011,15.011,15.011,15.011,15.011,15.011,15.011,15.011,15.011,15.011,15.0562,15.1596,15.2518,15.4357,15.6362,15.7487,15.8305,15.9366,15.9757,15.9757,15.9757,15.9757,15.9757,15.9757,15.9757,15.9757,15.9757,15.9757,15.9757,15.9757,15.9757,15.9757,15.9757,15.9757,15.9757,15.9543,15.9186,15.7617,15.6047,15.3835,15.1837,15.1694,15.1135,15.085,15.0493,15.0279,15.0279,15.0279,15.0279,15.0279,15.1124,15.1908,15.3478,15.5119,15.7046,15.8616,14.7102,14.7102,14.7102,14.7102,14.7102,14.697,14.6181,14.5195,14.4537,14.309,14.1249,14.0657,13.9737,13.8619,13.8684,13.8619,13.8619,13.8619,13.8619,13.8619,13.8619,13.8619,13.8619,13.8619,13.8619,13.8619,13.8619,13.8619,13.8619,13.8619,13.9539,14.1381,14.3616,14.5063,14.6838,14.9535,15.0521,15.0447,15.052,15.06,15.0758,15.0868,15.052,14.9875,15.083,15.0961,15.0291,15.011,15.011,15.011,15.011,15.009,15.0244,15.009,15.0177,15.0244,15.011,14.9909,14.9956,14.9775,14.9909,14.9688,14.9755,15.011,14.9688,14.9554,14.9487,14.9574,15.0023,14.9862,15.0635,15.2958,15.4976,15.693,15.8567,15.9366,15.9757,15.9757,15.9757,15.9757,15.9829,15.9757,15.9757,15.9757,15.99,16.1042,16.0471,16.0471,16.0328,15.9971,15.9757,15.9757,15.9757,15.9757,15.9615,15.94,15.7545,15.5833,15.355,15.148,15.1338,15.0778,15.0422,15.0279,15.0279,15.0279,15.0279,15.0279,15.0279,15.1052,15.2693,15.4049,15.5262,15.7117,15.883,14.7102,14.7102,14.7102,14.7102,14.7102,14.7102,14.6838,14.6181,14.5458,14.4274,14.309,14.1578,14.0394,13.9802,13.9013,13.8619,13.8619,13.8619,13.8619,13.8619,13.8619,13.8619,13.8619,13.8619,13.8619,13.8619,13.8619,13.8619,13.8619,13.8619,13.9934,14.1841,14.3156,14.5195,14.7299,14.9882,15.1125,15.2143,15.2268,15.2638,15.317,15.2634,15.17,15.1387,15.0806,15.0847,15.0244,15.011,15.011,15.011,15.009,15.0425,15.125,15.0646,15.0512,15.1317,14.9708,14.8903,14.8702,14.7879,14.7477,14.7477,14.741,14.741,14.7477,14.741,14.741,14.7629,14.741,14.7879,14.8929,15.0898,15.3618,15.6508,15.7994,15.8766,15.9686,15.9686,15.9757,15.9971,16.0542,16.1184,16.1113,16.204,16.2397,16.2255,16.147,16.1042,16.0827,16.0185,15.9757,15.9757,15.9757,15.9757,15.9686,15.8972,15.7331,15.6546,15.4477,15.1908,15.1266,15.0422,15.0279,15.0279,15.0279,15.0279,15.0279,15.0279,15.0279,15.1124,15.3478,15.4905,15.5761,15.7189,15.8758,14.7102,14.7102,14.7102,14.7102,14.7102,14.7102,14.7102,14.697,14.5984,14.5392,14.4603,14.2761,14.1775,14.1117,13.9868,13.9145,13.9079,13.8816,13.8619,13.8619,13.8619,13.8619,13.8619,13.8619,13.8619,13.8619,13.8619,13.8619,13.8619,13.8619,14.0065,14.2696,14.2959,14.4866,14.8351,14.9421,15.1219,15.2831,15.2786,15.3155,15.3687,15.2878,15.2235,15.1811,15.1253,15.0873,15.009,15.011,15.011,15.011,15.011,15.0559,15.1384,15.0713,15.0311,15.0579,14.9104,14.783,14.7294,14.6271,14.5668,14.5534,14.5869,14.5534,14.5534,14.5601,14.5787,14.6221,14.6288,14.7009,14.8479,15.0139,15.2319,15.5454,15.5903,15.6612,15.799,15.8901,15.94,15.9829,16.1184,16.2112,16.2611,16.3182,16.3396,16.3182,16.2255,16.1184,16.0756,16.0257,15.9757,15.9757,15.9757,15.9757,15.9472,15.8544,15.7759,15.7046,15.5119,15.2551,15.148,15.0636,15.035,15.0279,15.0279,15.0279,15.0279,15.0279,15.0279,15.0279,15.2337,15.3906,15.5191,15.6618,15.8116,14.7102,14.7102,14.7102,14.7102,14.7102,14.7102,14.7102,14.7102,14.697,14.6247,14.526,14.4405,14.3748,14.2564,14.0854,14.0197,14.0328,13.9211,13.8684,13.875,13.8619,13.8619,13.8619,13.8619,13.8619,13.8619,13.8619,13.8619,13.8619,13.8619,14.0065,14.2564,14.2893,14.4405,14.7102,14.8745,14.9723,15.0343,15.0388,15.06,15.1023,15.1923,15.1915,14.9875,15.1766,15.2012,15.027,14.9688,14.9755,14.9956,14.9708,14.9688,15.009,15.0177,14.9305,14.8501,14.8166,14.6977,14.6087,14.5484,14.535,14.5417,14.5417,14.5534,14.5568,14.5615,14.604,14.7086,14.7313,14.8067,14.9579,15.0963,15.202,15.2846,15.3381,15.4039,15.5219,15.676,15.7902,15.9329,16.1113,16.2469,16.3253,16.2611,16.2397,16.204,16.1113,16.0399,16.0114,16.0185,15.9829,15.9757,15.9757,15.9757,15.9757,15.8901,15.8259,15.726,15.5405,15.3478,15.2265,15.1338,15.0707,15.0422,15.0279,15.0279,15.0279,15.0279,15.0279,15.0493,15.1338,15.2337,15.3764,15.5333,15.676,14.7102,14.7102,14.7102,14.7102,14.7102,14.7102,14.7102,14.7102,14.7102,14.6904,14.6049,14.4537,14.3353,14.2498,14.0394,13.9474,13.9342,13.8882,13.9079,13.9737,13.9145,13.8619,13.8619,13.8619,13.8619,13.8619,13.8619,13.8619,13.8619,13.8684,14.0065,14.2367,14.2827,14.4274,14.697,14.8037,14.908,14.9898,15.0269,15.0943,15.1606,15.1724,15.1176,15.0427,15.063,15.0498,14.9606,14.806,14.7209,14.7209,14.7209,14.7745,14.8568,14.7812,14.7562,14.733,14.6304,14.4931,14.4342,14.4233,14.429,14.448,14.516,14.5689,14.5697,14.5697,14.5848,14.6523,14.6739,14.7236,14.8577,14.9434,15.0124,15.0999,15.2032,15.2985,15.358,15.5048,15.6261,15.7046,15.8402,15.9258,16.0185,16.0114,16.0756,16.0613,16.0114,15.9757,15.9757,15.9686,15.9757,15.9757,15.94,15.9258,15.9543,15.9186,15.8616,15.6974,15.5262,15.3764,15.2265,15.1195,15.0838,15.0493,15.0279,15.0279,15.0279,15.0279,15.0279,15.1052,15.1552,15.2194,15.2836,15.4263,15.5405,14.7102,14.7102,14.7102,14.7102,14.7102,14.7102,14.7102,14.7102,14.7102,14.7102,14.6773,14.5063,14.4142,14.3616,14.1775,14.0657,14.0591,14.0197,14.046,14.1117,14.046,13.9802,13.9408,13.9276,13.9079,13.8684,13.8619,13.8619,13.8619,13.8619,13.9802,14.1841,14.263,14.4142,14.6312,14.7247,14.809,14.904,14.9052,14.95,15.0229,14.95,14.8888,14.8761,14.8497,14.8164,14.7697,14.6349,14.5601,14.5601,14.5534,14.6003,14.674,14.6137,14.5936,14.6239,14.4472,14.3337,14.296,14.278,14.2779,14.3011,14.3743,14.4283,14.4358,14.4649,14.5302,14.5807,14.623,14.7132,14.8246,14.8663,14.9248,15.017,15.1338,15.1919,15.2123,15.2907,15.3978,15.4905,15.6475,15.7617,15.8259,15.8402,15.9115,15.9044,15.8473,15.8116,15.8187,15.7973,15.833,15.833,15.833,15.7902,15.7545,15.7117,15.6404,15.4977,15.4192,15.3193,15.1694,15.0636,15.0707,15.0636,15.035,15.0279,15.0279,15.0279,15.0279,15.0636,15.1124,15.1623,15.2194,15.3121,15.4192,14.7102,14.7102,14.7102,14.7102,14.7102,14.7102,14.7102,14.7102,14.7102,14.7102,14.7102,14.6904,14.6378,14.6444,14.4668,14.4668,14.434,14.3156,14.2696,14.2761,14.263,14.1841,14.0789,14.0591,13.9868,13.8882,13.8684,13.8619,13.8619,13.8684,13.9408,14.0854,14.2104,14.3419,14.4997,14.6115,14.7062,14.6865,14.5944,14.5352,14.5129,14.5352,14.5212,14.4799,14.5573,14.5594,14.4332,14.4975,14.5132,14.5266,14.5266,14.5467,14.5333,14.5266,14.4881,14.3808,14.3587,14.2781,14.1774,14.1869,14.2333,14.2414,14.1923,14.2818,14.3293,14.3834,14.4877,14.623,14.7395,14.8585,14.9733,15.0059,15.0109,15.0279,15.035,15.0564,15.0422,15.0422,15.148,15.4192,15.569,15.7831,15.8758,15.7759,15.676,15.6618,15.6047,15.5476,15.5547,15.5761,15.5466,15.5405,15.5904,15.6332,15.5761,15.5048,15.412,15.3407,15.2979,15.2479,15.0992,15.0422,15.0564,15.0564,15.0279,15.0279,15.0279,15.0279,15.0279,15.0279,15.0279,15.0695,15.1623,15.2551,15.3478,14.7102,14.7102,14.7102,14.7102,14.7102,14.7102,14.7102,14.7102,14.7102,14.7102,14.6904,14.6115,14.5721,14.5458,14.4208,14.4537,14.6181,14.4997,14.434,14.4208,14.3288,14.263,14.2038,14.1183,14.046,14.0,13.9079,13.8619,13.8619,13.8619,13.9342,14.0657,14.1117,14.2104,14.3353,14.4011,14.4208,14.4208,14.3814,14.3551,14.3551,14.3551,14.3468,14.3232,14.2437,14.1873,14.1748,14.2336,14.2735,14.2668,14.2668,14.2668,14.2668,14.2668,14.2467,14.2259,14.2925,14.3286,14.3011,14.4627,14.5803,14.5951,14.6715,14.7324,14.7391,14.7789,14.8251,14.8707,14.9344,14.9652,15.0148,15.0279,15.0279,15.0279,15.0279,15.0279,15.0279,15.0279,15.0778,15.1908,15.2622,15.2907,15.3121,15.2907,15.2836,15.2622,15.3264,15.3478,15.3692,15.4334,15.5181,15.5181,15.4905,15.4834,15.462,15.3193,15.1837,15.1694,15.1409,15.1124,15.035,15.0279,15.0279,15.0279,15.0279,15.0279,15.0279,15.0279,15.0279,15.0279,15.0279,15.0493,15.148,15.2265,15.305,14.7102,14.7102,14.7102,14.7102,14.7102,14.7102,14.7102,14.7102,14.7102,14.7102,14.697,14.6247,14.5786,14.5786,14.48,14.5392,14.697,14.6181,14.5786,14.5655,14.4866,14.4142,14.3616,14.2696,14.1907,14.0789,13.9802,13.9145,13.8684,13.8619,13.9342,14.0526,14.0723,14.1446,14.2564,14.2827,14.2827,14.2761,14.2301,14.2104,14.2104,14.1578,14.1315,14.1338,14.0257,13.9928,14.0349,14.0766,14.1096,14.126,14.126,14.1587,14.2016,14.2096,14.2335,14.2984,14.3759,14.4272,14.4525,14.6076,14.72,14.7321,14.8121,14.8315,14.8707,14.9086,14.9468,14.9529,14.9845,15.0279,15.0279,15.0279,15.0279,15.0279,15.0279,15.0279,15.0279,15.0279,15.0279,15.0279,15.0279,15.0279,15.0636,15.0279,15.0279,15.035,15.1195,15.1766,15.2051,15.2622,15.3193,15.3336,15.3336,15.3407,15.3336,15.1409,15.0279,15.0279,15.0279,15.0279,15.0279,15.0279,15.035,15.035,15.1195,15.1266,15.0624,15.0564,15.085,15.0707,15.0279,15.0636,15.1694,15.2265,15.2836,14.7102,14.7102,14.7102,14.7102,14.7102,14.7102,14.7102,14.7102,14.7102,14.7102,14.7102,14.7036,14.7102,14.7036,14.6904,14.7102,14.7102,14.7036,14.7036,14.697,14.697,14.6378,14.5195,14.4997,14.3616,14.1446,14.0986,14.0131,13.8882,13.8684,13.9342,14.0657,14.0723,14.1446,14.263,14.2827,14.2761,14.2498,14.1446,14.0723,14.0526,13.9474,13.9013,13.9079,13.9119,13.9768,14.026,14.0699,14.1132,14.1476,14.1923,14.2379,14.3369,14.3514,14.4121,14.5452,14.581,14.5881,14.595,14.6231,14.6369,14.623,14.6715,14.623,14.6919,14.7925,14.865,14.8321,14.9662,15.0279,15.0279,15.0279,15.0279,15.0279,15.0279,15.0279,15.0279,15.0279,15.0279,15.0279,15.0279,15.0279,15.0279,15.0279,15.0279,15.0279,15.0279,15.0422,15.0493,15.0422,15.0636,15.0636,15.0564,15.035,15.035,15.0279,15.0279,15.0279,15.0279,15.0279,15.0279,15.0279,15.0422,15.0767,15.1694,15.1837,15.1195,15.1124,15.148,15.1266,15.0778,15.0564,15.148,15.2123,15.2408,14.7102,14.7102,14.7102,14.7102,14.7102,14.7102,14.7102,14.7102,14.7102,14.7102,14.7102,14.7102,14.7102,14.7102,14.7102,14.7102,14.7102,14.7102,14.7102,14.7102,14.7102,14.697,14.6444,14.5523,14.4603,14.3814,14.2761,14.1578,14.0197,13.9211,13.9342,14.0526,14.0723,14.1446,14.2696,14.2827,14.2367,14.1381,14.0986,14.0263,13.9474,13.9802,14.0131,14.0131,14.057,14.1294,14.2615,14.426,14.4633,14.3771,14.6008,14.6527,14.4998,14.4913,14.5141,14.5805,14.6783,14.7462,14.7462,14.845,14.9023,14.9023,14.9023,14.9023,14.9157,14.9406,14.9723,14.9652,15.0027,15.0279,15.0279,15.0279,15.0279,15.0279,15.0279,15.0279,15.0279,15.0279,15.0279,15.0279,15.0279,15.0279,15.0279,15.0279,15.0279,15.0279,15.0279,15.0279,15.0279,15.0279,15.0279,15.0279,15.0279,15.0279,15.0279,15.0279,15.0279,15.0279,15.0279,15.0279,15.0279,15.0279,15.035,15.1552,15.2265,15.2622,15.2765,15.2408,15.2408,15.198,15.1195,15.0564,15.1409,15.1124,15.1338,14.5721,14.6247,14.6247,14.6641,14.7102,14.7102,14.7102,14.7102,14.7102,14.7102,14.7102,14.7102,14.7102,14.7102,14.7102,14.7102,14.7102,14.7102,14.7102,14.7102,14.7102,14.7102,14.7102,14.6247,14.5523,14.4931,14.4208,14.2959,14.1578,14.0197,14.0197,14.1446,14.0986,14.1775,14.3551,14.3156,14.217,14.0789,14.1315,14.1183,14.0526,14.1183,14.1578,14.1667,14.1845,14.2572,14.3564,14.4184,14.4227,14.3804,14.542,14.613,14.5372,14.5916,14.6637,14.7598,14.8515,14.9031,14.9031,14.9784,15.0279,15.0279,15.0279,15.0279,15.0279,15.0279,15.0279,15.0279,15.0279,15.0279,15.0279,15.0279,15.0279,15.0279,15.0279,15.0279,15.0279,15.0279,15.0279,15.0279,15.0279,15.0279,15.0279,15.0279,15.0279,15.0279,15.0279,15.0279,15.0279,15.0279,15.0279,15.0279,15.0279,15.0279,15.0279,15.0279,15.0279,15.0279,15.0279,15.0279,15.0279,15.0279,15.0838,15.2479,15.2693,15.3193,15.4192,15.3264,15.2479,15.1552,15.0767,15.0493,15.1552,15.0921,15.0886,14.3682,14.4734,14.4866,14.5589,14.6575,14.6641,14.6707,14.6904,14.6904,14.6904,14.6575,14.6707,14.6641,14.6773,14.6838,14.6904,14.6904,14.7102,14.7102,14.7102,14.7102,14.7102,14.7102,14.7102,14.6444,14.5392,14.526,14.4471,14.3025,14.1775,14.1709,14.2564,14.1709,14.2564,14.4734,14.3945,14.263,14.1183,14.2498,14.309,14.2893,14.2959,14.3025,14.2827,14.2959,14.3204,14.3519,14.2506,14.206,14.2347,14.3096,14.4016,14.5729,14.7133,14.8679,15.0404,15.0323,15.0301,15.0433,15.035,15.0279,15.0279,15.0279,15.0279,15.0279,15.0065,14.9994,14.9994,15.0136,15.0208,15.0279,15.0279,15.0279,15.0279,15.0279,15.035,15.0493,15.035,15.035,15.0422,15.0422,15.0279,15.0279,15.0279,15.0279,15.0279,15.0279,15.0279,15.0279,15.0279,15.0279,15.0279,15.0279,15.0279,15.0279,15.0279,15.0279,15.0279,15.0279,15.0279,15.0279,15.0279,15.0838,15.2337,15.2765,15.2907,15.3193,15.2765,15.2337,15.148,15.0707,15.0279,15.0279,15.0279,15.0517,14.309,14.3353,14.3353,14.3485,14.3814,14.3814,14.4471,14.5523,14.5523,14.4866,14.3945,14.3814,14.3814,14.3945,14.4997,14.5523,14.5655,14.6641,14.7102,14.7102,14.7102,14.7102,14.7102,14.7102,14.697,14.6707,14.6641,14.5918,14.4668,14.4208,14.3682,14.2959,14.3682,14.4931,14.6641,14.6312,14.5458,14.4274,14.5458,14.5129,14.2959,14.3945,14.3945,14.3025,14.3945,14.4101,14.3228,14.5084,14.5804,14.4967,14.7228,14.9005,14.9835,15.0202,15.1176,15.2635,15.1186,15.048,15.1562,15.08,15.0279,15.0279,15.0279,15.0208,15.0136,14.9197,14.8484,14.8555,14.9483,15.0136,15.0065,15.0208,15.0279,15.0279,15.0279,15.0707,15.1837,15.0992,15.0707,15.1837,15.0992,15.035,15.0279,15.0279,15.0279,15.0279,15.0279,15.0279,15.0279,15.0279,15.0279,15.0279,15.0279,15.0279,15.0279,15.0279,15.0279,15.0279,15.0279,15.0279,15.0279,15.0279,15.0981,15.2337,15.2765,15.305,15.412,15.3621,15.2622,15.1919,15.0921,15.0279,15.0279,15.0279,15.0386,14.1249,14.1841,14.1841,14.2235,14.2827,14.2827,14.3288,14.3945,14.3353,14.2959,14.2827,14.2827,14.2827,14.2893,14.3682,14.4011,14.4077,14.48,14.5195,14.526,14.5918,14.6181,14.6247,14.6838,14.7102,14.7102,14.7102,14.6773,14.5984,14.5326,14.4668,14.3945,14.4603,14.5721,14.7036,14.7102,14.6444,14.5063,14.6628,14.6482,14.4306,14.5146,14.4972,14.3585,14.4066,14.3713,14.2263,14.3228,14.3188,14.1749,14.4016,14.5868,14.7132,14.8244,14.9761,15.158,15.0409,14.9632,14.9823,14.9276,14.8734,14.8139,14.8068,14.8139,14.8198,14.7342,14.6842,14.6914,14.7627,14.8139,14.8139,14.884,14.9197,14.9197,14.9851,15.0981,15.2337,15.1908,15.2051,15.3407,15.305,15.2194,15.1552,15.1409,15.1266,15.035,15.0279,15.0279,15.0279,15.0279,15.0279,15.0279,15.0279,15.0279,15.0279,15.0279,15.0279,15.0279,15.0279,15.0279,15.0279,15.0279,15.0992,15.2408,15.2123,15.2408,15.3692,15.2765,15.1777,15.1431,15.0718,15.029,15.0099,15.0099,15.0208,13.9342,14.046,14.046,14.1183,14.2235,14.2235,14.2235,14.217,14.0986,14.1117,14.2235,14.2235,14.2235,14.2235,14.2433,14.2564,14.2564,14.2761,14.2827,14.2893,14.4142,14.4734,14.48,14.5984,14.651,14.651,14.651,14.6641,14.6707,14.5655,14.5129,14.5326,14.5326,14.5918,14.7036,14.7102,14.6575,14.5392,14.7217,14.758,14.6389,14.6879,14.6344,14.4639,14.4157,14.3099,14.0832,13.9662,13.8425,13.7238,13.8394,14.0139,14.253,14.4688,14.6712,14.877,14.8763,14.826,14.7323,14.7215,14.6879,14.5883,14.5585,14.53,14.4872,14.4956,14.5371,14.5928,14.6013,14.5928,14.5986,14.6985,14.7627,14.7699,14.8769,15.0267,15.1694,15.1837,15.2337,15.3835,15.4406,15.3621,15.2337,15.2194,15.1623,15.0564,15.0279,15.0279,15.0279,15.0279,15.0279,15.0279,15.0279,15.0279,15.0279,15.0279,15.0279,15.0279,15.0279,15.0279,15.0279,15.0279,15.0707,15.2133,15.1277,15.0992,15.1869,15.1075,15.0384,14.9998,15.012,15.0038,14.9856,14.9733,14.9856,13.875,13.9013,13.9013,13.9145,13.9342,13.9342,13.9408,13.9342,13.9079,0.0,0.0,13.9342,13.9408,13.9474,14.0591,14.1117,14.1183,14.2301,14.2827,14.2893,14.309,14.3222,14.3222,14.3485,14.3616,14.3616,14.3616,14.4208,14.5326,14.5195,14.5655,14.6641,14.6773,14.6904,14.7102,14.7102,14.7036,14.6865,14.8608,14.9426,14.9225,15.0568,14.9616,14.5887,14.5736,14.3339,13.8516,13.8034,13.7833,13.7802,13.839,14.0139,14.3379,14.4281,14.5591,14.7465,14.648,14.6463,14.7904,14.6969,14.6374,14.6648,14.5813,14.4023,14.1101,14.2166,14.4,14.6928,14.7213,14.7261,14.7426,14.67,14.5986,14.6058,14.6272,14.7057,14.8555,14.8769,14.9625,15.0838,15.1338,15.0992,15.091,15.0838,15.0493,15.0279,15.0279,15.0279,15.0279,15.0279,15.0279,15.0279,15.0279,15.0279,15.0279,15.035,15.0279,15.0493,15.0422,15.0279,15.0279,15.0279,15.029,15.076,15.0444,15.0323,15.0027,15.015,14.9794,14.9477,14.9415,14.9415,14.9352,14.9235,14.8968,13.7501,13.7567,13.829,13.8619,0.0,13.8619,13.783,13.6449,13.6449,13.6449,13.6449,13.6449,13.6843,13.7567,13.8224,13.8947,13.9671,14.0394,14.0723,14.0789,14.1446,14.1775,14.1775,14.2498,14.2827,14.2827,14.2827,14.3222,14.3945,14.3945,14.4726,14.6215,14.6215,14.6613,14.7277,14.7343,14.7322,14.7477,14.8539,14.8777,14.8038,14.8813,14.7634,14.4293,14.4678,0.0,0.0,0.0,0.0,0.0,0.0,0.0,0.0,14.1647,0.0,14.1506,14.115,14.0786,14.0414,14.0468,14.0499,14.0346,14.0122,13.894,13.6429,13.7819,13.9424,14.116,14.1489,14.2019,14.2904,14.3089,14.356,14.4345,14.513,14.62,14.7627,14.7984,14.8912,15.0981,15.0778,15.0564,15.1409,15.091,15.0279,15.0279,15.0279,15.0279,15.0279,15.0279,15.0279,15.0279,15.0279,15.0624,15.1277,15.1431,15.1523,15.2174,15.2265,15.214,15.214,15.214,15.2078,15.1953,15.2016,15.2078,15.1693,15.1117,15.0621,15.0298,14.9731,14.881,14.6735,14.6263,14.6397,13.6054,13.6186,13.7369,13.783,13.783,13.783,13.6449,13.4279,13.4279,13.4279,13.4279,13.4279,13.4936,13.5988,13.5988,13.6646,13.783,13.783,13.783,13.783,13.9013,13.9539,13.9605,14.0723,14.1381,14.1644,14.1644,14.2085,14.2902,14.2902,14.4,14.5753,14.5568,14.6172,14.75,0.0,0.0,0.0,14.8452,14.8126,14.6893,14.7315,14.6206,14.3489,14.3743,0.0,14.0327,14.0536,13.9652,13.7552,13.9338,0.0,0.0,0.0,0.0,0.0,0.0,0.0,0.0,0.0,0.0,0.0,13.3235,13.2613,13.1715,13.3427,13.4999,13.5623,13.6275,13.7012,13.7993,13.9214,14.0467,14.1963,14.3317,14.4743,14.6239,14.6667,14.7807,15.0575,15.0219,15.0279,15.1409,15.0981,15.0136,14.978,15.0065,15.0148,15.0099,15.0099,15.0099,15.0027,15.0027,15.0526,15.1941,15.1695,15.1723,15.3073,15.3246,15.2976,15.2763,15.2834,15.2912,15.2777,15.2989,15.2841,15.2223,15.1509,15.0234,14.9844,14.8841,14.7285,14.4381,14.3691,14.3935,13.4607,13.4607,13.4805,13.487,13.487,13.487,13.4673,13.4279,13.4279,13.4279,13.4279,13.4279,13.441,13.4607,13.4607,13.4673,13.487,13.487,13.487,13.487,13.5068,13.5133,13.5133,13.5331,13.6054,13.7238,13.7238,13.9351,14.3121,14.3205,14.4642,14.7255,14.6086,14.6221,14.7687,14.7929,14.7943,14.7733,14.9326,15.0073,14.994,15.1385,15.0831,14.8089,14.5537,14.3505,14.2224,13.843,13.6781,13.7826,13.7253,13.6923,13.6808,13.4714,13.3313,0.0,12.9642,0.0,0.0,0.0,0.0,0.0,0.0,0.0,0.0,13.075,13.3787,13.6762,13.8246,13.8706,13.7921,13.6715,13.6644,13.8134,13.856,13.9269,14.0759,14.2178,14.329,14.4023,14.6359,14.7973,14.8567,14.9625,14.9637,14.871,14.928,14.9611,14.9397,14.9202,14.9264,14.9415,14.9415,14.9406,14.9832,14.984,14.9991,15.0062,15.029,14.9857,15.0219,15.0149,14.9944,14.976,15.0029,14.9463,14.7334,14.7315,14.6743,14.5438,14.4592,14.3958,14.3339,14.3128,14.3935,13.3029,13.3095,13.395,13.3358,13.1846,13.1846,13.1846,13.1846,13.1846,13.1385,13.0662,13.0596,13.1122,13.1911,13.2635,13.349,13.4279,13.4279,13.4279,13.4279,13.4279,13.4279,13.4279,13.4279,13.5047,13.6491,13.6424,13.75,13.9436,13.9436,14.0588,14.2824,14.309,14.3233,14.3578,14.3859,14.4903,14.6712,14.839,14.9227,14.9135,14.8858,14.8204,14.7068,14.5711,14.4489,14.3235,14.1976,14.0802,13.9916,14.0124,13.8742,13.5146,13.3488,13.0985,0.0,0.0,0.0,0.0,0.0,0.0,0.0,0.0,0.0,0.0,0.0,13.1499,13.2953,13.5456,13.6055,13.3823,13.4631,13.5254,13.5112,13.5821,13.6601,13.731,13.8728,13.9779,14.0095,14.1231,14.3065,14.5671,14.5955,14.6453,14.8515,14.7804,14.6688,14.5736,14.6171,14.7022,14.7872,14.8014,14.8227,14.9219,14.988,15.0666,15.138,15.1463,15.1333,15.1333,15.1333,15.0985,15.0079,14.9932,14.9438,14.7698,14.6777,14.6002,14.4606,14.1649,13.8904,13.8552,13.8552,13.8673,13.1368,13.1517,13.1793,13.0874,12.9184,12.9184,12.9462,12.9873,12.9873,12.9084,12.7703,12.8032,12.8345,12.8724,12.9758,13.1071,13.2599,13.2599,13.288,13.3292,13.3292,13.3292,13.3292,13.3226,13.4025,13.53,13.5395,13.5755,13.6488,13.6311,13.7043,13.8693,13.9171,13.9012,13.8418,13.9493,14.1498,14.4631,14.6372,14.7321,14.7552,14.6579,14.595,14.5743,14.53,14.4658,14.3656,14.4062,14.3155,14.0941,14.0987,13.8587,13.2939,13.081,0.0,0.0,0.0,0.0,0.0,0.0,0.0,0.0,0.0,11.976,12.1099,0.0,12.8005,0.0,13.2319,13.348,13.1433,13.2932,0.0,0.0,13.3243,13.354,13.3965,13.5026,13.5862,13.6048,13.6615,13.8386,14.2048,14.2402,14.3559,14.6774,14.5571,14.366,14.182,14.3094,14.4641,14.4934,14.5288,14.5995,14.7128,14.8848,15.035,15.2044,15.1987,15.1858,15.1858,15.1646,15.0942,14.9816,14.9323,14.8408,14.6789,14.5381,14.4184,14.2987,13.8622,13.4527,13.4527,13.4598,13.4657,12.9659,12.9725,12.6564,12.6091,12.7332,12.7332,12.8282,12.9873,12.9873,12.9084,12.7834,12.9084,12.8052,12.5368,12.5095,0.0,12.7725,12.7725,12.8626,13.0202,13.0202,13.0202,13.0202,13.0267,13.1007,13.2358,13.2275,13.384,13.6433,13.5694,13.6234,13.7977,13.5155,13.3299,13.292,13.6078,13.8827,14.0823,14.2951,14.4753,14.6172,14.7451,14.7384,14.591,14.4491,14.3795,14.3583,14.0884,13.9293,13.9032,13.5688,13.2879,13.08,0.0,0.0,0.0,0.0,0.0,0.0,0.0,0.0,0.0,0.0,0.0,0.0,0.0,0.0,12.7358,13.0526,0.0,13.4034,13.1851,0.0,0.0,0.0,12.8681,13.0161,13.0372,13.0557,13.0769,0.0,0.0,13.6162,13.9849,14.2305,14.1985,14.2979,14.2627,13.9669,14.1712,14.2698,14.0224,14.0866,14.1782,14.2478,14.4599,14.6853,14.8332,14.8755,14.869,14.8619,14.7633,14.6653,14.6296,14.5169,14.3761,14.2213,14.0523,13.8692,13.6088,13.475,13.4316,13.4034,13.4034,13.4128,12.5438,12.3834,12.2406,12.2196,12.2942,12.3856,12.5273,12.7052,12.7823,12.6905,12.4822,12.5332,12.3863,12.0788,12.0631,0.0,0.0,0.0,12.5449,12.6986,12.8082,12.9018,12.9873,12.9873,13.0625,13.2131,13.2131,13.3194,13.5339,13.4944,13.2689,12.8663,0.0,12.483,12.7885,13.1271,13.4821,13.8618,14.191,14.3909,14.4542,14.5169,14.524,14.4542,14.3023,14.2259,14.2157,14.0185,13.7907,13.5442,13.2739,12.919,0.0,0.0,0.0,0.0,0.0,0.0,0.0,0.0,0.0,0.0,0.0,11.4923,11.5583,0.0,0.0,0.0,12.5135,12.6794,12.7428,12.8906,0.0,0.0,0.0,0.0,0.0,0.0,0.0,12.5833,13.0134,13.3646,13.4809,13.6562,13.7574,13.7274,13.7707,13.7707,13.644,0.0,13.834,13.8904,13.8763,13.9256,14.1016,14.1579,14.2283,14.3832,14.4888,14.5451,14.5521,14.5029,14.3973,14.2283,14.1297,14.01,13.7636,13.5172,13.299,13.1863,13.0174,12.8906,12.8836,12.8906,12.8949,12.0611,0.0,0.0,0.0,0.0,11.9809,12.1283,12.3115,12.4554,12.3493,12.0814,12.1272,0.0,0.0,0.0,0.0,0.0,0.0,12.2854,12.4452,12.6688,12.8032,12.8623,12.8461,12.9041,13.008,13.0157,13.0707,13.1701,13.1329,12.7776,12.1359,0.0,0.0,0.0,0.0,13.0735,13.5477,13.9655,14.1992,14.2413,14.2413,14.2623,14.3044,14.1565,14.059,14.0422,13.8288,13.5604,13.2171,12.8763,0.0,0.0,0.0,0.0,0.0,0.0,0.0,0.0,0.0,0.0,0.0,0.0,0.0,0.0,0.0,0.0,0.0,0.0,0.0,12.2148,12.5598,12.6442,0.0,0.0,0.0,0.0,0.0,0.0,0.0,0.0,0.0,13.2356,13.333,13.4034,0.0,0.0,13.5313,13.4046,13.4609,13.5514,13.6228,13.5876,0.0,13.7848,13.7848,13.82,13.9819,14.1297,14.2353,14.2353,14.1227,13.9678,13.7496,13.7003,13.5535,13.1266,12.8397,12.7062,12.6781,12.5164,12.3688,12.3618,12.3618,12.3618,0.0,0.0,0.0,0.0,11.5123,0.0,0.0,0.0,11.9719,11.8676,0.0,11.7438,0.0,0.0,0.0,0.0,11.5395,11.8574,0.0,0.0,12.6031,12.6979,12.5651,12.5332,12.5107,12.5187,12.5267,12.5201,12.5164,12.3631,12.1443,0.0,0.0,0.0,0.0,0.0,12.6734,13.0558,13.5013,13.7898,13.9284,13.9284,14.0048,14.1505,14.005,13.8926,13.8043,13.4285,13.1539,13.005,12.2823,0.0,0.0,0.0,0.0,0.0,0.0,0.0,0.0,0.0,0.0,0.0,0.0,0.0,0.0,0.0,0.0,0.0,0.0,0.0,0.0,12.2077,0.0,0.0,0.0,0.0,0.0,0.0,0.0,0.0,0.0,12.771,12.778,13.0315,13.2779,13.4246,0.0,0.0,0.0,0.0,13.5172,13.0948,13.1441,13.1934,13.0596,13.2708,13.5102,13.6651,0.0,0.0,13.9115,13.5524,13.2579,13.2427,13.2298,12.979,12.1912,12.0526,12.0316,12.0246,12.0036,11.9841,11.9841,11.9686,11.9826,0.0,0.0,0.0,0.0,0.0,0.0,0.0,0.0,0.0,11.1653,10.9965,11.0493,0.0,0.0,0.0,0.0,0.0,0.0,0.0,0.0,11.8896,12.0761,12.1925,12.1912,12.1767,12.1833,12.1833,11.9719,0.0,0.0,0.0,0.0,0.0,0.0,0.0,0.0,12.5235,12.987,13.4603,13.7277,13.7762,13.7762,13.804,13.8525,13.804,13.6649,13.4216,13.0823,12.6932,0.0,0.0,0.0,0.0,0.0,0.0,0.0,0.0,0.0,0.0,0.0,0.0,0.0,0.0,0.0,0.0,0.0,0.0,0.0,0.0,0.0,0.0,0.0,12.0509,0.0,0.0,0.0,0.0,0.0,0.0,0.0,0.0,0.0,12.3971,12.5865,12.8096,13.0728,13.1208,13.1126,13.0679,0.0,0.0,0.0,0.0,0.0,0.0,0.0,13.1067,13.0576,13.0751,13.1204,13.2256,13.0223,12.8249,12.7267,0.0,0.0,11.9141,11.8247,11.7898,11.6903,11.587,11.4891,11.3964,11.4471,11.517,0.0,0.0,0.0,0.0,0.0,0.0,0.0,0.0,0.0,10.5388,10.3707,0.0,0.0,0.0,0.0,0.0,0.0,0.0,0.0,0.0,0.0,0.0,11.6515,11.6817,0.0,0.0,0.0,0.0,0.0,0.0,0.0,0.0,0.0,0.0,0.0,0.0,12.3796,12.8417,13.3574,13.6395,13.6257,13.6326,13.605,13.5567,13.5567,13.3915,13.0617,0.0,0.0,0.0,0.0,0.0,0.0,0.0,0.0,0.0,0.0,0.0,0.0,0.0,0.0,0.0,0.0,0.0,0.0,0.0,0.0,0.0,0.0,0.0,0.0,0.0,11.6539,0.0,0.0,0.0,0.0,0.0,0.0,0.0,0.0,0.0,0.0,12.2303,12.4655,12.7279,12.8237,12.8914,12.9579,13.0071,13.0973,0.0,0.0,0.0,0.0,0.0,0.0,0.0,0.0,0.0,0.0,0.0,0.0,0.0,0.0,11.6163,11.4145,11.3325,11.2629,11.1639,0.0,0.0,0.0,0.0,0.0,0.0,0.0,0.0,0.0,0.0,0.0,0.0,0.0,0.0,0.0,9.7361,0.0,0.0,9.3499,0.0,0.0,0.0,0.0,0.0,0.0,0.0,0.0,0.0,0.0,0.0,0.0,0.0,0.0,0.0,0.0,0.0,0.0,0.0,0.0,0.0,0.0,12.2254,12.5986,13.1962,13.4927,13.4927,13.4927,13.4176,13.274,13.2535,13.0962,12.755,0.0,0.0,0.0,0.0,0.0,0.0,0.0,0.0,0.0,0.0,0.0,0.0,0.0,0.0,0.0,0.0,0.0,0.0,0.0,0.0,0.0,0.0,0.0,0.0,0.0,0.0,11.3003,11.7133,12.0013,0.0,0.0,0.0,0.0,0.0,0.0,0.0,0.0,0.0,12.4051,12.8401,13.0762,12.9417,13.047,13.088,13.0046,12.9604,12.8856,12.7794,12.7569,12.7386,0.0,0.0,0.0,0.0,0.0,0.0,0.0,0.0,0.0,0.0,0.0,0.0,0.0,0.0,0.0,0.0,0.0,0.0,0.0,0.0,0.0,0.0,0.0,0.0,0.0,0.0,0.0,0.0,0.0,0.0,0.0,0.0,0.0,0.0,0.0,0.0,0.0,0.0,0.0,0.0,0.0,0.0,0.0,0.0,0.0,0.0,0.0,0.0,0.0,0.0,0.0,0.0,0.0,0.0,12.2182,12.5986,13.1822,13.4855,13.4855,13.3832,13.3081,13.2535,13.0556,12.7826,0.0,0.0,0.0,0.0,0.0,0.0,0.0,0.0,0.0,0.0,0.0,0.0,0.0,0.0,0.0,0.0,0.0,0.0,0.0,0.0,0.0,0.0,0.0,0.0,0.0,0.0,0.0,0.0,11.6836,11.8048,11.6942,0.0,0.0,0.0,0.0,0.0,0.0,0.0,0.0,0.0,0.0,12.4349,12.7325,12.7242,12.7452,12.9182,12.9347,12.8786,12.7426,12.6871,12.5869,12.3759,0.0,0.0,0.0,0.0,0.0,0.0,0.0,0.0,0.0,0.0,0.0,0.0,0.0,0.0,0.0,0.0,0.0,0.0,0.0,0.0,0.0,0.0,0.0,0.0,0.0,0.0,0.0,0.0,0.0,0.0,0.0,0.0,0.0,0.0,0.0,0.0,0.0,0.0,0.0,0.0,0.0,0.0,0.0,0.0,0.0,0.0,0.0,0.0,0.0,0.0,0.0,0.0,0.0,12.0642,12.5046,13.0939,13.3968,13.3968,13.3081,13.2057,13.0897,12.8508,12.5304,0.0,0.0,0.0,0.0,0.0,0.0,0.0,0.0,0.0,0.0,0.0,0.0,0.0,0.0,0.0,0.0,0.0,0.0,0.0,0.0,0.0,0.0,0.0,0.0,0.0,0.0,0.0,0.0,11.3317,11.4647,11.4314,0.0,0.0,0.0,0.0,0.0,0.0,0.0,0.0,0.0,0.0,12.0371,12.3447,12.4076,0.0,0.0,12.7058,12.665,12.5985,12.5368,12.4028,12.1138,11.8732,0.0,0.0,0.0,0.0,0.0,0.0,0.0,0.0,0.0,0.0,0.0,0.0,0.0,0.0,0.0,0.0,0.0,0.0,0.0,0.0,0.0,0.0,0.0,0.0,0.0,0.0,0.0,0.0,0.0,0.0,0.0,0.0,0.0,0.0,0.0,0.0,0.0,0.0,0.0,0.0,0.0,0.0,0.0,0.0,0.0,0.0,0.0,0.0,0.0,0.0,0.0,0.0,11.803,12.3372,12.9446,13.2535,13.2467,13.233,13.0897,12.8031,12.612,12.2856,0.0,0.0,0.0,0.0,0.0,0.0,0.0,0.0,0.0,0.0,0.0,0.0,0.0,0.0,0.0,0.0,0.0,0.0,0.0,0.0,0.0,0.0,0.0,0.0,0.0,0.0,0.0,0.0,0.0,0.0,0.0,0.0,0.0,0.0,0.0,0.0,0.0,0.0,0.0,0.0,0.0,11.8189,11.8698,12.1045,12.2898,0.0,12.3155,12.3037,12.3332,12.3155,12.1947,11.9172,0.0,0.0,0.0,0.0,0.0,0.0,0.0,0.0,0.0,0.0,0.0,0.0,0.0,0.0,0.0,0.0,0.0,0.0,0.0,0.0,0.0,0.0,0.0,0.0,0.0,0.0,0.0,0.0,0.0,0.0,0.0,0.0,0.0,0.0,0.0,0.0,0.0,0.0,0.0,0.0,0.0,0.0,0.0,0.0,0.0,0.0,0.0,0.0,0.0,0.0,0.0,0.0,0.0,0.0,12.0484,12.8428,13.2057,13.0897,12.9737,12.8304,12.6393,12.1615,0.0,0.0,0.0,0.0,0.0,0.0,0.0,0.0,0.0,0.0,0.0,0.0,0.0,0.0,0.0,0.0,0.0,0.0,0.0,0.0,0.0,0.0,0.0,0.0,0.0,0.0,0.0,9.9578,0.0,0.0,0.0,0.0,0.0,0.0,0.0,0.0,0.0,0.0,0.0,0.0,0.0,0.0,11.5779,11.812,11.812,11.8327,0.0,0.0,11.9632,11.9749,11.9385,11.8931,0.0,0.0,0.0,0.0,0.0,0.0,0.0,0.0,0.0,0.0,0.0,0.0,0.0,0.0,0.0,0.0,0.0,0.0,0.0,0.0,0.0,0.0,0.0,0.0,0.0,0.0,0.0,0.0,0.0,0.0,0.0,0.0,0.0,0.0,0.0,0.0,0.0,0.0,0.0,0.0,0.0,0.0,0.0,0.0,0.0,0.0,0.0,0.0,0.0,0.0,0.0,0.0,0.0,0.0,11.442,11.9136,12.5302,12.8439,12.8235,12.7485,12.6051,12.3868,11.9295,11.5777,0.0,0.0,0.0,0.0,0.0,0.0,0.0,0.0,0.0,0.0,0.0,0.0,0.0,0.0,0.0,0.0,0.0,0.0,0.0,0.0,0.0,0.0,0.0,0.0,0.0,0.0,0.0,0.0,0.0,0.0,0.0,0.0,0.0,0.0,0.0,0.0,0.0,0.0,0.0,0.0,0.0,0.0,11.5592,11.5189,0.0,0.0,0.0,11.6901,11.6901,0.0,0.0,0.0,0.0,0.0,0.0,0.0,0.0,0.0,0.0,0.0,0.0,0.0,0.0,0.0,0.0,0.0,0.0,0.0,0.0,0.0,0.0,0.0,0.0,0.0,0.0,0.0,0.0,0.0,0.0,0.0,0.0,0.0,0.0,0.0,0.0,0.0,0.0,0.0,0.0,0.0,0.0,0.0,0.0,0.0,0.0,0.0,0.0,0.0,0.0,0.0,0.0,0.0,0.0,0.0,0.0,0.0,11.7786,12.1035,12.34,12.5098,12.5096,12.3731,12.1069,11.8135,11.5573,0.0,0.0,0.0,0.0,0.0,0.0,0.0,0.0,0.0,0.0,0.0,0.0,0.0,0.0,0.0,0.0,0.0,0.0,0.0,0.0,0.0,0.0,0.0,0.0,0.0,0.0,0.0,0.0,0.0,0.0,0.0,0.0,0.0,0.0,0.0,0.0,0.0,0.0,0.0,0.0,0.0,11.0404,11.2211,11.2338,11.2201,0.0,0.0,11.4256,11.4393,11.4153,0.0,0.0,0.0,0.0,0.0,0.0,0.0,0.0,0.0,0.0,0.0,0.0,0.0,0.0,0.0,0.0,0.0,0.0,0.0,0.0,0.0,0.0,0.0,0.0,0.0,0.0,0.0,0.0,0.0,0.0,0.0,0.0,0.0,0.0,0.0,0.0,0.0,0.0,0.0,0.0,0.0,0.0,0.0,0.0,0.0,0.0,0.0,0.0,0.0,0.0,0.0,0.0,0.0,0.0,0.0,0.0,11.3441,11.7386,12.0337,12.2025,12.1069,12.0182,11.9568,11.6702,11.3952,0.0,0.0,0.0,0.0,0.0,0.0,0.0,0.0,0.0,0.0,0.0,0.0,0.0,0.0,0.0,0.0,0.0,0.0,0.0,0.0,0.0,0.0,0.0,0.0,0.0,0.0,0.0,0.0,0.0,0.0,0.0,0.0,0.0,0.0,0.0,0.0,0.0,0.0,0.0,0.0,0.0,10.8853,11.0345,10.9594,0.0,0.0,0.0,0.0,11.0882,11.0072,0.0,0.0,0.0,0.0,0.0,0.0,0.0,0.0,0.0,0.0,0.0,0.0,0.0,0.0,0.0,0.0,0.0,0.0,0.0,0.0,0.0,0.0,0.0,0.0,0.0,0.0,0.0,0.0,0.0,0.0,0.0,0.0,0.0,0.0,0.0,0.0,0.0,0.0,0.0,0.0,0.0,0.0,0.0,0.0,0.0,0.0,0.0,0.0,0.0,0.0,0.0,0.0,0.0,0.0,0.0,0.0,11.0706,11.4226,11.7364,12.0114,11.95,11.8817,11.7998,11.5883,11.3414,0.0,0.0,0.0,0.0,0.0,0.0,0.0,0.0,0.0,0.0,0.0,0.0,0.0,0.0,0.0,0.0,0.0,0.0,0.0,0.0,0.0,0.0,0.0,0.0,0.0,0.0,0.0,0.0,0.0,0.0,0.0,0.0,0.0,0.0,0.0,0.0,0.0,0.0,0.0,0.0,10.5714,10.626,10.7693,0.0,0.0,0.0,0.0,0.0,0.0,10.7761,10.6738,0.0,0.0,0.0,0.0,0.0,0.0,0.0,0.0,0.0,0.0,0.0,0.0,0.0,0.0,0.0,0.0,0.0,0.0,0.0,0.0,0.0,0.0,0.0,0.0,0.0,0.0,0.0,0.0,0.0,0.0,0.0,0.0,0.0,0.0,0.0,0.0,0.0,0.0,0.0,0.0,0.0,0.0,0.0,0.0,0.0,0.0,0.0,0.0,0.0,0.0,0.0,0.0,0.0,0.0,0.0,10.8448,11.1088,11.427,11.8145,11.8408,11.793,11.6838,11.5343,11.3081,10.986,0.0,0.0,0.0,0.0,0.0,0.0,0.0,0.0,0.0,0.0,0.0,0.0,0.0,0.0,0.0,0.0,0.0,0.0,0.0,0.0,0.0,0.0,0.0,0.0,0.0,0.0,0.0,0.0,0.0,0.0,0.0,0.0,0.0,0.0,0.0,0.0,0.0,0.0,0.0,10.2848,10.353,0.0,0.0,0.0,0.0,0.0,0.0,0.0,0.0,10.469,0.0,0.0,0.0,0.0,0.0,0.0,0.0,0.0,0.0,0.0,0.0,0.0,0.0,0.0,0.0,0.0,0.0,0.0,0.0,0.0,0.0,0.0,0.0,0.0,0.0,0.0,0.0,0.0,0.0,0.0,0.0,0.0,0.0,0.0,0.0,0.0,0.0,0.0,0.0,0.0,0.0,0.0,0.0,0.0,0.0,0.0,0.0,0.0,0.0,0.0,0.0,0.0,0.0,0.0,0.0,0.0,10.7755,11.1169,11.47,11.5214,11.5814,11.677,11.509,11.1569,10.6037,0.0,0.0,0.0,0.0,0.0,0.0,0.0,0.0,0.0,0.0,0.0,0.0,0.0,0.0,0.0,0.0,0.0,0.0,0.0,0.0,0.0,0.0,0.0,0.0,0.0,0.0,0.0,0.0,0.0,0.0,0.0,0.0,0.0,0.0,0.0,0.0,0.0,0.0,9.9625,10.0664,0.0,0.0,0.0,0.0,0.0,0.0,0.0,0.0,10.196,0.0,0.0,0.0,0.0,0.0,0.0,0.0,0.0,0.0,0.0,0.0,0.0,0.0,0.0,0.0,0.0,0.0,0.0,0.0,0.0,0.0,0.0,0.0,0.0,0.0,0.0,0.0,0.0,0.0,0.0,0.0,0.0,0.0,0.0,0.0,0.0,0.0,0.0,0.0,0.0,0.0,0.0,0.0,0.0,0.0,0.0,0.0,0.0,0.0,0.0,0.0,0.0,0.0,0.0,0.0,0.0,0.0,0.0,10.9928,11.3458,11.4841,11.5499,11.5232,11.0806,10.6841,0.0,0.0,0.0,0.0,0.0,0.0,0.0,0.0,0.0,0.0,0.0,0.0,0.0,0.0,0.0,0.0,0.0,0.0,0.0,0.0,0.0,0.0,0.0,0.0,0.0,0.0,0.0,0.0,0.0,0.0,0.0,0.0,0.0,0.0,0.0,0.0,0.0,0.0,0.0,0.0,0.0,0.0,0.0,0.0,0.0,0.0,0.0,0.0,0.0,0.0,0.0,0.0,0.0,0.0,0.0,0.0,0.0,0.0,0.0,0.0,0.0,0.0,0.0,0.0,0.0,0.0,0.0,0.0,0.0,0.0,0.0,0.0,0.0,0.0,0.0,0.0,0.0,0.0,0.0,0.0,0.0,0.0,0.0,0.0,0.0,0.0,0.0,0.0,0.0,0.0,0.0,0.0,0.0,0.0,0.0,0.0,0.0,0.0,0.0,0.0,0.0,0.0,0.0,0.0,0.0,0.0,0.0,0.0,10.8567,11.1283,11.3687,11.4477,11.337,10.659,10.2125,0.0,0.0,0.0,0.0,0.0,0.0,0.0,0.0,0.0,0.0,0.0,0.0,0.0,0.0,0.0,0.0,0.0,0.0,0.0,0.0,0.0,0.0,0.0,0.0,0.0,0.0,0.0,0.0,0.0,0.0,0.0,0.0,0.0,0.0,0.0,0.0,0.0,0.0,0.0,0.0,0.0,0.0,0.0,0.0,0.0,0.0,0.0,0.0,9.5733,0.0,0.0,0.0,0.0,0.0,0.0,0.0,0.0,0.0,0.0,0.0,0.0,0.0,0.0,0.0,0.0,0.0,0.0,0.0,0.0,0.0,0.0,0.0,0.0,0.0,0.0,0.0,0.0,0.0,0.0,0.0,0.0,0.0,0.0,0.0,0.0,0.0,0.0,0.0,0.0,0.0,0.0,0.0,0.0,0.0,0.0,0.0,0.0,0.0,0.0,0.0,0.0,0.0,0.0,0.0,0.0,0.0,0.0,0.0,10.5675,10.5337,10.8913,11.0974,11.0991,10.5195,9.9573,0.0,0.0,0.0,0.0,0.0,0.0,0.0,0.0,0.0,0.0,0.0,0.0,0.0,0.0,0.0,0.0,0.0,0.0,0.0,0.0,0.0,0.0,0.0,0.0,0.0,0.0,0.0,0.0,0.0,0.0,0.0,0.0,0.0,0.0,0.0,0.0,0.0,0.0,0.0,0.0,0.0,0.0,0.0,0.0,0.0,0.0,0.0,0.0,0.0,0.0,0.0,0.0,0.0,0.0,0.0,0.0,0.0,0.0,0.0,0.0,0.0,0.0,0.0,0.0,0.0,0.0,0.0,0.0,0.0,0.0,0.0,0.0,0.0,0.0,0.0,0.0,0.0,0.0,0.0,0.0,0.0,0.0,0.0,0.0,0.0,0.0,0.0,0.0,0.0,0.0,0.0,0.0,0.0,0.0,0.0,0.0,0.0,0.0,0.0,0.0,0.0,0.0,0.0,0.0,0.0,0.0,0.0,0.0,10.2455,10.4158,10.7192,10.7124,10.3819,9.8605,9.4916,0.0,0.0,0.0,0.0,0.0,0.0,0.0,0.0,0.0,0.0,0.0,0.0,0.0,0.0,0.0,0.0,0.0,0.0,0.0,0.0,0.0,0.0,0.0,0.0,0.0,0.0,0.0,0.0,0.0,0.0,0.0,0.0,0.0,0.0,0.0,0.0,0.0,0.0,0.0,0.0,0.0,0.0,0.0,0.0,0.0,0.0,0.0,0.0,0.0,0.0,0.0,0.0,0.0,0.0,0.0,0.0,0.0,0.0,0.0,0.0,0.0,0.0,0.0,0.0,0.0,0.0,0.0,0.0,0.0,0.0,0.0,0.0,0.0,0.0,0.0,0.0,0.0,0.0,0.0,0.0,0.0,0.0,0.0,0.0,0.0,0.0,0.0,0.0,0.0,0.0,0.0,0.0,0.0,0.0,0.0,0.0,0.0,0.0,0.0,0.0,0.0,0.0,0.0,0.0,0.0,0.0,0.0,0.0,0.0,10.1539,10.3303,10.1861,9.7048,9.3493,9.1311,0.0,0.0,0.0,0.0,0.0,0.0,0.0,0.0,0.0,0.0,0.0,0.0,0.0,0.0,0.0,0.0,0.0,0.0,0.0,0.0,0.0,0.0,0.0,0.0,0.0,0.0,0.0,0.0,0.0,0.0,0.0,0.0,0.0,0.0,0.0,0.0,0.0,0.0,0.0,0.0,0.0,0.0,0.0,0.0,0.0,0.0,0.0,0.0,0.0,0.0,0.0,0.0,0.0,0.0,0.0,0.0,0.0,0.0,0.0,0.0,0.0,0.0,0.0,0.0,0.0,0.0,0.0,0.0,0.0,0.0,0.0,0.0,0.0,0.0,0.0,0.0,0.0,0.0,0.0,0.0,0.0,0.0,0.0,0.0,0.0,0.0,0.0,0.0,0.0,0.0,0.0,0.0,0.0,0.0,0.0,0.0,0.0,0.0,0.0,0.0,0.0,0.0,0.0,0.0,0.0,0.0,0.0,0.0,0.0,9.5359,9.5097,9.4327,9.2727,9.2016,8.9462,0.0,0.0,0.0,0.0,0.0,0.0,0.0,0.0,0.0,0.0,0.0,0.0,0.0,0.0,0.0,0.0,0.0,0.0,0.0,0.0,0.0,0.0,0.0,0.0,0.0,0.0,0.0,0.0,0.0,0.0,0.0,0.0,0.0,0.0,0.0,0.0,0.0,0.0,0.0,0.0,0.0,0.0,0.0,0.0,0.0,0.0,0.0,0.0,0.0,0.0,0.0,0.0,0.0,0.0,0.0,0.0,0.0,0.0,0.0,0.0,0.0,0.0,0.0,0.0,0.0,0.0,0.0,0.0,0.0,0.0,0.0,0.0,0.0,0.0,0.0,0.0,0.0,0.0,0.0,0.0,0.0,0.0,0.0,0.0,0.0,0.0,0.0,0.0,0.0,0.0,0.0,0.0,0.0,0.0,0.0,0.0,0.0,0.0,0.0,0.0,0.0,0.0,0.0,0.0,0.0,0.0,0.0,0.0,0.0,8.9716,8.9459,8.9207,8.8702,8.7691,8.6109,8.3712,0.0,0.0,0.0,0.0,0.0,0.0,0.0,0.0,0.0,0.0,0.0,0.0,0.0,0.0,0.0,0.0,0.0,0.0,0.0,0.0,0.0,0.0,0.0,0.0,0.0,0.0,0.0,0.0,0.0,0.0,0.0,0.0,0.0,0.0,0.0,0.0,0.0,0.0,0.0,0.0,0.0,0.0,0.0,0.0,0.0,0.0,0.0,0.0,0.0,0.0,0.0,0.0,0.0,0.0,0.0,0.0,0.0,0.0,0.0,0.0,0.0,0.0,0.0,0.0,0.0,0.0,0.0,0.0,0.0,0.0,0.0,0.0,0.0,0.0,0.0,0.0,0.0,0.0,0.0,0.0,0.0,0.0,0.0,0.0,0.0,0.0,0.0,0.0,0.0,0.0,0.0,0.0,0.0,0.0,0.0,0.0,0.0,0.0,0.0,0.0,0.0,0.0,0.0,0.0,0.0,0.0,0.0,0.0,8.6025,8.6025,8.5838,8.5405,8.4595,8.3654,0.0,0.0,0.0,0.0,0.0,0.0,0.0,0.0,0.0,0.0,0.0,0.0,0.0,0.0,0.0,0.0,0.0,0.0,0.0,0.0,0.0,0.0,0.0,0.0,0.0,0.0,0.0,0.0,0.0,0.0,0.0,0.0,0.0,0.0,0.0,0.0,0.0,0.0,0.0,0.0,0.0,0.0,0.0,0.0,0.0,0.0,0.0,0.0,0.0,0.0,0.0,0.0,0.0,0.0,0.0,0.0,0.0,0.0,0.0,0.0,0.0,0.0,0.0,0.0,0.0,0.0,0.0,0.0,0.0,0.0,0.0,0.0,0.0,0.0,0.0,0.0,0.0,0.0,0.0,0.0,0.0,0.0,0.0,0.0,0.0,0.0,0.0,0.0,0.0,0.0,0.0,0.0,0.0,0.0,0.0,0.0,0.0,0.0,0.0,0.0,0.0,0.0,0.0,0.0,0.0,0.0,0.0,0.0,8.3733,8.4896,8.4896,8.4287,8.3119,8.2996,8.2319,0.0,0.0,0.0,0.0,0.0,0.0,0.0,0.0,0.0,0.0,0.0,0.0,0.0,0.0,0.0,0.0,0.0,0.0,0.0,0.0,0.0,0.0,0.0,0.0,0.0,0.0,0.0,0.0,0.0,0.0,0.0,0.0,0.0,0.0,0.0,0.0,0.0,0.0,0.0,0.0,0.0,0.0,0.0,0.0,0.0,0.0,0.0,0.0,0.0,0.0,0.0,0.0,0.0,0.0,0.0,0.0,0.0,0.0,0.0,0.0,0.0,0.0,0.0,0.0,0.0,0.0,0.0,0.0,0.0,0.0,0.0,0.0,0.0,0.0,0.0,0.0,0.0,0.0,0.0,0.0,0.0,0.0,0.0,0.0,0.0,0.0,0.0,0.0,0.0,0.0,0.0,0.0,0.0,0.0,0.0,0.0,0.0,0.0,0.0,0.0,0.0,0.0,0.0,0.0,0.0,0.0,0.0,0.0,0.0,8.2193,8.2193,8.2009,8.1582,8.1517,8.1333,0.0,0.0,0.0,0.0,0.0,0.0,0.0,0.0,0.0,0.0,0.0,0.0,0.0,0.0,0.0,0.0,0.0,0.0,0.0,0.0,0.0,0.0,0.0,0.0,0.0,0.0,0.0,0.0,0.0,0.0,0.0,0.0,0.0,0.0,0.0,0.0,0.0,0.0,0.0,0.0,0.0,0.0,0.0,0.0,0.0,0.0,0.0,0.0,0.0,0.0,0.0,0.0,0.0,0.0,0.0,0.0,0.0,0.0,0.0,0.0,0.0,0.0,0.0,0.0,0.0,0.0,0.0,0.0,0.0,0.0,0.0,0.0,0.0,0.0,0.0,0.0,0.0,0.0,0.0,0.0,0.0,0.0,0.0,0.0,0.0,0.0,0.0,0.0,0.0,0.0,0.0,0.0,0.0,0.0,0.0,0.0,0.0,0.0,0.0,0.0,0.0,0.0,0.0,0.0,0.0,0.0,0.0,0.0,0.0,8.0841,8.0841,8.0841,8.0841,8.0841,8.0841,0.0,0.0,0.0,0.0,0.0,0.0,0.0,0.0,0.0,0.0,0.0,0.0,0.0,0.0,0.0,0.0,0.0,0.0,0.0,0.0,0.0,0.0,0.0,0.0,0.0,0.0,0.0,0.0,0.0,0.0,0.0,0.0,0.0,0.0,0.0,0.0,0.0,0.0,0.0,0.0,0.0,0.0,0.0,0.0,0.0,0.0,0.0,0.0,0.0,0.0,0.0,0.0,0.0,0.0,0.0,0.0,0.0,0.0,0.0,0.0,0.0,0.0,0.0,0.0,0.0,0.0,0.0,0.0,0.0,0.0,0.0,0.0,0.0,0.0,0.0,0.0,0.0,0.0,0.0,0.0,0.0,0.0,0.0,0.0,0.0,0.0,0.0,0.0,0.0,0.0,0.0,0.0,0.0,0.0,0.0,0.0,0.0,0.0,0.0,0.0,0.0,0.0,0.0,0.0,0.0,0.0,0.0,0.0,0.0,8.0841,8.0841,8.0841,8.0841,8.0841,8.0841,0.0,0.0,0.0,0.0,0.0,0.0,0.0,0.0,0.0,0.0,0.0,0.0,0.0,0.0,0.0,0.0,0.0,0.0,0.0,0.0,0.0,0.0,0.0,0.0,0.0,0.0,0.0,0.0,0.0,0.0,0.0,0.0,0.0,0.0,0.0,0.0,0.0,0.0,0.0,0.0,0.0,0.0,0.0,0.0,0.0,0.0,0.0,0.0,0.0,0.0,0.0,0.0,0.0,0.0,0.0,0.0,0.0,0.0,0.0,0.0,0.0,0.0,0.0,0.0,0.0,0.0,0.0,0.0,0.0,0.0,0.0,0.0,0.0,0.0,0.0,0.0,0.0,0.0,0.0,0.0,0.0,0.0,0.0,0.0,0.0,0.0,0.0,0.0,0.0,0.0,0.0,0.0,0.0,0.0,0.0,0.0,0.0,0.0,0.0,0.0,0.0,0.0,0.0,0.0,0.0,0.0,0.0,0.0,0.0,0.0,8.0841,8.0841,8.0841,8.0841,8.0841,8.0841,0.0,0.0,0.0,0.0,0.0,0.0,0.0,0.0,0.0,0.0,0.0,0.0,0.0,0.0,0.0,0.0,0.0,0.0,0.0,0.0,0.0,0.0,0.0,0.0,0.0,0.0,0.0,0.0,0.0,0.0,0.0,0.0,0.0,0.0,0.0,0.0,0.0,0.0,0.0,0.0,0.0,0.0,0.0,0.0,0.0,0.0,0.0,0.0,0.0,0.0,0.0,0.0,0.0,0.0,0.0,0.0,0.0,0.0,0.0,0.0,0.0,0.0,0.0,0.0,0.0,0.0,0.0,0.0,0.0,0.0,0.0,0.0,0.0,0.0,0.0,0.0,0.0,0.0,0.0,0.0,0.0,0.0,0.0,0.0,0.0,0.0,0.0,0.0,0.0,0.0,0.0,0.0,0.0,0.0,0.0,0.0,0.0,0.0,0.0,0.0,0.0,0.0,0.0,0.0,0.0,0.0,0.0,0.0,0.0,0.0,8.0841,8.0841,8.0841,8.0841,0.0,0.0,0.0,0.0,0.0,0.0,0.0,0.0,0.0,0.0,0.0,0.0,0.0,0.0,0.0,0.0,0.0,0.0,0.0,0.0,0.0,0.0,0.0,0.0,0.0,0.0,0.0,0.0,0.0,0.0,0.0,0.0,0.0,0.0,0.0,0.0,0.0,0.0,0.0,0.0,0.0,0.0,0.0,0.0,0.0,0.0,0.0,0.0,0.0,0.0,0.0,0.0,0.0,0.0,0.0,0.0,0.0,0.0,0.0,0.0,0.0,0.0,0.0,0.0,0.0,0.0,0.0,0.0,0.0,0.0,0.0,0.0,0.0,0.0,0.0,0.0,0.0,0.0,0.0,0.0,0.0,0.0,0.0,0.0,0.0,0.0,0.0,0.0,0.0,0.0,0.0,0.0,0.0,0.0,0.0,0.0,0.0,0.0,0.0,0.0,0.0,0.0,0.0,0.0,0.0,0.0,0.0,0.0,0.0,0.0,0.0,8.0841,8.0841,8.0841,0.0,8.0841,0.0,0.0,0.0,0.0,0.0,0.0,0.0,0.0,0.0,0.0,0.0,0.0,0.0,0.0,0.0,0.0,0.0,0.0,0.0,0.0,0.0,0.0,0.0,0.0,0.0,0.0,0.0,0.0,0.0,0.0,0.0,0.0,0.0,0.0,0.0,0.0,0.0,0.0,0.0,0.0,0.0,0.0,0.0,0.0,0.0,0.0,0.0,0.0,0.0,0.0,0.0,0.0,0.0,0.0,0.0,0.0,0.0,0.0,0.0,0.0,0.0,0.0,0.0,0.0,0.0,0.0,0.0,0.0,0.0,0.0,0.0,0.0,0.0,0.0,0.0,0.0,0.0,0.0,0.0,0.0,0.0,0.0,0.0,0.0,0.0,0.0,0.0,0.0,0.0,0.0,0.0,0.0,0.0,0.0,0.0,0.0,0.0,0.0,0.0,0.0,0.0,0.0,0.0,0.0,0.0,0.0,0.0,0.0,0.0,0.0,0.0,0.0,8.0841,8.0841,8.0841,0.0,0.0,0.0,0.0,0.0,0.0,0.0,0.0,0.0,0.0,0.0,0.0,0.0,0.0,0.0,0.0,0.0,0.0,0.0,0.0,0.0,0.0,0.0,0.0,0.0,0.0,0.0,0.0,0.0,0.0,0.0,0.0,0.0,0.0,0.0,0.0,0.0,0.0,0.0,0.0,0.0,0.0,0.0,0.0,0.0,0.0,0.0,0.0,0.0,0.0,0.0,0.0,0.0,0.0,0.0,0.0,0.0,0.0,0.0,0.0,0.0,0.0,0.0,0.0,0.0,0.0,0.0,0.0,0.0,0.0,0.0,0.0,0.0,0.0,0.0,0.0,0.0,0.0,0.0,0.0,0.0,0.0,0.0,0.0,0.0,0.0,0.0,0.0,0.0,0.0,0.0,0.0,0.0,0.0,0.0,0.0,0.0,0.0,0.0,0.0,0.0,0.0,0.0,0.0,0.0,0.0,0.0,0.0,0.0,0.0,8.0841,8.0841,8.0841,8.0841,8.0841,0.0,0.0,0.0,0.0,0.0,0.0,0.0,0.0,0.0,0.0,0.0,0.0,0.0,0.0,0.0,0.0,0.0,0.0,0.0,0.0,0.0,0.0,0.0,0.0,0.0,0.0,0.0,0.0,0.0,0.0,0.0,0.0,0.0,0.0,0.0,0.0,0.0,0.0,0.0,0.0,0.0,0.0,0.0,0.0,0.0,0.0,0.0,0.0,0.0,0.0,0.0,0.0,0.0,0.0,0.0,0.0,0.0,0.0,0.0,0.0,0.0,0.0,0.0,0.0,0.0,0.0,0.0,0.0,0.0,0.0,0.0,0.0,0.0,0.0,0.0,0.0,0.0,0.0,0.0,0.0,0.0,0.0,0.0,0.0,0.0,0.0,0.0,0.0,0.0,0.0,0.0,0.0,0.0,0.0,0.0,0.0,0.0,0.0,0.0,0.0,0.0,0.0,0.0,0.0,0.0,0.0,0.0,0.0,0.0,0.0,8.0841,0.0,0.0,0.0,8.0841,0.0,0.0,0.0,0.0,0.0,0.0,0.0,0.0,0.0,0.0,0.0,0.0,0.0,0.0,0.0,0.0,0.0,0.0,0.0,0.0,0.0,0.0,0.0,0.0,0.0,0.0,0.0,0.0,0.0,0.0,0.0,0.0,0.0,0.0,0.0,0.0,0.0,0.0,0.0,0.0,0.0,0.0,0.0,0.0,0.0,0.0,0.0,0.0,0.0,0.0,0.0,0.0,0.0,0.0,0.0,0.0,0.0,0.0,0.0,0.0,0.0,0.0,0.0,0.0,0.0,0.0,0.0,0.0,0.0,0.0,0.0,0.0,0.0,0.0,0.0,0.0,0.0,0.0,0.0,0.0,0.0,0.0,0.0,0.0,0.0,0.0,0.0,0.0,0.0,0.0,0.0,0.0,0.0,0.0,0.0,0.0,0.0,0.0,0.0,0.0,0.0,0.0,0.0,0.0,0.0,0.0,0.0,0.0,0.0,0.0,0.0,0.0,0.0,0.0,0.0,0.0,0.0,0.0,0.0,0.0,0.0,0.0,0.0,0.0,0.0,0.0,0.0,0.0,0.0,0.0,0.0,0.0,0.0,0.0,0.0,0.0,0.0,0.0,0.0,0.0,0.0,0.0,0.0,0.0,0.0,0.0,0.0,0.0,0.0,0.0,0.0,0.0,0.0,0.0,0.0,0.0,0.0,0.0,0.0,0.0,0.0,0.0,0.0,0.0,0.0,0.0,0.0,0.0,0.0,0.0,0.0,0.0,0.0,0.0,0.0,0.0,0.0,0.0,0.0,0.0,0.0,0.0,0.0,0.0,0.0,0.0,0.0,0.0,0.0,0.0,0.0,0.0,0.0,0.0,0.0,0.0,0.0,0.0,0.0,0.0,0.0,0.0,0.0,0.0,0.0,0.0,0.0,0.0,0.0,0.0,0.0,0.0,0.0,0.0,0.0,0.0,0.0,0.0,0.0,0.0,0.0,0.0,0.0,0.0,0.0,0.0,0.0,0.0,0.0,0.0,0.0,0.0,0.0,0.0,0.0,0.0,0.0,0.0,0.0,0.0,0.0,0.0,0.0,0.0,0.0,0.0,0.0,0.0,0.0,0.0,0.0,0.0,0.0,0.0,0.0,0.0,0.0,0.0,0.0,0.0,0.0,0.0,0.0,0.0,0.0,0.0,0.0,0.0,0.0,0.0,0.0,0.0,0.0,0.0,0.0,0.0,0.0,0.0,0.0,0.0,0.0,0.0,0.0,0.0,0.0,0.0,0.0,0.0,0.0,0.0,0.0,0.0,0.0,0.0,0.0,0.0,0.0,0.0,0.0,0.0,0.0,0.0,0.0,0.0,0.0,0.0,0.0,0.0,0.0,0.0,0.0,0.0,0.0,0.0,0.0,0.0,0.0,0.0,0.0,0.0,0.0,0.0,0.0,0.0,0.0,0.0,0.0,0.0,0.0,0.0,0.0,0.0,0.0,0.0,0.0,0.0,0.0,0.0,0.0,0.0,0.0,0.0,0.0,0.0,0.0,0.0,0.0,0.0,0.0,0.0,0.0,0.0,0.0,0.0,0.0,0.0,0.0,0.0,0.0,0.0,0.0,0.0,0.0,0.0,0.0,0.0,0.0,0.0,0.0,0.0,0.0,0.0,0.0,0.0,0.0,0.0,0.0,0.0,0.0,0.0,0.0,0.0,0.0,0.0,0.0,0.0,0.0,0.0,0.0,0.0,0.0,0.0,0.0,0.0,0.0,0.0,0.0,0.0,0.0,0.0,0.0,0.0,0.0,0.0,0.0,0.0,0.0,0.0,0.0,0.0,0.0,0.0,0.0,0.0,0.0,0.0,0.0,0.0,0.0,0.0,0.0,0.0,0.0,0.0,0.0,0.0,0.0,0.0,0.0,0.0,0.0,0.0,0.0,0.0,0.0,0.0,0.0,0.0,0.0,0.0,0.0,0.0,0.0,0.0,0.0,0.0,0.0,0.0,0.0,0.0,0.0,0.0,0.0,0.0,0.0,0.0,0.0,0.0,0.0,0.0,0.0,0.0,0.0,0.0,0.0,0.0,0.0,0.0,0.0,0.0,0.0,0.0,0.0,0.0,0.0,0.0,0.0,0.0,0.0,0.0,0.0,0.0,0.0,0.0,0.0,0.0,0.0,0.0,0.0,0.0,0.0,0.0,0.0,0.0,0.0,0.0,0.0,0.0,0.0,0.0,0.0,0.0,0.0,0.0,0.0,0.0,0.0,0.0,0.0,0.0,0.0,0.0,0.0,0.0,0.0,0.0,0.0,0.0,0.0,0.0,0.0,0.0,0.0,0.0,0.0,0.0,0.0,0.0,0.0,0.0,0.0,0.0,0.0,0.0,0.0,0.0,0.0,0.0,0.0,0.0,0.0,0.0,0.0,0.0,0.0,0.0,0.0,0.0,0.0,0.0,0.0,0.0,0.0,0.0,0.0,0.0,0.0,0.0,0.0,0.0,0.0,0.0,0.0,0.0,0.0,0.0,0.0,0.0,0.0,0.0,0.0,0.0,0.0,0.0,0.0,0.0,0.0,0.0,0.0,0.0,0.0,0.0,0.0,0.0,0.0,0.0,0.0,0.0,0.0,0.0,0.0,0.0,0.0,0.0,0.0,0.0,0.0,0.0,0.0,0.0,0.0,0.0,0.0,0.0,0.0,0.0,0.0,0.0,0.0,0.0,0.0,0.0,0.0,0.0,0.0,0.0,0.0,0.0,0.0,0.0,0.0,0.0,0.0,0.0,0.0,0.0,0.0,0.0,0.0,0.0,0.0,0.0,0.0,0.0,0.0,0.0,0.0,0.0,0.0,0.0,0.0,0.0,0.0,0.0,0.0,0.0,0.0,0.0,0.0,0.0,0.0,0.0,0.0,0.0,0.0,0.0,0.0,0.0,0.0,0.0,0.0,0.0,0.0,0.0,0.0,0.0,0.0,0.0,0.0,0.0,0.0,0.0,0.0,0.0,0.0,0.0,0.0,0.0,0.0,0.0,0.0,0.0,0.0,0.0,0.0,0.0,0.0,0.0,0.0,0.0,0.0,0.0,0.0,0.0,0.0,0.0,0.0,0.0,0.0,0.0,0.0,0.0,0.0,0.0,0.0,0.0,0.0,0.0,0.0,0.0,0.0,0.0,0.0,0.0,0.0,0.0,0.0,0.0,0.0,0.0,0.0,0.0,0.0,0.0,0.0,0.0,0.0,0.0,0.0,0.0,0.0,0.0,0.0,0.0,0.0,0.0,0.0,0.0,0.0,0.0,0.0,0.0,0.0,0.0,0.0,0.0,0.0,0.0,0.0,0.0,0.0,0.0,0.0,0.0,0.0,0.0,0.0,0.0,0.0,0.0,0.0,0.0,0.0,0.0,0.0,0.0,0.0,0.0,0.0,0.0,0.0,0.0,0.0,0.0,0.0,0.0,0.0,0.0,0.0,0.0,0.0,0.0,0.0,0.0,0.0,0.0,0.0,0.0,0.0,0.0,0.0,0.0,0.0,0.0,0.0,0.0,0.0,0.0,0.0,0.0,0.0,0.0,0.0,0.0,0.0,0.0,0.0,0.0,0.0,0.0,0.0,0.0,0.0,0.0,0.0,0.0,0.0,0.0,0.0,0.0,0.0,0.0,0.0,0.0,0.0,0.0,0.0,0.0,0.0,0.0,0.0,0.0,0.0,0.0,0.0,0.0,0.0,0.0,0.0,0.0,0.0,0.0,0.0,0.0,0.0,0.0,0.0,0.0,0.0,0.0,0.0,0.0,0.0,0.0,0.0,0.0,0.0,0.0,0.0,0.0,0.0,0.0,0.0,0.0,0.0,0.0,0.0,0.0,0.0,0.0,0.0,0.0,0.0,0.0,0.0,0.0,0.0,0.0,0.0,0.0,0.0,0.0,0.0,0.0,0.0,0.0,0.0,0.0,0.0,0.0,0.0,0.0,0.0,0.0,0.0,0.0,0.0,0.0,0.0,0.0,0.0,0.0,0.0,0.0,0.0,0.0,0.0,0.0,0.0,0.0,0.0,0.0,0.0,0.0,0.0,0.0,0.0,0.0,0.0,0.0,0.0,0.0,0.0,0.0,0.0,0.0,0.0,0.0,0.0,0.0,0.0,0.0,0.0,0.0,0.0,0.0,0.0,0.0,0.0,0.0,0.0,0.0,0.0,0.0,0.0,0.0,0.0,0.0,0.0,0.0,0.0,0.0,0.0,0.0,0.0,0.0,0.0,0.0,0.0,0.0,0.0,0.0,0.0,0.0,0.0,0.0,0.0,0.0,0.0,0.0,0.0,0.0,0.0,0.0,0.0,0.0,0.0,0.0,0.0,0.0,0.0,0.0,0.0,0.0,0.0,0.0,0.0,0.0]}]]]